Darstellungsparameter: Aktuell verwendete Einstellungen:
Skalierung der Graphiken ... ?
xyx+y,   Skalierungsfaktor:      Skalierung: Modus: x, Faktor: 1
Darstellungszeitraum ... ?
Vom - - bis: - -   Zeitraum: 03.08.2019 - 02.08.2020
Min/Max/Avg-Anzeige ... ?
Zeige MMA aktuell
Zeige MMA Monat
Zeige MMA alles
Zeige --A aktuell
Zeige --A Monat
Zeige --A alles
Keine MMA-Anzeige
MMA:
Keine MMA-Graphiken
MMA-Basis: 03.08.2019 - 02.08.2020
Quicknavigation für Darstellung... ?
Tage:      1T, 2T, 3T, 5T -1T -2T -3T -5T +1T +2T +3T +5T
Wochen: 1W, 2W, 3W -1W -2W -3W +1W +2W +3W
Monate: 1M, 3M, 6M -1M -3M -6M +1M +3M +6M
Jahre:    1J, 3J, 5J, 10J -1J -3J -5J -10J +1J +3J +5J +10J
Nutze für die Darstellung ... ?
Originaldaten oder ...
Mittelwerte Minima Maxima auf...
Stundenbasis Tagesbasis Wochenbasis
Monatsbasis Jahresbasis      Datenbasis: Mittelwerte auf Stundenbasis
Darstellen als:
Statistik (Auto) Statistik J:M      Darstellung:
Zur Graphik,    zurück zur Übersicht aller Sensoren.
 
Tabellarische Datenbersicht: ?
 
Sensor: Nr:Datum:Temp:Feuchte:Taupunkt:
Aussen-T/F 1 03-08-2019 00:00:00 17.75833 C 84.3333 % 15.08 C
2 03-08-2019 01:00:00 18.28333 C 82.5000 % 15.25 C
3 03-08-2019 02:00:00 18.24167 C 84.4167 % 15.57 C
4 03-08-2019 03:00:00 18.2 C 85.6667 % 15.76 C
5 03-08-2019 04:00:00 18.15 C 86.9167 % 15.94 C
6 03-08-2019 05:00:00 18.14167 C 87.0000 % 15.94 C
7 03-08-2019 06:00:00 17.89167 C 87.2500 % 15.74 C
8 03-08-2019 07:00:00 17.84167 C 85.6667 % 15.41 C
9 03-08-2019 08:00:00 17.95 C 84.5000 % 15.3 C
10 03-08-2019 09:00:00 18.6 C 79.2500 % 14.94 C
11 03-08-2019 10:00:00 19.61667 C 75.5000 % 15.17 C
12 03-08-2019 11:00:00 20.35833 C 73.1667 % 15.39 C
13 03-08-2019 12:00:00 21.55833 C 66.9167 % 15.15 C
14 03-08-2019 13:00:00 22.05 C 66.3333 % 15.48 C
15 03-08-2019 14:00:00 22.20833 C 65.8333 % 15.52 C
16 03-08-2019 15:00:00 23.80833 C 58.0000 % 15.05 C
17 03-08-2019 16:00:00 25.16667 C 53.1667 % 14.96 C
18 03-08-2019 17:00:00 25.49167 C 51.0000 % 14.61 C
19 03-08-2019 18:00:00 25.46667 C 51.0000 % 14.59 C
20 03-08-2019 19:00:00 24.30833 C 54.5000 % 14.55 C
21 03-08-2019 20:00:00 22.61667 C 59.8333 % 14.42 C
22 03-08-2019 21:00:00 20.55833 C 65.7500 % 13.93 C
23 03-08-2019 22:00:00 18.10833 C 74.1667 % 13.44 C
24 03-08-2019 23:00:00 17.05 C 79.3333 % 13.45 C
25 04-08-2019 00:00:00 16.225 C 81.8333 % 13.12 C
Sensor: Nr:Datum:Temp:Feuchte:Taupunkt:
Aussen-T/F 26 04-08-2019 01:00:00 15.125 C 85.5000 % 12.71 C
27 04-08-2019 02:00:00 14 C 88.7500 % 12.17 C
28 04-08-2019 03:00:00 13.3 C 90.9167 % 11.85 C
29 04-08-2019 04:00:00 12.88333 C 92.0833 % 11.63 C
30 04-08-2019 05:00:00 12.49167 C 93.0000 % 11.39 C
31 04-08-2019 06:00:00 12.34167 C 93.8333 % 11.38 C
32 04-08-2019 07:00:00 12.725 C 94.4167 % 11.85 C
33 04-08-2019 08:00:00 13.73333 C 95.0000 % 12.95 C
34 04-08-2019 09:00:00 15.34167 C 93.0833 % 14.23 C
35 04-08-2019 10:00:00 18.10833 C 83.3333 % 15.24 C
36 04-08-2019 11:00:00 21.31667 C 67.5000 % 15.06 C
37 04-08-2019 12:00:00 23.3 C 59.5000 % 14.97 C
38 04-08-2019 13:00:00 24.75 C 53.6667 % 14.72 C
39 04-08-2019 14:00:00 25.86667 C 48.5833 % 14.21 C
40 04-08-2019 15:00:00 28.225 C 40.6667 % 13.6 C
41 04-08-2019 16:00:00 30.03333 C 34.5000 % 12.68 C
42 04-08-2019 17:00:00 30.95833 C 32.0833 % 12.38 C
43 04-08-2019 18:00:00 30.79167 C 33.7500 % 13.01 C
44 04-08-2019 19:00:00 28.75833 C 41.6667 % 14.45 C
45 04-08-2019 20:00:00 25.78333 C 51.9167 % 15.16 C
46 04-08-2019 21:00:00 22.51667 C 60.3333 % 14.45 C
47 04-08-2019 22:00:00 21.95833 C 63.6667 % 14.76 C
48 04-08-2019 23:00:00 22.39167 C 61.2500 % 14.57 C
49 05-08-2019 00:00:00 22.875 C 57.8333 % 14.13 C
50 05-08-2019 01:00:00 21.65833 C 62.4167 % 14.17 C
Sensor: Nr:Datum:Temp:Feuchte:Taupunkt:
Aussen-T/F 51 05-08-2019 02:00:00 20.28333 C 66.8333 % 13.92 C
52 05-08-2019 03:00:00 19.6 C 69.6667 % 13.91 C
53 05-08-2019 04:00:00 19.31667 C 75.7500 % 14.93 C
54 05-08-2019 05:00:00 19.325 C 78.0000 % 15.39 C
55 05-08-2019 06:00:00 18.28333 C 87.3333 % 16.14 C
56 05-08-2019 07:00:00 17.53333 C 92.3333 % 16.28 C
57 05-08-2019 08:00:00 17.64167 C 94.5000 % 16.75 C
58 05-08-2019 09:00:00 18.75 C 94.9167 % 17.92 C
59 05-08-2019 10:00:00 20.08333 C 92.5833 % 18.84 C
60 05-08-2019 11:00:00 21.99167 C 84.0833 % 19.18 C
61 05-08-2019 12:00:00 24.25 C 68.7500 % 18.14 C
62 05-08-2019 13:00:00 26 C 59.7500 % 17.57 C
63 05-08-2019 14:00:00 27.11667 C 54.6667 % 17.2 C
64 05-08-2019 15:00:00 28.375 C 46.5000 % 15.81 C
65 05-08-2019 16:00:00 28.875 C 41.3333 % 14.43 C
66 05-08-2019 17:00:00 28.225 C 42.0833 % 14.13 C
67 05-08-2019 18:00:00 27.7 C 42.1667 % 13.68 C
68 05-08-2019 19:00:00 26.7 C 46.4167 % 14.26 C
69 05-08-2019 20:00:00 25.1 C 53.5833 % 15.02 C
70 05-08-2019 21:00:00 22.075 C 61.1667 % 14.25 C
71 05-08-2019 22:00:00 20.53333 C 69.3333 % 14.73 C
72 05-08-2019 23:00:00 19.28333 C 74.0000 % 14.54 C
73 06-08-2019 00:00:00 18.00833 C 78.2500 % 14.17 C
74 06-08-2019 01:00:00 17.10833 C 81.4167 % 13.9 C
75 06-08-2019 02:00:00 17.00833 C 82.9167 % 14.09 C
Sensor: Nr:Datum:Temp:Feuchte:Taupunkt:
Aussen-T/F 76 06-08-2019 03:00:00 17.45833 C 83.0833 % 14.56 C
77 06-08-2019 04:00:00 17.20833 C 83.8333 % 14.45 C
78 06-08-2019 05:00:00 16.60833 C 85.6667 % 14.2 C
79 06-08-2019 06:00:00 16.66667 C 86.5833 % 14.42 C
80 06-08-2019 07:00:00 17.83333 C 83.2500 % 14.95 C
81 06-08-2019 08:00:00 18.675 C 81.0833 % 15.37 C
82 06-08-2019 09:00:00 20.1 C 76.5000 % 15.84 C
83 06-08-2019 10:00:00 19.91667 C 83.7500 % 17.09 C
84 06-08-2019 11:00:00 19.65 C 89.1667 % 17.82 C
85 06-08-2019 12:00:00 21.31667 C 82.2500 % 18.17 C
86 06-08-2019 13:00:00 22.325 C 77.4167 % 18.18 C
87 06-08-2019 14:00:00 23.61667 C 69.8333 % 17.79 C
88 06-08-2019 15:00:00 24.725 C 64.7500 % 17.64 C
89 06-08-2019 16:00:00 25.39167 C 61.9167 % 17.56 C
90 06-08-2019 17:00:00 26.4 C 57.5000 % 17.33 C
91 06-08-2019 18:00:00 25.20833 C 61.8333 % 17.37 C
92 06-08-2019 19:00:00 22.54167 C 76.7500 % 18.25 C
93 06-08-2019 20:00:00 19.05 C 90.4167 % 17.44 C
94 06-08-2019 21:00:00 18.00833 C 93.1667 % 16.89 C
95 06-08-2019 22:00:00 17.51667 C 94.0000 % 16.54 C
96 06-08-2019 23:00:00 17.08333 C 94.9167 % 16.26 C
97 07-08-2019 00:00:00 16.68333 C 95.0000 % 15.88 C
98 07-08-2019 01:00:00 16.3 C 95.5000 % 15.58 C
99 07-08-2019 02:00:00 16.45833 C 96.0000 % 15.82 C
100 07-08-2019 03:00:00 16.58333 C 96.2500 % 15.98 C
Sensor: Nr:Datum:Temp:Feuchte:Taupunkt:
Aussen-T/F 101 07-08-2019 04:00:00 16.63333 C 97.0000 % 16.15 C
102 07-08-2019 05:00:00 16.66667 C 97.0000 % 16.19 C
103 07-08-2019 06:00:00 16.875 C 97.0000 % 16.4 C
104 07-08-2019 07:00:00 17.25 C 97.0000 % 16.77 C
105 07-08-2019 08:00:00 17.75833 C 97.0000 % 17.28 C
106 07-08-2019 09:00:00 18.25 C 97.0000 % 17.77 C
107 07-08-2019 10:00:00 18.96667 C 96.4167 % 18.38 C
108 07-08-2019 11:00:00 19.725 C 93.0833 % 18.57 C
109 07-08-2019 12:00:00 20.83333 C 84.5000 % 18.12 C
110 07-08-2019 13:00:00 21.85833 C 76.3333 % 17.51 C
111 07-08-2019 14:00:00 22.525 C 75.3333 % 17.94 C
112 07-08-2019 15:00:00 22.59167 C 72.9167 % 17.49 C
113 07-08-2019 16:00:00 22.08333 C 72.8333 % 16.98 C
114 07-08-2019 17:00:00 22.53333 C 71.2500 % 17.07 C
115 07-08-2019 18:00:00 23.35833 C 68.4167 % 17.21 C
116 07-08-2019 19:00:00 22.38333 C 73.7500 % 17.47 C
117 07-08-2019 20:00:00 20.05833 C 83.5000 % 17.18 C
118 07-08-2019 21:00:00 18.05 C 86.7500 % 15.81 C
119 07-08-2019 22:00:00 16.74167 C 89.7500 % 15.05 C
120 07-08-2019 23:00:00 16.64167 C 89.1667 % 14.85 C
121 08-08-2019 00:00:00 15.76667 C 91.4167 % 14.37 C
122 08-08-2019 01:00:00 16.35 C 92.0000 % 15.05 C
123 08-08-2019 02:00:00 16.45 C 92.0000 % 15.15 C
124 08-08-2019 03:00:00 16.44167 C 91.9167 % 15.12 C
125 08-08-2019 04:00:00 16.06667 C 92.6667 % 14.88 C
Sensor: Nr:Datum:Temp:Feuchte:Taupunkt:
Aussen-T/F 126 08-08-2019 05:00:00 15.31667 C 93.2500 % 14.23 C
127 08-08-2019 06:00:00 15.7 C 94.0000 % 14.74 C
128 08-08-2019 07:00:00 15.95 C 93.5833 % 14.92 C
129 08-08-2019 08:00:00 17.05833 C 91.1667 % 15.61 C
130 08-08-2019 09:00:00 18.55833 C 84.0833 % 15.82 C
131 08-08-2019 10:00:00 20.05833 C 73.0000 % 15.07 C
132 08-08-2019 11:00:00 21.74167 C 65.7500 % 15.05 C
133 08-08-2019 12:00:00 22.99167 C 61.1667 % 15.11 C
134 08-08-2019 13:00:00 24.025 C 57.4167 % 15.1 C
135 08-08-2019 14:00:00 24.20833 C 57.3333 % 15.24 C
136 08-08-2019 15:00:00 24.51667 C 57.1667 % 15.49 C
137 08-08-2019 16:00:00 26.58333 C 51.4167 % 15.74 C
138 08-08-2019 17:00:00 27.18333 C 48.1667 % 15.28 C
139 08-08-2019 18:00:00 27.46667 C 47.3333 % 15.26 C
140 08-08-2019 19:00:00 25.43333 C 62.0833 % 17.64 C
141 08-08-2019 20:00:00 23.575 C 67.5833 % 17.23 C
142 08-08-2019 21:00:00 20.625 C 76.4167 % 16.33 C
143 08-08-2019 22:00:00 19.15833 C 83.1667 % 16.23 C
144 08-08-2019 23:00:00 18.16667 C 87.5000 % 16.06 C
145 09-08-2019 00:00:00 17.15833 C 89.4167 % 15.4 C
146 09-08-2019 01:00:00 16.25833 C 91.2500 % 14.83 C
147 09-08-2019 02:00:00 15.875 C 92.0000 % 14.58 C
148 09-08-2019 03:00:00 15.21667 C 92.7500 % 14.05 C
149 09-08-2019 04:00:00 14.725 C 93.6667 % 13.71 C
150 09-08-2019 05:00:00 14.44167 C 94.0833 % 13.5 C
Sensor: Nr:Datum:Temp:Feuchte:Taupunkt:
Aussen-T/F 151 09-08-2019 06:00:00 14.56667 C 95.0000 % 13.78 C
152 09-08-2019 07:00:00 15.40833 C 95.3333 % 14.67 C
153 09-08-2019 08:00:00 16.44167 C 93.1667 % 15.33 C
154 09-08-2019 09:00:00 18.26667 C 87.8333 % 16.22 C
155 09-08-2019 10:00:00 20.60833 C 80.7500 % 17.18 C
156 09-08-2019 11:00:00 23.8 C 71.5833 % 18.35 C
157 09-08-2019 12:00:00 25.26667 C 65.8333 % 18.42 C
158 09-08-2019 13:00:00 25.275 C 66.4167 % 18.57 C
159 09-08-2019 14:00:00 24.75 C 77.3333 % 20.51 C
160 09-08-2019 15:00:00 24.43333 C 82.0833 % 21.17 C
161 09-08-2019 16:00:00 27.25 C 69.9167 % 21.28 C
162 09-08-2019 17:00:00 25.45 C 81.5000 % 22.05 C
163 09-08-2019 18:00:00 22.78333 C 88.9167 % 20.86 C
164 09-08-2019 19:00:00 21.5 C 93.0833 % 20.33 C
165 09-08-2019 20:00:00 19.63333 C 94.0833 % 18.65 C
166 09-08-2019 21:00:00 19.31667 C 95.5000 % 18.58 C
167 09-08-2019 22:00:00 19.30833 C 96.0000 % 18.65 C
168 09-08-2019 23:00:00 18.86667 C 96.0000 % 18.21 C
169 10-08-2019 00:00:00 18.775 C 96.5833 % 18.22 C
170 10-08-2019 01:00:00 18.73333 C 96.9167 % 18.23 C
171 10-08-2019 02:00:00 18.50833 C 97.0000 % 18.02 C
172 10-08-2019 03:00:00 18.29167 C 97.0000 % 17.81 C
173 10-08-2019 04:00:00 18.11667 C 97.0000 % 17.63 C
174 10-08-2019 05:00:00 17.53333 C 97.0000 % 17.05 C
175 10-08-2019 06:00:00 17.45 C 97.0000 % 16.97 C
Sensor: Nr:Datum:Temp:Feuchte:Taupunkt:
Aussen-T/F 176 10-08-2019 07:00:00 17.33333 C 97.0000 % 16.85 C
177 10-08-2019 08:00:00 17.41667 C 95.0833 % 16.62 C
178 10-08-2019 09:00:00 19.125 C 86.0000 % 16.73 C
179 10-08-2019 10:00:00 20.36667 C 79.5000 % 16.7 C
180 10-08-2019 11:00:00 21.43333 C 74.3333 % 16.68 C
181 10-08-2019 12:00:00 22.38333 C 69.0000 % 16.42 C
182 10-08-2019 13:00:00 23.26667 C 63.4167 % 15.93 C
183 10-08-2019 14:00:00 23.83333 C 60.7500 % 15.8 C
184 10-08-2019 15:00:00 24.99167 C 55.4167 % 15.44 C
185 10-08-2019 16:00:00 25.24167 C 53.5000 % 15.13 C
186 10-08-2019 17:00:00 26.29167 C 49.2500 % 14.81 C
187 10-08-2019 18:00:00 25.99167 C 49.0833 % 14.48 C
188 10-08-2019 19:00:00 25.00833 C 49.6667 % 13.76 C
189 10-08-2019 20:00:00 22.63333 C 61.2500 % 14.79 C
190 10-08-2019 21:00:00 19.41667 C 72.6667 % 14.38 C
191 10-08-2019 22:00:00 17.71667 C 78.7500 % 13.98 C
192 10-08-2019 23:00:00 16.45833 C 82.0000 % 13.38 C
193 11-08-2019 00:00:00 15.75833 C 84.8333 % 13.21 C
194 11-08-2019 01:00:00 15.375 C 87.3333 % 13.28 C
195 11-08-2019 02:00:00 15.7 C 86.5000 % 13.45 C
196 11-08-2019 03:00:00 15.20833 C 86.5000 % 12.97 C
197 11-08-2019 04:00:00 14.43333 C 88.3333 % 12.53 C
198 11-08-2019 05:00:00 13.58333 C 90.1667 % 12 C
199 11-08-2019 06:00:00 13.40833 C 92.6667 % 12.25 C
200 11-08-2019 07:00:00 14.04167 C 92.2500 % 12.8 C
Sensor: Nr:Datum:Temp:Feuchte:Taupunkt:
Aussen-T/F 201 11-08-2019 08:00:00 14.9 C 91.3333 % 13.5 C
202 11-08-2019 09:00:00 16.21667 C 87.0833 % 14.07 C
203 11-08-2019 10:00:00 19.375 C 69.7500 % 13.71 C
204 11-08-2019 11:00:00 21.26667 C 59.2500 % 13 C
205 11-08-2019 12:00:00 22.09167 C 55.8333 % 12.86 C
206 11-08-2019 13:00:00 22.775 C 51.0833 % 12.14 C
207 11-08-2019 14:00:00 22.89167 C 52.5833 % 12.69 C
208 11-08-2019 15:00:00 21.50833 C 61.3333 % 13.76 C
209 11-08-2019 16:00:00 20.05 C 70.0000 % 14.41 C
210 11-08-2019 17:00:00 17.18333 C 86.8333 % 14.97 C
211 11-08-2019 18:00:00 16.475 C 90.4167 % 14.9 C
212 11-08-2019 19:00:00 16.075 C 89.6667 % 14.38 C
213 11-08-2019 20:00:00 15.775 C 91.0000 % 14.31 C
214 11-08-2019 21:00:00 15.23333 C 91.7500 % 13.9 C
215 11-08-2019 22:00:00 14.3 C 91.8333 % 12.99 C
216 11-08-2019 23:00:00 14.24167 C 93.3333 % 13.18 C
217 12-08-2019 00:00:00 14.85833 C 92.5833 % 13.67 C
218 12-08-2019 01:00:00 14.325 C 92.0833 % 13.06 C
219 12-08-2019 02:00:00 13.66667 C 93.4167 % 12.62 C
220 12-08-2019 03:00:00 13.125 C 94.0000 % 12.18 C
221 12-08-2019 04:00:00 12.89167 C 95.0000 % 12.11 C
222 12-08-2019 05:00:00 12.675 C 95.0000 % 11.9 C
223 12-08-2019 06:00:00 12.69167 C 95.5833 % 12 C
224 12-08-2019 07:00:00 13.05833 C 96.0000 % 12.44 C
225 12-08-2019 08:00:00 13.5 C 96.0000 % 12.87 C
Sensor: Nr:Datum:Temp:Feuchte:Taupunkt:
Aussen-T/F 226 12-08-2019 09:00:00 15.05 C 92.5833 % 13.86 C
227 12-08-2019 10:00:00 17.65 C 82.5000 % 14.63 C
228 12-08-2019 11:00:00 20.08333 C 72.5833 % 15.01 C
229 12-08-2019 12:00:00 21.275 C 65.6667 % 14.59 C
230 12-08-2019 13:00:00 21.775 C 60.7500 % 13.86 C
231 12-08-2019 14:00:00 22.55 C 60.2500 % 14.46 C
232 12-08-2019 15:00:00 23.475 C 55.5833 % 14.08 C
233 12-08-2019 16:00:00 22.54167 C 58.5000 % 14 C
234 12-08-2019 17:00:00 17.89167 C 77.2500 % 13.85 C
235 12-08-2019 18:00:00 15.925 C 90.0000 % 14.29 C
236 12-08-2019 19:00:00 15.925 C 92.0000 % 14.63 C
237 12-08-2019 20:00:00 15.54167 C 92.1667 % 14.28 C
238 12-08-2019 21:00:00 15.19167 C 93.5833 % 14.16 C
239 12-08-2019 22:00:00 14.975 C 94.0000 % 14.02 C
240 12-08-2019 23:00:00 14.01667 C 92.6667 % 12.85 C
241 13-08-2019 00:00:00 13.55833 C 94.2500 % 12.65 C
242 13-08-2019 01:00:00 13.025 C 94.2500 % 12.12 C
243 13-08-2019 02:00:00 12.83333 C 95.2500 % 12.09 C
244 13-08-2019 03:00:00 12.9 C 95.5833 % 12.21 C
245 13-08-2019 04:00:00 13.275 C 95.8333 % 12.62 C
246 13-08-2019 05:00:00 13.18333 C 95.0000 % 12.4 C
247 13-08-2019 06:00:00 12.75 C 95.1667 % 12 C
248 13-08-2019 07:00:00 12.9 C 95.2500 % 12.16 C
249 13-08-2019 08:00:00 13.39167 C 92.7500 % 12.24 C
250 13-08-2019 09:00:00 14.85 C 86.8333 % 12.68 C
Sensor: Nr:Datum:Temp:Feuchte:Taupunkt:
Aussen-T/F 251 13-08-2019 10:00:00 16.225 C 74.6667 % 11.72 C
252 13-08-2019 11:00:00 17.175 C 67.2500 % 11.06 C
253 13-08-2019 12:00:00 18.13333 C 63.4167 % 11.08 C
254 13-08-2019 13:00:00 19.025 C 55.6667 % 9.97 C
255 13-08-2019 14:00:00 19.875 C 52.8333 % 9.97 C
256 13-08-2019 15:00:00 21.275 C 50.3333 % 10.54 C
257 13-08-2019 16:00:00 21.38333 C 50.9167 % 10.81 C
258 13-08-2019 17:00:00 21.25833 C 50.5000 % 10.57 C
259 13-08-2019 18:00:00 21.175 C 51.8333 % 10.89 C
260 13-08-2019 19:00:00 18.53333 C 64.7500 % 11.78 C
261 13-08-2019 20:00:00 14.91667 C 86.6667 % 12.71 C
262 13-08-2019 21:00:00 13.99167 C 91.3333 % 12.6 C
263 13-08-2019 22:00:00 13.63333 C 92.5833 % 12.45 C
264 13-08-2019 23:00:00 13.36667 C 93.0000 % 12.26 C
265 14-08-2019 00:00:00 13.05 C 93.0833 % 11.96 C
266 14-08-2019 01:00:00 12.61667 C 93.1667 % 11.54 C
267 14-08-2019 02:00:00 12.10833 C 93.1667 % 11.04 C
268 14-08-2019 03:00:00 11.93333 C 94.0000 % 11 C
269 14-08-2019 04:00:00 11.43333 C 94.0833 % 10.52 C
270 14-08-2019 05:00:00 11.00833 C 95.0000 % 10.24 C
271 14-08-2019 06:00:00 10.61667 C 95.1667 % 9.88 C
272 14-08-2019 07:00:00 10.61667 C 96.0000 % 10.01 C
273 14-08-2019 08:00:00 11.4 C 96.3333 % 10.84 C
274 14-08-2019 09:00:00 13.28333 C 93.5000 % 12.26 C
275 14-08-2019 10:00:00 14.26667 C 91.8333 % 12.96 C
Sensor: Nr:Datum:Temp:Feuchte:Taupunkt:
Aussen-T/F 276 14-08-2019 11:00:00 15.66667 C 83.2500 % 12.84 C
277 14-08-2019 12:00:00 18.1 C 62.7500 % 10.89 C
278 14-08-2019 13:00:00 19.59167 C 55.0000 % 10.31 C
279 14-08-2019 14:00:00 21.08333 C 50.1667 % 10.31 C
280 14-08-2019 15:00:00 22.60833 C 49.2500 % 11.44 C
281 14-08-2019 16:00:00 23.74167 C 46.2500 % 11.52 C
282 14-08-2019 17:00:00 24.44167 C 44.7500 % 11.66 C
283 14-08-2019 18:00:00 24 C 46.7500 % 11.92 C
284 14-08-2019 19:00:00 22.31667 C 56.5000 % 13.25 C
285 14-08-2019 20:00:00 19.675 C 67.5833 % 13.51 C
286 14-08-2019 21:00:00 18.1 C 74.0833 % 13.41 C
287 14-08-2019 22:00:00 17.63333 C 76.1667 % 13.39 C
288 14-08-2019 23:00:00 17.4 C 76.5000 % 13.23 C
289 15-08-2019 00:00:00 17.35833 C 76.5833 % 13.21 C
290 15-08-2019 01:00:00 17.38333 C 77.5000 % 13.41 C
291 15-08-2019 02:00:00 16.2 C 88.4167 % 14.28 C
292 15-08-2019 03:00:00 15.275 C 92.4167 % 14.05 C
293 15-08-2019 04:00:00 14.90833 C 93.6667 % 13.9 C
294 15-08-2019 05:00:00 14.84167 C 94.1667 % 13.91 C
295 15-08-2019 06:00:00 14.96667 C 94.8333 % 14.15 C
296 15-08-2019 07:00:00 15.6 C 92.3333 % 14.36 C
297 15-08-2019 08:00:00 17.59167 C 83.9167 % 14.84 C
298 15-08-2019 09:00:00 18.48333 C 81.5000 % 15.26 C
299 15-08-2019 10:00:00 19.14167 C 81.0000 % 15.8 C
300 15-08-2019 11:00:00 19.28333 C 81.5833 % 16.05 C
Sensor: Nr:Datum:Temp:Feuchte:Taupunkt:
Aussen-T/F 301 15-08-2019 12:00:00 19.90833 C 79.6667 % 16.29 C
302 15-08-2019 13:00:00 18.94167 C 88.6667 % 17.03 C
303 15-08-2019 14:00:00 19.73333 C 86.0000 % 17.32 C
304 15-08-2019 15:00:00 20.79167 C 81.3333 % 17.48 C
305 15-08-2019 16:00:00 19.325 C 89.5833 % 17.57 C
306 15-08-2019 17:00:00 17.3 C 92.9167 % 16.14 C
307 15-08-2019 18:00:00 16.975 C 94.1667 % 16.03 C
308 15-08-2019 19:00:00 17.25 C 94.5833 % 16.37 C
309 15-08-2019 20:00:00 17.09167 C 94.5833 % 16.22 C
310 15-08-2019 21:00:00 16.40833 C 94.7500 % 15.56 C
311 15-08-2019 22:00:00 15.93333 C 94.5833 % 15.06 C
312 15-08-2019 23:00:00 15.54167 C 95.0000 % 14.74 C
313 16-08-2019 00:00:00 15.29167 C 95.0833 % 14.51 C
314 16-08-2019 01:00:00 14.63333 C 95.2500 % 13.88 C
315 16-08-2019 02:00:00 14.575 C 96.0000 % 13.94 C
316 16-08-2019 03:00:00 14.64167 C 96.0000 % 14.01 C
317 16-08-2019 04:00:00 14.08333 C 96.0000 % 13.46 C
318 16-08-2019 05:00:00 13.575 C 96.2500 % 12.99 C
319 16-08-2019 06:00:00 13.69167 C 97.0000 % 13.22 C
320 16-08-2019 07:00:00 14.18333 C 96.5833 % 13.65 C
321 16-08-2019 08:00:00 14.45833 C 95.0833 % 13.68 C
322 16-08-2019 09:00:00 15.54167 C 89.7500 % 13.87 C
323 16-08-2019 10:00:00 16.26667 C 85.7500 % 13.88 C
324 16-08-2019 11:00:00 17.1 C 82.4167 % 14.08 C
325 16-08-2019 12:00:00 18.43333 C 76.4167 % 14.21 C
Sensor: Nr:Datum:Temp:Feuchte:Taupunkt:
Aussen-T/F 326 16-08-2019 13:00:00 19.65 C 70.7500 % 14.19 C
327 16-08-2019 14:00:00 20.4 C 67.6667 % 14.22 C
328 16-08-2019 15:00:00 21.90833 C 61.0000 % 14.05 C
329 16-08-2019 16:00:00 23.63333 C 54.5000 % 13.92 C
330 16-08-2019 17:00:00 24.475 C 51.8333 % 13.93 C
331 16-08-2019 18:00:00 24.43333 C 52.0833 % 13.96 C
332 16-08-2019 19:00:00 23.41667 C 58.1667 % 14.73 C
333 16-08-2019 20:00:00 20.075 C 71.5833 % 14.78 C
334 16-08-2019 21:00:00 17.75833 C 80.3333 % 14.33 C
335 16-08-2019 22:00:00 16.88333 C 84.8333 % 14.32 C
336 16-08-2019 23:00:00 16.23333 C 86.5833 % 13.99 C
337 17-08-2019 00:00:00 15.69167 C 87.8333 % 13.68 C
338 17-08-2019 01:00:00 15.86667 C 88.2500 % 13.93 C
339 17-08-2019 02:00:00 15.76667 C 88.6667 % 13.9 C
340 17-08-2019 03:00:00 15.76667 C 91.0833 % 14.32 C
341 17-08-2019 04:00:00 15.69167 C 93.2500 % 14.6 C
342 17-08-2019 05:00:00 15.63333 C 94.0000 % 14.67 C
343 17-08-2019 06:00:00 15.65833 C 94.0000 % 14.7 C
344 17-08-2019 07:00:00 16.13333 C 94.0000 % 15.17 C
345 17-08-2019 08:00:00 16.95833 C 90.7500 % 15.44 C
346 17-08-2019 09:00:00 18.66667 C 80.1667 % 15.18 C
347 17-08-2019 10:00:00 19.01667 C 81.0833 % 15.7 C
348 17-08-2019 11:00:00 18.59167 C 86.8333 % 16.36 C
349 17-08-2019 12:00:00 19.275 C 85.1667 % 16.72 C
350 17-08-2019 13:00:00 20.68333 C 76.3333 % 16.37 C
Sensor: Nr:Datum:Temp:Feuchte:Taupunkt:
Aussen-T/F 351 17-08-2019 14:00:00 21 C 74.9167 % 16.38 C
352 17-08-2019 15:00:00 21.31667 C 74.8333 % 16.67 C
353 17-08-2019 16:00:00 21 C 75.9167 % 16.59 C
354 17-08-2019 17:00:00 20.44167 C 77.9167 % 16.46 C
355 17-08-2019 18:00:00 19.975 C 83.0833 % 17.02 C
356 17-08-2019 19:00:00 19.125 C 88.2500 % 17.13 C
357 17-08-2019 20:00:00 18.325 C 91.0833 % 16.84 C
358 17-08-2019 21:00:00 17.84167 C 92.6667 % 16.64 C
359 17-08-2019 22:00:00 17.74167 C 94.0000 % 16.76 C
360 17-08-2019 23:00:00 17.525 C 94.6667 % 16.66 C
361 18-08-2019 00:00:00 17.4 C 95.0000 % 16.59 C
362 18-08-2019 01:00:00 17.38333 C 95.5833 % 16.67 C
363 18-08-2019 02:00:00 17.225 C 96.0000 % 16.58 C
364 18-08-2019 03:00:00 17.2 C 96.0000 % 16.56 C
365 18-08-2019 04:00:00 17.18333 C 96.0000 % 16.54 C
366 18-08-2019 05:00:00 17.3 C 96.7500 % 16.78 C
367 18-08-2019 06:00:00 17.26667 C 97.0000 % 16.79 C
368 18-08-2019 07:00:00 17.34167 C 97.0000 % 16.86 C
369 18-08-2019 08:00:00 17.93333 C 97.0000 % 17.45 C
370 18-08-2019 09:00:00 18.85833 C 97.2500 % 18.41 C
371 18-08-2019 10:00:00 19.93333 C 97.4167 % 19.51 C
372 18-08-2019 11:00:00 22.19167 C 92.0833 % 20.84 C
373 18-08-2019 12:00:00 24.075 C 77.7500 % 19.95 C
374 18-08-2019 13:00:00 24.4 C 75.8333 % 19.86 C
375 18-08-2019 14:00:00 24.725 C 74.8333 % 19.96 C
Sensor: Nr:Datum:Temp:Feuchte:Taupunkt:
Aussen-T/F 376 18-08-2019 15:00:00 24.7 C 75.8333 % 20.15 C
377 18-08-2019 16:00:00 24.99167 C 72.7500 % 19.76 C
378 18-08-2019 17:00:00 24.35 C 72.7500 % 19.14 C
379 18-08-2019 18:00:00 20.49167 C 91.6667 % 19.09 C
380 18-08-2019 19:00:00 20.00833 C 93.8333 % 18.98 C
381 18-08-2019 20:00:00 19.45833 C 94.6667 % 18.58 C
382 18-08-2019 21:00:00 18.8 C 94.3333 % 17.87 C
383 18-08-2019 22:00:00 17.65 C 94.5000 % 16.76 C
384 18-08-2019 23:00:00 16.59167 C 95.0000 % 15.79 C
385 19-08-2019 00:00:00 16.14167 C 96.0000 % 15.5 C
386 19-08-2019 01:00:00 16.10833 C 96.0000 % 15.47 C
387 19-08-2019 02:00:00 15.81667 C 96.0000 % 15.18 C
388 19-08-2019 03:00:00 15.38333 C 96.0833 % 14.76 C
389 19-08-2019 04:00:00 14.78333 C 96.1667 % 14.18 C
390 19-08-2019 05:00:00 15.125 C 97.0000 % 14.65 C
391 19-08-2019 06:00:00 14.61667 C 96.8333 % 14.12 C
392 19-08-2019 07:00:00 15.025 C 97.1667 % 14.58 C
393 19-08-2019 08:00:00 15.65833 C 97.0000 % 15.18 C
394 19-08-2019 09:00:00 15.89167 C 96.5833 % 15.35 C
395 19-08-2019 10:00:00 16.63333 C 87.6667 % 14.58 C
396 19-08-2019 11:00:00 18.55833 C 74.7500 % 13.99 C
397 19-08-2019 12:00:00 20.275 C 64.5000 % 13.37 C
398 19-08-2019 13:00:00 21.525 C 58.3333 % 13 C
399 19-08-2019 14:00:00 22.79167 C 53.8333 % 12.96 C
400 19-08-2019 15:00:00 23.46667 C 50.6667 % 12.65 C
Sensor: Nr:Datum:Temp:Feuchte:Taupunkt:
Aussen-T/F 401 19-08-2019 16:00:00 23.78333 C 50.6667 % 12.94 C
402 19-08-2019 17:00:00 24.025 C 48.4167 % 12.47 C
403 19-08-2019 18:00:00 23.51667 C 50.5000 % 12.65 C
404 19-08-2019 19:00:00 22.95833 C 56.3333 % 13.81 C
405 19-08-2019 20:00:00 19.71667 C 69.6667 % 14.02 C
406 19-08-2019 21:00:00 17.30833 C 74.8333 % 12.8 C
407 19-08-2019 22:00:00 16.51667 C 80.3333 % 13.12 C
408 19-08-2019 23:00:00 15.21667 C 83.5833 % 12.46 C
409 20-08-2019 00:00:00 13.975 C 86.5833 % 11.77 C
410 20-08-2019 01:00:00 13.21667 C 88.4167 % 11.35 C
411 20-08-2019 02:00:00 12.825 C 89.9167 % 11.21 C
412 20-08-2019 03:00:00 12.21667 C 90.6667 % 10.74 C
413 20-08-2019 04:00:00 11.34167 C 92.5000 % 10.17 C
414 20-08-2019 05:00:00 10.9 C 93.6667 % 9.92 C
415 20-08-2019 06:00:00 10.425 C 94.5000 % 9.58 C
416 20-08-2019 07:00:00 10.78333 C 95.3333 % 10.07 C
417 20-08-2019 08:00:00 11.425 C 95.5833 % 10.74 C
418 20-08-2019 09:00:00 12.61667 C 95.0833 % 11.85 C
419 20-08-2019 10:00:00 15.26667 C 86.0000 % 12.94 C
420 20-08-2019 11:00:00 17.375 C 73.5833 % 12.61 C
421 20-08-2019 12:00:00 18.625 C 66.8333 % 12.34 C
422 20-08-2019 13:00:00 19.525 C 62.1667 % 12.1 C
423 20-08-2019 14:00:00 20.43333 C 57.3333 % 11.72 C
424 20-08-2019 15:00:00 21.10833 C 56.2500 % 12.06 C
425 20-08-2019 16:00:00 21.41667 C 58.8333 % 13.03 C
Sensor: Nr:Datum:Temp:Feuchte:Taupunkt:
Aussen-T/F 426 20-08-2019 17:00:00 20.68333 C 64.4167 % 13.73 C
427 20-08-2019 18:00:00 20.375 C 73.9167 % 15.57 C
428 20-08-2019 19:00:00 18.88333 C 74.8333 % 14.32 C
429 20-08-2019 20:00:00 17.58333 C 75.7500 % 13.26 C
430 20-08-2019 21:00:00 16.76667 C 79.9167 % 13.28 C
431 20-08-2019 22:00:00 15.925 C 83.7500 % 13.18 C
432 20-08-2019 23:00:00 15.175 C 85.0000 % 12.67 C
433 21-08-2019 00:00:00 14.11667 C 87.1667 % 12.02 C
434 21-08-2019 01:00:00 13.55833 C 88.7500 % 11.74 C
435 21-08-2019 02:00:00 12.65833 C 90.7500 % 11.19 C
436 21-08-2019 03:00:00 11.99167 C 92.5000 % 10.81 C
437 21-08-2019 04:00:00 11.30833 C 93.5000 % 10.3 C
438 21-08-2019 05:00:00 10.73333 C 94.0000 % 9.81 C
439 21-08-2019 06:00:00 10.325 C 94.9167 % 9.55 C
440 21-08-2019 07:00:00 10.35833 C 95.3333 % 9.65 C
441 21-08-2019 08:00:00 10.85833 C 96.0000 % 10.25 C
442 21-08-2019 09:00:00 11.86667 C 96.0833 % 11.26 C
443 21-08-2019 10:00:00 13.33333 C 96.2500 % 12.75 C
444 21-08-2019 11:00:00 15.80833 C 90.0833 % 14.19 C
445 21-08-2019 12:00:00 18.54167 C 73.0000 % 13.61 C
446 21-08-2019 13:00:00 20.375 C 58.0000 % 11.84 C
447 21-08-2019 14:00:00 21.79167 C 52.3333 % 11.6 C
448 21-08-2019 15:00:00 22.95833 C 50.2500 % 12.06 C
449 21-08-2019 16:00:00 24.475 C 42.0000 % 10.73 C
450 21-08-2019 17:00:00 24.65 C 41.6667 % 10.77 C
Sensor: Nr:Datum:Temp:Feuchte:Taupunkt:
Aussen-T/F 451 21-08-2019 18:00:00 24.64167 C 44.3333 % 11.7 C
452 21-08-2019 19:00:00 23.46667 C 55.0000 % 13.91 C
453 21-08-2019 20:00:00 19.875 C 64.6667 % 13.03 C
454 21-08-2019 21:00:00 17.49167 C 66.9167 % 11.28 C
455 21-08-2019 22:00:00 16.29167 C 69.1667 % 10.64 C
456 21-08-2019 23:00:00 15.05833 C 77.6667 % 11.19 C
457 22-08-2019 00:00:00 13.475 C 83.5000 % 10.74 C
458 22-08-2019 01:00:00 12.41667 C 86.0000 % 10.14 C
459 22-08-2019 02:00:00 11.66667 C 88.5833 % 9.85 C
460 22-08-2019 03:00:00 11.125 C 90.4167 % 9.62 C
461 22-08-2019 04:00:00 10.55833 C 91.6667 % 9.26 C
462 22-08-2019 05:00:00 9.99167 C 92.6667 % 8.86 C
463 22-08-2019 06:00:00 9.71667 C 93.7500 % 8.76 C
464 22-08-2019 07:00:00 9.7 C 94.6667 % 8.89 C
465 22-08-2019 08:00:00 10.30833 C 95.3333 % 9.6 C
466 22-08-2019 09:00:00 11.525 C 96.0000 % 10.91 C
467 22-08-2019 10:00:00 13.51667 C 94.5833 % 12.66 C
468 22-08-2019 11:00:00 16.925 C 82.4167 % 13.91 C
469 22-08-2019 12:00:00 20.11667 C 65.8333 % 13.53 C
470 22-08-2019 13:00:00 22.71667 C 53.8333 % 12.89 C
471 22-08-2019 14:00:00 24.08333 C 48.0000 % 12.39 C
472 22-08-2019 15:00:00 25.89167 C 40.9167 % 11.61 C
473 22-08-2019 16:00:00 27.33333 C 37.2500 % 11.47 C
474 22-08-2019 17:00:00 28.01667 C 34.5833 % 10.95 C
475 22-08-2019 18:00:00 28.38333 C 34.8333 % 11.38 C
Sensor: Nr:Datum:Temp:Feuchte:Taupunkt:
Aussen-T/F 476 22-08-2019 19:00:00 26.06667 C 49.0000 % 14.52 C
477 22-08-2019 20:00:00 21.49167 C 58.5833 % 13.04 C
478 22-08-2019 21:00:00 18.25 C 68.9167 % 12.45 C
479 22-08-2019 22:00:00 16.40833 C 75.9167 % 12.15 C
480 22-08-2019 23:00:00 14.90833 C 79.3333 % 11.37 C
481 23-08-2019 00:00:00 13.94167 C 82.9167 % 11.09 C
482 23-08-2019 01:00:00 13.26667 C 85.0833 % 10.82 C
483 23-08-2019 02:00:00 12.775 C 86.9167 % 10.65 C
484 23-08-2019 03:00:00 11.975 C 89.1667 % 10.25 C
485 23-08-2019 04:00:00 11.56667 C 91.0833 % 10.16 C
486 23-08-2019 05:00:00 11.06667 C 91.9167 % 9.8 C
487 23-08-2019 06:00:00 10.66667 C 93.2500 % 9.62 C
488 23-08-2019 07:00:00 10.7 C 94.1667 % 9.8 C
489 23-08-2019 08:00:00 11.3 C 94.9167 % 10.52 C
490 23-08-2019 09:00:00 12.35 C 95.0000 % 11.57 C
491 23-08-2019 10:00:00 14.34167 C 94.0833 % 13.4 C
492 23-08-2019 11:00:00 17.6 C 85.0000 % 15.05 C
493 23-08-2019 12:00:00 21.16667 C 69.0000 % 15.26 C
494 23-08-2019 13:00:00 24.1 C 50.8333 % 13.28 C
495 23-08-2019 14:00:00 26.13333 C 42.2500 % 12.31 C
496 23-08-2019 15:00:00 27.85833 C 38.2500 % 12.34 C
497 23-08-2019 16:00:00 29.15 C 34.9167 % 12.09 C
498 23-08-2019 17:00:00 29.375 C 34.0000 % 11.88 C
499 23-08-2019 18:00:00 28.94167 C 33.0833 % 11.09 C
500 23-08-2019 19:00:00 27.20833 C 46.3333 % 14.7 C
Sensor: Nr:Datum:Temp:Feuchte:Taupunkt:
Aussen-T/F 501 23-08-2019 20:00:00 23.01667 C 55.5000 % 13.63 C
502 23-08-2019 21:00:00 20.16667 C 65.0000 % 13.38 C
503 23-08-2019 22:00:00 17.85 C 72.8333 % 12.91 C
504 23-08-2019 23:00:00 16.23333 C 76.7500 % 12.15 C
505 24-08-2019 00:00:00 14.96667 C 80.7500 % 11.69 C
506 24-08-2019 01:00:00 14.05833 C 84.5000 % 11.49 C
507 24-08-2019 02:00:00 13.425 C 86.5000 % 11.22 C
508 24-08-2019 03:00:00 12.7 C 88.7500 % 10.89 C
509 24-08-2019 04:00:00 12.06667 C 90.3333 % 10.53 C
510 24-08-2019 05:00:00 11.66667 C 91.7500 % 10.37 C
511 24-08-2019 06:00:00 11.425 C 92.8333 % 10.31 C
512 24-08-2019 07:00:00 11.575 C 94.0000 % 10.64 C
513 24-08-2019 08:00:00 12.06667 C 94.1667 % 11.16 C
514 24-08-2019 09:00:00 13.23333 C 94.0000 % 12.29 C
515 24-08-2019 10:00:00 15.5 C 91.5000 % 14.12 C
516 24-08-2019 11:00:00 18.88333 C 79.6667 % 15.29 C
517 24-08-2019 12:00:00 22.24167 C 66.0833 % 15.61 C
518 24-08-2019 13:00:00 25.4 C 52.1667 % 14.88 C
519 24-08-2019 14:00:00 27.05 C 43.6667 % 13.64 C
520 24-08-2019 15:00:00 28.69167 C 37.6667 % 12.84 C
521 24-08-2019 16:00:00 29.81667 C 34.4167 % 12.45 C
522 24-08-2019 17:00:00 30.29167 C 32.7500 % 12.11 C
523 24-08-2019 18:00:00 30.66667 C 34.8333 % 13.38 C
524 24-08-2019 19:00:00 28.56667 C 48.9167 % 16.78 C
525 24-08-2019 20:00:00 24.29167 C 59.2500 % 15.83 C
Sensor: Nr:Datum:Temp:Feuchte:Taupunkt:
Aussen-T/F 526 24-08-2019 21:00:00 22.01667 C 66.2500 % 15.43 C
527 24-08-2019 22:00:00 19.78333 C 74.0833 % 15.03 C
528 24-08-2019 23:00:00 18.175 C 78.3333 % 14.34 C
529 25-08-2019 00:00:00 17.35833 C 81.7500 % 14.21 C
530 25-08-2019 01:00:00 16.96667 C 82.7500 % 14.01 C
531 25-08-2019 02:00:00 16.15833 C 85.2500 % 13.68 C
532 25-08-2019 03:00:00 15.53333 C 88.0000 % 13.55 C
533 25-08-2019 04:00:00 15.19167 C 88.4167 % 13.29 C
534 25-08-2019 05:00:00 14.65833 C 89.8333 % 13.01 C
535 25-08-2019 06:00:00 14.41667 C 90.8333 % 12.94 C
536 25-08-2019 07:00:00 14.80833 C 91.4167 % 13.42 C
537 25-08-2019 08:00:00 15.84167 C 90.5000 % 14.29 C
538 25-08-2019 09:00:00 17.2 C 88.3333 % 15.25 C
539 25-08-2019 10:00:00 18.78333 C 84.6667 % 16.15 C
540 25-08-2019 11:00:00 21.64167 C 77.4167 % 17.52 C
541 25-08-2019 12:00:00 24.54167 C 70.0000 % 18.71 C
542 25-08-2019 13:00:00 26.76667 C 62.9167 % 19.11 C
543 25-08-2019 14:00:00 28.375 C 57.0000 % 19.03 C
544 25-08-2019 15:00:00 30.28333 C 51.4167 % 19.14 C
545 25-08-2019 16:00:00 31.18333 C 49.6667 % 19.41 C
546 25-08-2019 17:00:00 32.3 C 47.0000 % 19.54 C
547 25-08-2019 18:00:00 30.05 C 52.9167 % 19.39 C
548 25-08-2019 19:00:00 27.125 C 63.3333 % 19.55 C
549 25-08-2019 20:00:00 24.31667 C 71.4167 % 18.81 C
550 25-08-2019 21:00:00 22.98333 C 77.1667 % 18.77 C
Sensor: Nr:Datum:Temp:Feuchte:Taupunkt:
Aussen-T/F 551 25-08-2019 22:00:00 21.19167 C 82.4167 % 18.08 C
552 25-08-2019 23:00:00 20.10833 C 85.4167 % 17.58 C
553 26-08-2019 00:00:00 19.475 C 88.0833 % 17.45 C
554 26-08-2019 01:00:00 19.14167 C 89.1667 % 17.31 C
555 26-08-2019 02:00:00 18.53333 C 90.7500 % 16.99 C
556 26-08-2019 03:00:00 18.025 C 91.6667 % 16.65 C
557 26-08-2019 04:00:00 17.41667 C 93.0000 % 16.27 C
558 26-08-2019 05:00:00 17.14167 C 94.1667 % 16.2 C
559 26-08-2019 06:00:00 16.76667 C 94.3333 % 15.85 C
560 26-08-2019 07:00:00 16.71667 C 95.2500 % 15.95 C
561 26-08-2019 08:00:00 17.475 C 96.0000 % 16.83 C
562 26-08-2019 09:00:00 18.55 C 95.8333 % 17.87 C
563 26-08-2019 10:00:00 20.15833 C 92.4167 % 18.89 C
564 26-08-2019 11:00:00 22.95 C 83.6667 % 20.04 C
565 26-08-2019 12:00:00 25.70833 C 72.8333 % 20.46 C
566 26-08-2019 13:00:00 28.3 C 60.3333 % 19.88 C
567 26-08-2019 14:00:00 30.01667 C 52.6667 % 19.29 C
568 26-08-2019 15:00:00 30.85833 C 50.5000 % 19.38 C
569 26-08-2019 16:00:00 28.55 C 59.1667 % 19.8 C
570 26-08-2019 17:00:00 27.475 C 67.2500 % 20.86 C
571 26-08-2019 18:00:00 27.10833 C 70.0833 % 21.18 C
572 26-08-2019 19:00:00 28.06667 C 66.0000 % 21.11 C
573 26-08-2019 20:00:00 24.69167 C 73.5833 % 19.65 C
574 26-08-2019 21:00:00 22.45 C 80.5000 % 18.93 C
575 26-08-2019 22:00:00 21.09167 C 84.7500 % 18.42 C
Sensor: Nr:Datum:Temp:Feuchte:Taupunkt:
Aussen-T/F 576 26-08-2019 23:00:00 20.175 C 87.8333 % 18.09 C
577 27-08-2019 00:00:00 19.40833 C 89.9167 % 17.71 C
578 27-08-2019 01:00:00 19.01667 C 92.0000 % 17.69 C
579 27-08-2019 02:00:00 18.39167 C 92.8333 % 17.21 C
580 27-08-2019 03:00:00 17.91667 C 94.0833 % 16.95 C
581 27-08-2019 04:00:00 17.55833 C 94.2500 % 16.62 C
582 27-08-2019 05:00:00 17.15833 C 95.0000 % 16.35 C
583 27-08-2019 06:00:00 16.79167 C 95.3333 % 16.04 C
584 27-08-2019 07:00:00 16.85 C 96.0000 % 16.21 C
585 27-08-2019 08:00:00 17.325 C 96.5000 % 16.76 C
586 27-08-2019 09:00:00 18.4 C 97.0000 % 17.91 C
587 27-08-2019 10:00:00 19.78333 C 96.0833 % 19.14 C
588 27-08-2019 11:00:00 22.275 C 90.2500 % 20.6 C
589 27-08-2019 12:00:00 25.41667 C 76.2500 % 20.93 C
590 27-08-2019 13:00:00 28.99167 C 57.0000 % 19.61 C
591 27-08-2019 14:00:00 30.54167 C 49.2500 % 18.69 C
592 27-08-2019 15:00:00 31.89167 C 43.0833 % 17.78 C
593 27-08-2019 16:00:00 33.23333 C 41.6667 % 18.45 C
594 27-08-2019 17:00:00 32.29167 C 47.5000 % 19.71 C
595 27-08-2019 18:00:00 29.55833 C 57.0833 % 20.16 C
596 27-08-2019 19:00:00 27.7 C 63.8333 % 20.22 C
597 27-08-2019 20:00:00 23.50833 C 81.8333 % 20.22 C
598 27-08-2019 21:00:00 22.09167 C 84.5833 % 19.37 C
599 27-08-2019 22:00:00 21.14167 C 86.4167 % 18.78 C
600 27-08-2019 23:00:00 20.43333 C 88.1667 % 18.41 C
Sensor: Nr:Datum:Temp:Feuchte:Taupunkt:
Aussen-T/F 601 28-08-2019 00:00:00 19.9 C 90.0833 % 18.23 C
602 28-08-2019 01:00:00 19.61667 C 91.7500 % 18.24 C
603 28-08-2019 02:00:00 19.24167 C 92.6667 % 18.02 C
604 28-08-2019 03:00:00 18.71667 C 93.5000 % 17.65 C
605 28-08-2019 04:00:00 18.33333 C 93.9167 % 17.34 C
606 28-08-2019 05:00:00 17.96667 C 94.4167 % 17.06 C
607 28-08-2019 06:00:00 18.01667 C 95.0833 % 17.22 C
608 28-08-2019 07:00:00 17.85833 C 95.2500 % 17.09 C
609 28-08-2019 08:00:00 18.64167 C 95.7500 % 17.95 C
610 28-08-2019 09:00:00 19.75833 C 93.2500 % 18.64 C
611 28-08-2019 10:00:00 22.45 C 77.7500 % 18.37 C
612 28-08-2019 11:00:00 23.975 C 71.6667 % 18.54 C
613 28-08-2019 12:00:00 24.49167 C 70.8333 % 18.85 C
614 28-08-2019 13:00:00 26.54167 C 58.8333 % 17.83 C
615 28-08-2019 14:00:00 29.44167 C 50.3333 % 18.03 C
616 28-08-2019 15:00:00 30.35833 C 44.2500 % 16.83 C
617 28-08-2019 16:00:00 31.55833 C 41.3333 % 16.83 C
618 28-08-2019 17:00:00 31.80833 C 42.0000 % 17.3 C
619 28-08-2019 18:00:00 31.18333 C 45.7500 % 18.1 C
620 28-08-2019 19:00:00 27.875 C 52.1667 % 17.16 C
621 28-08-2019 20:00:00 25.59167 C 56.5833 % 16.33 C
622 28-08-2019 21:00:00 24.2 C 62.5000 % 16.59 C
623 28-08-2019 22:00:00 22.43333 C 70.0833 % 16.71 C
624 28-08-2019 23:00:00 21.38333 C 74.3333 % 16.63 C
625 29-08-2019 00:00:00 20.775 C 76.8333 % 16.56 C
Sensor: Nr:Datum:Temp:Feuchte:Taupunkt:
Aussen-T/F 626 29-08-2019 01:00:00 20.10833 C 79.0833 % 16.37 C
627 29-08-2019 02:00:00 19.2 C 82.1667 % 16.08 C
628 29-08-2019 03:00:00 18.225 C 84.8333 % 15.63 C
629 29-08-2019 04:00:00 17.53333 C 88.0000 % 15.52 C
630 29-08-2019 05:00:00 17.78333 C 89.9167 % 16.11 C
631 29-08-2019 06:00:00 18.34167 C 89.8333 % 16.64 C
632 29-08-2019 07:00:00 19.04167 C 89.2500 % 17.23 C
633 29-08-2019 08:00:00 19.89167 C 87.0833 % 17.68 C
634 29-08-2019 09:00:00 20.7 C 84.8333 % 18.06 C
635 29-08-2019 10:00:00 21.175 C 86.5000 % 18.83 C
636 29-08-2019 11:00:00 22.13333 C 82.5000 % 19.01 C
637 29-08-2019 12:00:00 23.29167 C 77.6667 % 19.17 C
638 29-08-2019 13:00:00 25.45 C 68.7500 % 19.29 C
639 29-08-2019 14:00:00 26.78333 C 64.8333 % 19.61 C
640 29-08-2019 15:00:00 27.53333 C 62.5833 % 19.75 C
641 29-08-2019 16:00:00 27.875 C 59.9167 % 19.37 C
642 29-08-2019 17:00:00 27.28333 C 60.2500 % 18.9 C
643 29-08-2019 18:00:00 26.44167 C 60.8333 % 18.27 C
644 29-08-2019 19:00:00 24.73333 C 64.6667 % 17.63 C
645 29-08-2019 20:00:00 22.80833 C 70.6667 % 17.2 C
646 29-08-2019 21:00:00 20.89167 C 76.7500 % 16.66 C
647 29-08-2019 22:00:00 20.525 C 78.8333 % 16.72 C
648 29-08-2019 23:00:00 20.48333 C 79.5833 % 16.83 C
649 30-08-2019 00:00:00 20.30833 C 79.0000 % 16.55 C
650 30-08-2019 01:00:00 19.18333 C 82.9167 % 16.21 C
Sensor: Nr:Datum:Temp:Feuchte:Taupunkt:
Aussen-T/F 651 30-08-2019 02:00:00 18.2 C 86.0833 % 15.83 C
652 30-08-2019 03:00:00 17.48333 C 88.4167 % 15.55 C
653 30-08-2019 04:00:00 16.65833 C 90.0833 % 15.03 C
654 30-08-2019 05:00:00 15.975 C 92.7500 % 14.8 C
655 30-08-2019 06:00:00 15.91667 C 93.2500 % 14.83 C
656 30-08-2019 07:00:00 15.41667 C 93.6667 % 14.4 C
657 30-08-2019 08:00:00 16.09167 C 94.4167 % 15.19 C
658 30-08-2019 09:00:00 17.96667 C 88.6667 % 16.07 C
659 30-08-2019 10:00:00 19.41667 C 81.7500 % 16.22 C
660 30-08-2019 11:00:00 20.825 C 76.0000 % 16.44 C
661 30-08-2019 12:00:00 22.16667 C 72.6667 % 17.03 C
662 30-08-2019 13:00:00 23.59167 C 68.2500 % 17.4 C
663 30-08-2019 14:00:00 25 C 60.8333 % 16.91 C
664 30-08-2019 15:00:00 26.16667 C 51.2500 % 15.31 C
665 30-08-2019 16:00:00 27.98333 C 45.6667 % 15.17 C
666 30-08-2019 17:00:00 29.66667 C 37.8333 % 13.77 C
667 30-08-2019 18:00:00 29.54167 C 37.5833 % 13.56 C
668 30-08-2019 19:00:00 27.175 C 47.0833 % 14.91 C
669 30-08-2019 20:00:00 23 C 55.5833 % 13.64 C
670 30-08-2019 21:00:00 20.38333 C 65.0833 % 13.61 C
671 30-08-2019 22:00:00 18.64167 C 72.5833 % 13.62 C
672 30-08-2019 23:00:00 17.38333 C 77.2500 % 13.36 C
673 31-08-2019 00:00:00 16.65 C 81.0000 % 13.38 C
674 31-08-2019 01:00:00 15.825 C 84.1667 % 13.16 C
675 31-08-2019 02:00:00 15.21667 C 86.2500 % 12.94 C
Sensor: Nr:Datum:Temp:Feuchte:Taupunkt:
Aussen-T/F 676 31-08-2019 03:00:00 14.75 C 88.5000 % 12.87 C
677 31-08-2019 04:00:00 14.31667 C 90.1667 % 12.73 C
678 31-08-2019 05:00:00 14.15 C 91.5833 % 12.8 C
679 31-08-2019 06:00:00 14.1 C 92.0000 % 12.82 C
680 31-08-2019 07:00:00 14.10833 C 92.6667 % 12.94 C
681 31-08-2019 08:00:00 14.76667 C 92.6667 % 13.59 C
682 31-08-2019 09:00:00 15.89167 C 92.2500 % 14.64 C
683 31-08-2019 10:00:00 17.8 C 89.0000 % 15.96 C
684 31-08-2019 11:00:00 20.6 C 81.2500 % 17.27 C
685 31-08-2019 12:00:00 23.625 C 73.0833 % 18.52 C
686 31-08-2019 13:00:00 28.49167 C 54.5833 % 18.45 C
687 31-08-2019 14:00:00 30.36667 C 47.3333 % 17.9 C
688 31-08-2019 15:00:00 31.43333 C 43.3333 % 17.46 C
689 31-08-2019 16:00:00 32.48333 C 42.3333 % 18.03 C
690 31-08-2019 17:00:00 33.89167 C 39.8333 % 18.32 C
691 31-08-2019 18:00:00 33.71667 C 40.0000 % 18.23 C
692 31-08-2019 19:00:00 31.13333 C 48.8333 % 19.1 C
693 31-08-2019 20:00:00 25.89167 C 60.0000 % 17.53 C
694 31-08-2019 21:00:00 24.875 C 62.0000 % 17.09 C
695 31-08-2019 22:00:00 24.58333 C 70.5000 % 18.86 C
696 31-08-2019 23:00:00 20.69167 C 87.5833 % 18.56 C
697 01-09-2019 00:00:00 19.66667 C 91.2500 % 18.2 C
698 01-09-2019 01:00:00 19.34167 C 90.9167 % 17.82 C
699 01-09-2019 02:00:00 19.10833 C 85.9167 % 16.7 C
700 01-09-2019 03:00:00 18.325 C 84.0833 % 15.59 C
Sensor: Nr:Datum:Temp:Feuchte:Taupunkt:
Aussen-T/F 701 01-09-2019 04:00:00 17.88333 C 80.1667 % 14.42 C
702 01-09-2019 05:00:00 17.84167 C 79.0833 % 14.17 C
703 01-09-2019 06:00:00 17.30833 C 79.5833 % 13.75 C
704 01-09-2019 07:00:00 16.1 C 85.6667 % 13.7 C
705 01-09-2019 08:00:00 17.48333 C 82.5833 % 14.49 C
706 01-09-2019 09:00:00 18.13333 C 80.5000 % 14.73 C
707 01-09-2019 10:00:00 19.10833 C 76.5000 % 14.88 C
708 01-09-2019 11:00:00 20.025 C 74.2500 % 15.3 C
709 01-09-2019 12:00:00 20.05 C 74.8333 % 15.45 C
710 01-09-2019 13:00:00 19.69167 C 77.9167 % 15.73 C
711 01-09-2019 14:00:00 20.075 C 75.6667 % 15.65 C
712 01-09-2019 15:00:00 20.61667 C 71.6667 % 15.32 C
713 01-09-2019 16:00:00 20.38333 C 68.0000 % 14.28 C
714 01-09-2019 17:00:00 19.975 C 65.4167 % 13.3 C
715 01-09-2019 18:00:00 20.75833 C 60.5833 % 12.86 C
716 01-09-2019 19:00:00 20.60833 C 57.9167 % 12.04 C
717 01-09-2019 20:00:00 18.38333 C 66.5000 % 12.04 C
718 01-09-2019 21:00:00 16.68333 C 72.3333 % 11.69 C
719 01-09-2019 22:00:00 16.39167 C 71.4167 % 11.21 C
720 01-09-2019 23:00:00 15.59167 C 75.0000 % 11.18 C
721 02-09-2019 00:00:00 14.44167 C 75.5000 % 10.17 C
722 02-09-2019 01:00:00 13.29167 C 77.8333 % 9.51 C
723 02-09-2019 02:00:00 13.3 C 80.2500 % 9.97 C
724 02-09-2019 03:00:00 13.025 C 82.5000 % 10.12 C
725 02-09-2019 04:00:00 12 C 83.9167 % 9.37 C
Sensor: Nr:Datum:Temp:Feuchte:Taupunkt:
Aussen-T/F 726 02-09-2019 05:00:00 11.21667 C 85.9167 % 8.95 C
727 02-09-2019 06:00:00 10.15 C 89.0833 % 8.43 C
728 02-09-2019 07:00:00 9.73333 C 91.6667 % 8.44 C
729 02-09-2019 08:00:00 10.03333 C 92.9167 % 8.94 C
730 02-09-2019 09:00:00 10.83333 C 92.5833 % 9.68 C
731 02-09-2019 10:00:00 12.85833 C 88.0833 % 10.94 C
732 02-09-2019 11:00:00 16.2 C 66.4167 % 9.94 C
733 02-09-2019 12:00:00 17.53333 C 56.5000 % 8.8 C
734 02-09-2019 13:00:00 18.70833 C 49.6667 % 7.98 C
735 02-09-2019 14:00:00 19.83333 C 46.2500 % 7.97 C
736 02-09-2019 15:00:00 20.175 C 45.2500 % 7.96 C
737 02-09-2019 16:00:00 21.80833 C 41.5833 % 8.19 C
738 02-09-2019 17:00:00 23.09167 C 37.9167 % 7.98 C
739 02-09-2019 18:00:00 22.99167 C 37.3333 % 7.66 C
740 02-09-2019 19:00:00 20.575 C 46.7500 % 8.8 C
741 02-09-2019 20:00:00 16.9 C 56.3333 % 8.16 C
742 02-09-2019 21:00:00 15.39167 C 60.6667 % 7.84 C
743 02-09-2019 22:00:00 13.475 C 70.1667 % 8.15 C
744 02-09-2019 23:00:00 12.98333 C 72.7500 % 8.21 C
745 03-09-2019 00:00:00 12.39167 C 74.8333 % 8.06 C
746 03-09-2019 01:00:00 12.125 C 76.5000 % 8.12 C
747 03-09-2019 02:00:00 10.89167 C 79.0833 % 7.41 C
748 03-09-2019 03:00:00 10.175 C 81.5833 % 7.17 C
749 03-09-2019 04:00:00 10.08333 C 83.8333 % 7.48 C
750 03-09-2019 05:00:00 9.45 C 85.0833 % 7.07 C
Sensor: Nr:Datum:Temp:Feuchte:Taupunkt:
Aussen-T/F 751 03-09-2019 06:00:00 8.91667 C 87.0833 % 6.89 C
752 03-09-2019 07:00:00 8.65833 C 88.8333 % 6.92 C
753 03-09-2019 08:00:00 9.08333 C 89.7500 % 7.49 C
754 03-09-2019 09:00:00 10.375 C 88.9167 % 8.63 C
755 03-09-2019 10:00:00 13.225 C 81.5833 % 10.15 C
756 03-09-2019 11:00:00 17.34167 C 63.2500 % 10.29 C
757 03-09-2019 12:00:00 19.95833 C 53.5000 % 10.24 C
758 03-09-2019 13:00:00 21.25 C 49.6667 % 10.32 C
759 03-09-2019 14:00:00 22.64167 C 45.5000 % 10.28 C
760 03-09-2019 15:00:00 23.75 C 45.8333 % 11.39 C
761 03-09-2019 16:00:00 23.58333 C 49.8333 % 12.51 C
762 03-09-2019 17:00:00 23.65 C 50.9167 % 12.9 C
763 03-09-2019 18:00:00 23.225 C 52.5833 % 13 C
764 03-09-2019 19:00:00 21.11667 C 58.7500 % 12.73 C
765 03-09-2019 20:00:00 18.86667 C 65.9167 % 12.36 C
766 03-09-2019 21:00:00 16.325 C 75.0000 % 11.89 C
767 03-09-2019 22:00:00 15.33333 C 79.2500 % 11.76 C
768 03-09-2019 23:00:00 14.05 C 83.3333 % 11.27 C
769 04-09-2019 00:00:00 13.05 C 87.0000 % 10.94 C
770 04-09-2019 01:00:00 12.35 C 89.4167 % 10.66 C
771 04-09-2019 02:00:00 11.85833 C 90.6667 % 10.38 C
772 04-09-2019 03:00:00 11.325 C 91.9167 % 10.06 C
773 04-09-2019 04:00:00 10.74167 C 92.5833 % 9.59 C
774 04-09-2019 05:00:00 10.36667 C 93.5833 % 9.38 C
775 04-09-2019 06:00:00 10.15833 C 94.2500 % 9.28 C
Sensor: Nr:Datum:Temp:Feuchte:Taupunkt:
Aussen-T/F 776 04-09-2019 07:00:00 10.09167 C 94.7500 % 9.29 C
777 04-09-2019 08:00:00 10.675 C 95.3333 % 9.96 C
778 04-09-2019 09:00:00 13.11667 C 92.2500 % 11.89 C
779 04-09-2019 10:00:00 14.875 C 85.4167 % 12.45 C
780 04-09-2019 11:00:00 18.09167 C 72.6667 % 13.11 C
781 04-09-2019 12:00:00 19.78333 C 65.9167 % 13.23 C
782 04-09-2019 13:00:00 21.16667 C 62.0000 % 13.6 C
783 04-09-2019 14:00:00 22.59167 C 57.5833 % 13.8 C
784 04-09-2019 15:00:00 23.85 C 53.5000 % 13.84 C
785 04-09-2019 16:00:00 25.11667 C 50.6667 % 14.17 C
786 04-09-2019 17:00:00 26.875 C 44.8333 % 13.89 C
787 04-09-2019 18:00:00 25.04167 C 47.0000 % 12.95 C
788 04-09-2019 19:00:00 23.58333 C 52.2500 % 13.23 C
789 04-09-2019 20:00:00 19.81667 C 69.4167 % 14.06 C
790 04-09-2019 21:00:00 17.625 C 85.0000 % 15.07 C
791 04-09-2019 22:00:00 16.28333 C 90.3333 % 14.7 C
792 04-09-2019 23:00:00 15.64167 C 90.9167 % 14.16 C
793 05-09-2019 00:00:00 15.6 C 91.0000 % 14.14 C
794 05-09-2019 01:00:00 15.41667 C 89.1667 % 13.64 C
795 05-09-2019 02:00:00 14.29167 C 86.8333 % 12.13 C
796 05-09-2019 03:00:00 13.975 C 86.6667 % 11.79 C
797 05-09-2019 04:00:00 14.075 C 85.0000 % 11.59 C
798 05-09-2019 05:00:00 13.48333 C 84.1667 % 10.87 C
799 05-09-2019 06:00:00 12.56667 C 86.0000 % 10.29 C
800 05-09-2019 07:00:00 12.20833 C 86.9167 % 10.1 C
Sensor: Nr:Datum:Temp:Feuchte:Taupunkt:
Aussen-T/F 801 05-09-2019 08:00:00 12.58333 C 85.4167 % 10.2 C
802 05-09-2019 09:00:00 13.59167 C 82.2500 % 10.63 C
803 05-09-2019 10:00:00 15.475 C 77.3333 % 11.53 C
804 05-09-2019 11:00:00 16.775 C 70.4167 % 11.37 C
805 05-09-2019 12:00:00 17.09167 C 67.3333 % 11 C
806 05-09-2019 13:00:00 18.1 C 60.9167 % 10.45 C
807 05-09-2019 14:00:00 18.09167 C 62.9167 % 10.92 C
808 05-09-2019 15:00:00 18.5 C 57.5833 % 9.98 C
809 05-09-2019 16:00:00 18.91667 C 55.9167 % 9.93 C
810 05-09-2019 17:00:00 17.225 C 63.8333 % 10.32 C
811 05-09-2019 18:00:00 16.4 C 67.6667 % 10.41 C
812 05-09-2019 19:00:00 16.46667 C 64.3333 % 9.72 C
813 05-09-2019 20:00:00 15.70833 C 69.0833 % 10.06 C
814 05-09-2019 21:00:00 14.93333 C 70.2500 % 9.57 C
815 05-09-2019 22:00:00 14.49167 C 72.5000 % 9.61 C
816 05-09-2019 23:00:00 13.94167 C 74.0000 % 9.39 C
817 06-09-2019 00:00:00 12.025 C 79.8333 % 8.65 C
818 06-09-2019 01:00:00 11.23333 C 82.8333 % 8.43 C
819 06-09-2019 02:00:00 10.40833 C 86.5000 % 8.26 C
820 06-09-2019 03:00:00 9.875 C 88.0833 % 8 C
821 06-09-2019 04:00:00 9.00833 C 89.4167 % 7.36 C
822 06-09-2019 05:00:00 8.075 C 91.5000 % 6.78 C
823 06-09-2019 06:00:00 7.56667 C 92.7500 % 6.47 C
824 06-09-2019 07:00:00 7.31667 C 93.6667 % 6.37 C
825 06-09-2019 08:00:00 7.85 C 94.9167 % 7.09 C
Sensor: Nr:Datum:Temp:Feuchte:Taupunkt:
Aussen-T/F 826 06-09-2019 09:00:00 8.75 C 95.0833 % 8.01 C
827 06-09-2019 10:00:00 10.175 C 95.0000 % 9.41 C
828 06-09-2019 11:00:00 12.55833 C 83.1667 % 9.78 C
829 06-09-2019 12:00:00 15.03333 C 64.4167 % 8.38 C
830 06-09-2019 13:00:00 16.51667 C 57.9167 % 8.21 C
831 06-09-2019 14:00:00 18.3 C 49.5833 % 7.59 C
832 06-09-2019 15:00:00 19.475 C 44.9167 % 7.21 C
833 06-09-2019 16:00:00 20.7 C 39.8333 % 6.57 C
834 06-09-2019 17:00:00 22.36667 C 37.2500 % 7.08 C
835 06-09-2019 18:00:00 22.25 C 39.3333 % 7.77 C
836 06-09-2019 19:00:00 19.41667 C 48.3333 % 8.23 C
837 06-09-2019 20:00:00 16.04167 C 56.4167 % 7.38 C
838 06-09-2019 21:00:00 14.65 C 60.5833 % 7.12 C
839 06-09-2019 22:00:00 12.74167 C 68.5000 % 7.1 C
840 06-09-2019 23:00:00 12.69167 C 71.4167 % 7.66 C
841 07-09-2019 00:00:00 12.25833 C 73.7500 % 7.72 C
842 07-09-2019 01:00:00 12.41667 C 73.6667 % 7.85 C
843 07-09-2019 02:00:00 12.19167 C 75.0000 % 7.9 C
844 07-09-2019 03:00:00 12.375 C 74.7500 % 8.03 C
845 07-09-2019 04:00:00 12.69167 C 74.2500 % 8.23 C
846 07-09-2019 05:00:00 12.64167 C 74.5833 % 8.25 C
847 07-09-2019 06:00:00 12.29167 C 76.9167 % 8.36 C
848 07-09-2019 07:00:00 11.96667 C 84.7500 % 9.48 C
849 07-09-2019 08:00:00 11.78333 C 90.5000 % 10.28 C
850 07-09-2019 09:00:00 11.80833 C 92.9167 % 10.7 C
Sensor: Nr:Datum:Temp:Feuchte:Taupunkt:
Aussen-T/F 851 07-09-2019 10:00:00 12.225 C 94.0000 % 11.29 C
852 07-09-2019 11:00:00 12.80833 C 93.8333 % 11.84 C
853 07-09-2019 12:00:00 13.475 C 93.5833 % 12.46 C
854 07-09-2019 13:00:00 14.19167 C 92.6667 % 13.02 C
855 07-09-2019 14:00:00 14.46667 C 91.6667 % 13.13 C
856 07-09-2019 15:00:00 14.93333 C 90.2500 % 13.35 C
857 07-09-2019 16:00:00 15.25 C 89.3333 % 13.51 C
858 07-09-2019 17:00:00 15.30833 C 89.2500 % 13.55 C
859 07-09-2019 18:00:00 14.29167 C 90.7500 % 12.8 C
860 07-09-2019 19:00:00 13.34167 C 91.4167 % 11.97 C
861 07-09-2019 20:00:00 12.64167 C 93.0000 % 11.54 C
862 07-09-2019 21:00:00 12.00833 C 93.3333 % 10.97 C
863 07-09-2019 22:00:00 11.8 C 94.4167 % 10.93 C
864 07-09-2019 23:00:00 11.725 C 95.0000 % 10.95 C
865 08-09-2019 00:00:00 11.7 C 95.0000 % 10.93 C
866 08-09-2019 01:00:00 11.75833 C 95.6667 % 11.09 C
867 08-09-2019 02:00:00 11.29167 C 95.5000 % 10.6 C
868 08-09-2019 03:00:00 11.3 C 96.0000 % 10.69 C
869 08-09-2019 04:00:00 11.7 C 96.3333 % 11.14 C
870 08-09-2019 05:00:00 11.90833 C 96.0000 % 11.29 C
871 08-09-2019 06:00:00 12.075 C 96.7500 % 11.57 C
872 08-09-2019 07:00:00 12.20833 C 96.4167 % 11.66 C
873 08-09-2019 08:00:00 12.31667 C 96.0000 % 11.7 C
874 08-09-2019 09:00:00 12.325 C 95.4167 % 11.61 C
875 08-09-2019 10:00:00 12.575 C 95.6667 % 11.9 C
Sensor: Nr:Datum:Temp:Feuchte:Taupunkt:
Aussen-T/F 876 08-09-2019 11:00:00 12.625 C 96.0000 % 12 C
877 08-09-2019 12:00:00 12.81667 C 95.8333 % 12.17 C
878 08-09-2019 13:00:00 13.94167 C 93.5000 % 12.91 C
879 08-09-2019 14:00:00 14.875 C 88.3333 % 12.96 C
880 08-09-2019 15:00:00 15.73333 C 84.0833 % 13.05 C
881 08-09-2019 16:00:00 15.65833 C 84.8333 % 13.12 C
882 08-09-2019 17:00:00 13.49167 C 92.6667 % 12.33 C
883 08-09-2019 18:00:00 12.8 C 94.2500 % 11.9 C
884 08-09-2019 19:00:00 12.96667 C 95.4167 % 12.25 C
885 08-09-2019 20:00:00 12.56667 C 95.0833 % 11.8 C
886 08-09-2019 21:00:00 12.1 C 95.4167 % 11.39 C
887 08-09-2019 22:00:00 11.81667 C 96.0000 % 11.2 C
888 08-09-2019 23:00:00 11.71667 C 96.0000 % 11.1 C
889 09-09-2019 00:00:00 11.45 C 96.0000 % 10.84 C
890 09-09-2019 01:00:00 11.26667 C 96.0833 % 10.67 C
891 09-09-2019 02:00:00 11.29167 C 96.8333 % 10.81 C
892 09-09-2019 03:00:00 11.36667 C 97.0000 % 10.91 C
893 09-09-2019 04:00:00 11.36667 C 97.0000 % 10.91 C
894 09-09-2019 05:00:00 11.29167 C 97.0000 % 10.83 C
895 09-09-2019 06:00:00 11.3 C 97.0000 % 10.84 C
896 09-09-2019 07:00:00 11.275 C 97.0000 % 10.82 C
897 09-09-2019 08:00:00 11.39167 C 97.0000 % 10.93 C
898 09-09-2019 09:00:00 12.01667 C 97.0000 % 11.56 C
899 09-09-2019 10:00:00 12.23333 C 97.0000 % 11.77 C
900 09-09-2019 11:00:00 12.55833 C 96.2500 % 11.98 C
Sensor: Nr:Datum:Temp:Feuchte:Taupunkt:
Aussen-T/F 901 09-09-2019 12:00:00 13.15 C 91.5833 % 11.81 C
902 09-09-2019 13:00:00 14.2 C 86.5833 % 12 C
903 09-09-2019 14:00:00 14.81667 C 79.7500 % 11.36 C
904 09-09-2019 15:00:00 15.175 C 80.1667 % 11.78 C
905 09-09-2019 16:00:00 15.475 C 77.3333 % 11.53 C
906 09-09-2019 17:00:00 15.74167 C 73.7500 % 11.07 C
907 09-09-2019 18:00:00 16.33333 C 73.7500 % 11.64 C
908 09-09-2019 19:00:00 14.35 C 82.0000 % 11.32 C
909 09-09-2019 20:00:00 12.00833 C 87.7500 % 10.04 C
910 09-09-2019 21:00:00 10.79167 C 90.6667 % 9.33 C
911 09-09-2019 22:00:00 10.05 C 92.6667 % 8.92 C
912 09-09-2019 23:00:00 9.30833 C 93.8333 % 8.37 C
913 10-09-2019 00:00:00 8.75833 C 94.7500 % 7.96 C
914 10-09-2019 01:00:00 8.44167 C 95.0833 % 7.7 C
915 10-09-2019 02:00:00 8.3 C 95.7500 % 7.66 C
916 10-09-2019 03:00:00 8.625 C 96.0000 % 8.02 C
917 10-09-2019 04:00:00 8.65 C 96.0000 % 8.05 C
918 10-09-2019 05:00:00 8.55833 C 96.1667 % 7.98 C
919 10-09-2019 06:00:00 8.2 C 96.7500 % 7.72 C
920 10-09-2019 07:00:00 8.225 C 97.0000 % 7.78 C
921 10-09-2019 08:00:00 8.21667 C 97.0000 % 7.77 C
922 10-09-2019 09:00:00 8.45833 C 97.0000 % 8.01 C
923 10-09-2019 10:00:00 9.05 C 97.0000 % 8.6 C
924 10-09-2019 11:00:00 9.94167 C 97.0000 % 9.49 C
925 10-09-2019 12:00:00 11.78333 C 94.3333 % 10.9 C
Sensor: Nr:Datum:Temp:Feuchte:Taupunkt:
Aussen-T/F 926 10-09-2019 13:00:00 14.85833 C 78.0000 % 11.06 C
927 10-09-2019 14:00:00 17.25 C 64.2500 % 10.44 C
928 10-09-2019 15:00:00 18.43333 C 58.3333 % 10.11 C
929 10-09-2019 16:00:00 19.65 C 52.0000 % 9.53 C
930 10-09-2019 17:00:00 18.38333 C 67.1667 % 12.19 C
931 10-09-2019 18:00:00 18.33333 C 70.0000 % 12.77 C
932 10-09-2019 19:00:00 16.4 C 72.3333 % 11.41 C
933 10-09-2019 20:00:00 13.775 C 75.0833 % 9.44 C
934 10-09-2019 21:00:00 12.03333 C 83.0000 % 9.24 C
935 10-09-2019 22:00:00 10.66667 C 86.9167 % 8.58 C
936 10-09-2019 23:00:00 9.78333 C 88.7500 % 8.02 C
937 11-09-2019 00:00:00 9.2 C 90.0833 % 7.66 C
938 11-09-2019 01:00:00 8.61667 C 91.3333 % 7.29 C
939 11-09-2019 02:00:00 8.04167 C 92.7500 % 6.94 C
940 11-09-2019 03:00:00 7.64167 C 93.5000 % 6.66 C
941 11-09-2019 04:00:00 7.26667 C 94.0000 % 6.37 C
942 11-09-2019 05:00:00 6.90833 C 94.7500 % 6.13 C
943 11-09-2019 06:00:00 6.65833 C 95.0000 % 5.92 C
944 11-09-2019 07:00:00 6.55 C 95.6667 % 5.91 C
945 11-09-2019 08:00:00 7.99167 C 96.5000 % 7.47 C
946 11-09-2019 09:00:00 9.51667 C 94.2500 % 8.64 C
947 11-09-2019 10:00:00 10.85 C 93.6667 % 9.87 C
948 11-09-2019 11:00:00 13.10833 C 88.7500 % 11.3 C
949 11-09-2019 12:00:00 17.29167 C 66.9167 % 11.09 C
950 11-09-2019 13:00:00 19.9 C 57.9167 % 11.38 C
Sensor: Nr:Datum:Temp:Feuchte:Taupunkt:
Aussen-T/F 951 11-09-2019 14:00:00 20.58333 C 55.2500 % 11.3 C
952 11-09-2019 15:00:00 20.53333 C 56.5000 % 11.59 C
953 11-09-2019 16:00:00 20.03333 C 64.5000 % 13.14 C
954 11-09-2019 17:00:00 19.16667 C 66.0000 % 12.67 C
955 11-09-2019 18:00:00 18.35833 C 68.1667 % 12.39 C
956 11-09-2019 19:00:00 17.26667 C 70.8333 % 11.93 C
957 11-09-2019 20:00:00 16.50833 C 75.7500 % 12.22 C
958 11-09-2019 21:00:00 16.275 C 78.0833 % 12.45 C
959 11-09-2019 22:00:00 16.41667 C 79.1667 % 12.8 C
960 11-09-2019 23:00:00 15.7 C 83.3333 % 12.88 C
961 12-09-2019 00:00:00 15.51667 C 82.9167 % 12.63 C
962 12-09-2019 01:00:00 16.14167 C 80.6667 % 12.82 C
963 12-09-2019 02:00:00 17.23333 C 73.6667 % 12.49 C
964 12-09-2019 03:00:00 17.24167 C 74.9167 % 12.76 C
965 12-09-2019 04:00:00 17.05 C 76.3333 % 12.86 C
966 12-09-2019 05:00:00 16.975 C 77.8333 % 13.08 C
967 12-09-2019 06:00:00 16.9 C 79.2500 % 13.29 C
968 12-09-2019 07:00:00 16.24167 C 83.4167 % 13.43 C
969 12-09-2019 08:00:00 16.83333 C 84.1667 % 14.15 C
970 12-09-2019 09:00:00 17.40833 C 84.5000 % 14.77 C
971 12-09-2019 10:00:00 18.21667 C 84.0833 % 15.48 C
972 12-09-2019 11:00:00 19.21667 C 81.9167 % 16.05 C
973 12-09-2019 12:00:00 20.25833 C 79.4167 % 16.58 C
974 12-09-2019 13:00:00 20.9 C 78.3333 % 16.99 C
975 12-09-2019 14:00:00 21.38333 C 78.4167 % 17.47 C
Sensor: Nr:Datum:Temp:Feuchte:Taupunkt:
Aussen-T/F 976 12-09-2019 15:00:00 22.25833 C 75.0000 % 17.61 C
977 12-09-2019 16:00:00 22.95 C 71.5833 % 17.54 C
978 12-09-2019 17:00:00 24.44167 C 64.8333 % 17.39 C
979 12-09-2019 18:00:00 24.95833 C 63.8333 % 17.63 C
980 12-09-2019 19:00:00 22.86667 C 69.7500 % 17.05 C
981 12-09-2019 20:00:00 19.11667 C 81.0000 % 15.78 C
982 12-09-2019 21:00:00 18.225 C 84.7500 % 15.62 C
983 12-09-2019 22:00:00 18.35 C 84.0000 % 15.6 C
984 12-09-2019 23:00:00 17.06667 C 86.7500 % 14.84 C
985 13-09-2019 00:00:00 15.98333 C 90.0833 % 14.36 C
986 13-09-2019 01:00:00 15.55 C 91.8333 % 14.23 C
987 13-09-2019 02:00:00 15.25 C 92.5833 % 14.06 C
988 13-09-2019 03:00:00 15.1 C 93.5833 % 14.07 C
989 13-09-2019 04:00:00 15.575 C 93.4167 % 14.52 C
990 13-09-2019 05:00:00 16.19167 C 91.0833 % 14.74 C
991 13-09-2019 06:00:00 16.25833 C 90.9167 % 14.77 C
992 13-09-2019 07:00:00 16.64167 C 90.0000 % 14.99 C
993 13-09-2019 08:00:00 16.85833 C 90.6667 % 15.32 C
994 13-09-2019 09:00:00 17.49167 C 89.3333 % 15.72 C
995 13-09-2019 10:00:00 18.51667 C 86.0833 % 16.15 C
996 13-09-2019 11:00:00 19.6 C 82.4167 % 16.52 C
997 13-09-2019 12:00:00 20.35 C 79.5000 % 16.69 C
998 13-09-2019 13:00:00 20.60833 C 77.1667 % 16.47 C
999 13-09-2019 14:00:00 21.16667 C 75.8333 % 16.73 C
1000 13-09-2019 15:00:00 20.85833 C 77.7500 % 16.83 C
Sensor: Nr:Datum:Temp:Feuchte:Taupunkt:
Aussen-T/F 1001 13-09-2019 16:00:00 19.325 C 87.2500 % 17.15 C
1002 13-09-2019 17:00:00 19.20833 C 89.3333 % 17.41 C
1003 13-09-2019 18:00:00 20 C 89.2500 % 18.18 C
1004 13-09-2019 19:00:00 19.48333 C 86.2500 % 17.13 C
1005 13-09-2019 20:00:00 17.60833 C 91.5000 % 16.21 C
1006 13-09-2019 21:00:00 16.95 C 92.8333 % 15.78 C
1007 13-09-2019 22:00:00 16.25833 C 93.0000 % 15.12 C
1008 13-09-2019 23:00:00 15.48333 C 93.7500 % 14.48 C
1009 14-09-2019 00:00:00 15.39167 C 94.5000 % 14.51 C
1010 14-09-2019 01:00:00 14.63333 C 94.5833 % 13.77 C
1011 14-09-2019 02:00:00 13.525 C 94.5000 % 12.66 C
1012 14-09-2019 03:00:00 12.70833 C 95.0000 % 11.93 C
1013 14-09-2019 04:00:00 12.00833 C 95.5000 % 11.31 C
1014 14-09-2019 05:00:00 11.31667 C 95.8333 % 10.68 C
1015 14-09-2019 06:00:00 10.78333 C 96.0000 % 10.17 C
1016 14-09-2019 07:00:00 10.4 C 96.0000 % 9.79 C
1017 14-09-2019 08:00:00 10.40833 C 96.0000 % 9.8 C
1018 14-09-2019 09:00:00 11.00833 C 97.0000 % 10.55 C
1019 14-09-2019 10:00:00 12.25833 C 97.0000 % 11.8 C
1020 14-09-2019 11:00:00 13.69167 C 95.1667 % 12.93 C
1021 14-09-2019 12:00:00 16.14167 C 84.0000 % 13.44 C
1022 14-09-2019 13:00:00 18.675 C 70.0833 % 13.11 C
1023 14-09-2019 14:00:00 20.43333 C 62.1667 % 12.95 C
1024 14-09-2019 15:00:00 21.74167 C 55.7500 % 12.52 C
1025 14-09-2019 16:00:00 22.44167 C 52.4167 % 12.23 C
Sensor: Nr:Datum:Temp:Feuchte:Taupunkt:
Aussen-T/F 1026 14-09-2019 17:00:00 24.14167 C 46.9167 % 12.1 C
1027 14-09-2019 18:00:00 23.6 C 54.6667 % 13.94 C
1028 14-09-2019 19:00:00 19.45833 C 64.9167 % 12.69 C
1029 14-09-2019 20:00:00 16.95833 C 70.0833 % 11.47 C
1030 14-09-2019 21:00:00 15.96667 C 73.5833 % 11.25 C
1031 14-09-2019 22:00:00 13.8 C 81.2500 % 10.65 C
1032 14-09-2019 23:00:00 12.48333 C 85.4167 % 10.11 C
1033 15-09-2019 00:00:00 11.65 C 87.5000 % 9.65 C
1034 15-09-2019 01:00:00 10.825 C 89.7500 % 9.21 C
1035 15-09-2019 02:00:00 10.375 C 91.7500 % 9.09 C
1036 15-09-2019 03:00:00 10.16667 C 92.5833 % 9.02 C
1037 15-09-2019 04:00:00 9.75833 C 93.0833 % 8.7 C
1038 15-09-2019 05:00:00 9.31667 C 94.0000 % 8.4 C
1039 15-09-2019 06:00:00 8.76667 C 94.0833 % 7.87 C
1040 15-09-2019 07:00:00 8.775 C 95.0000 % 8.02 C
1041 15-09-2019 08:00:00 9.29167 C 95.9167 % 8.67 C
1042 15-09-2019 09:00:00 10.03333 C 96.0000 % 9.43 C
1043 15-09-2019 10:00:00 11.35833 C 96.0000 % 10.74 C
1044 15-09-2019 11:00:00 13.71667 C 94.7500 % 12.89 C
1045 15-09-2019 12:00:00 16.96667 C 85.3333 % 14.49 C
1046 15-09-2019 13:00:00 20.45833 C 69.8333 % 14.77 C
1047 15-09-2019 14:00:00 22.79167 C 61.0833 % 14.9 C
1048 15-09-2019 15:00:00 24.05 C 56.5833 % 14.89 C
1049 15-09-2019 16:00:00 24.65833 C 52.8333 % 14.39 C
1050 15-09-2019 17:00:00 25.84167 C 47.7500 % 13.92 C
Sensor: Nr:Datum:Temp:Feuchte:Taupunkt:
Aussen-T/F 1051 15-09-2019 18:00:00 26.43333 C 46.0000 % 13.88 C
1052 15-09-2019 19:00:00 21.96667 C 57.3333 % 13.15 C
1053 15-09-2019 20:00:00 18.225 C 63.3333 % 11.15 C
1054 15-09-2019 21:00:00 16.76667 C 67.0000 % 10.61 C
1055 15-09-2019 22:00:00 14.475 C 76.3333 % 10.37 C
1056 15-09-2019 23:00:00 12.99167 C 81.2500 % 9.86 C
1057 16-09-2019 00:00:00 12.55 C 83.7500 % 9.88 C
1058 16-09-2019 01:00:00 12.25833 C 85.5000 % 9.9 C
1059 16-09-2019 02:00:00 11.41667 C 87.8333 % 9.47 C
1060 16-09-2019 03:00:00 11.11667 C 90.1667 % 9.57 C
1061 16-09-2019 04:00:00 11.45833 C 90.4167 % 9.95 C
1062 16-09-2019 05:00:00 11.51667 C 89.6667 % 9.88 C
1063 16-09-2019 06:00:00 11.23333 C 90.7500 % 9.78 C
1064 16-09-2019 07:00:00 11.31667 C 91.5833 % 10 C
1065 16-09-2019 08:00:00 12.075 C 90.0833 % 10.5 C
1066 16-09-2019 09:00:00 13.4 C 86.1667 % 11.14 C
1067 16-09-2019 10:00:00 14.99167 C 82.0833 % 11.96 C
1068 16-09-2019 11:00:00 17.41667 C 76.0833 % 13.16 C
1069 16-09-2019 12:00:00 19.64167 C 69.0833 % 13.82 C
1070 16-09-2019 13:00:00 21.18333 C 61.5833 % 13.51 C
1071 16-09-2019 14:00:00 22.05 C 57.5000 % 13.27 C
1072 16-09-2019 15:00:00 22.075 C 59.1667 % 13.74 C
1073 16-09-2019 16:00:00 22.10833 C 55.6667 % 12.83 C
1074 16-09-2019 17:00:00 21.8 C 60.8333 % 13.91 C
1075 16-09-2019 18:00:00 20.725 C 63.2500 % 13.49 C
Sensor: Nr:Datum:Temp:Feuchte:Taupunkt:
Aussen-T/F 1076 16-09-2019 19:00:00 19.71667 C 68.0833 % 13.67 C
1077 16-09-2019 20:00:00 17.64167 C 82.8333 % 14.69 C
1078 16-09-2019 21:00:00 16.74167 C 87.9167 % 14.73 C
1079 16-09-2019 22:00:00 16.43333 C 88.5833 % 14.54 C
1080 16-09-2019 23:00:00 15.4 C 91.5833 % 14.04 C
1081 17-09-2019 00:00:00 15.05833 C 91.2500 % 13.64 C
1082 17-09-2019 01:00:00 14.81667 C 90.0833 % 13.21 C
1083 17-09-2019 02:00:00 14.66667 C 89.5833 % 12.97 C
1084 17-09-2019 03:00:00 14.54167 C 89.0000 % 12.75 C
1085 17-09-2019 04:00:00 14.30833 C 89.7500 % 12.65 C
1086 17-09-2019 05:00:00 14.16667 C 90.2500 % 12.59 C
1087 17-09-2019 06:00:00 14.1 C 90.2500 % 12.53 C
1088 17-09-2019 07:00:00 14.01667 C 89.5000 % 12.32 C
1089 17-09-2019 08:00:00 14 C 87.6667 % 11.99 C
1090 17-09-2019 09:00:00 14.04167 C 83.3333 % 11.26 C
1091 17-09-2019 10:00:00 14.925 C 74.5000 % 10.44 C
1092 17-09-2019 11:00:00 15.73333 C 71.0000 % 10.49 C
1093 17-09-2019 12:00:00 16.125 C 68.0833 % 10.24 C
1094 17-09-2019 13:00:00 16.625 C 64.4167 % 9.89 C
1095 17-09-2019 14:00:00 17.44167 C 60.6667 % 9.77 C
1096 17-09-2019 15:00:00 17.66667 C 57.9167 % 9.29 C
1097 17-09-2019 16:00:00 18.05833 C 55.8333 % 9.11 C
1098 17-09-2019 17:00:00 18.125 C 55.7500 % 9.15 C
1099 17-09-2019 18:00:00 18.45 C 54.0000 % 8.98 C
1100 17-09-2019 19:00:00 17.3 C 59.6667 % 9.39 C
Sensor: Nr:Datum:Temp:Feuchte:Taupunkt:
Aussen-T/F 1101 17-09-2019 20:00:00 16.71667 C 62.8333 % 9.6 C
1102 17-09-2019 21:00:00 16.00833 C 64.0833 % 9.23 C
1103 17-09-2019 22:00:00 14.55833 C 63.0000 % 7.6 C
1104 17-09-2019 23:00:00 13.40833 C 65.7500 % 7.14 C
1105 18-09-2019 00:00:00 11.80833 C 70.5833 % 6.64 C
1106 18-09-2019 01:00:00 10.83333 C 75.4167 % 6.67 C
1107 18-09-2019 02:00:00 9.26667 C 81.5833 % 6.28 C
1108 18-09-2019 03:00:00 8.25 C 85.5833 % 5.98 C
1109 18-09-2019 04:00:00 7.425 C 88.5000 % 5.65 C
1110 18-09-2019 05:00:00 6.76667 C 90.3333 % 5.3 C
1111 18-09-2019 06:00:00 6.08333 C 91.8333 % 4.86 C
1112 18-09-2019 07:00:00 5.8 C 93.1667 % 4.78 C
1113 18-09-2019 08:00:00 6.10833 C 94.0000 % 5.22 C
1114 18-09-2019 09:00:00 7.01667 C 95.0000 % 6.27 C
1115 18-09-2019 10:00:00 8.375 C 95.0000 % 7.62 C
1116 18-09-2019 11:00:00 10.625 C 88.5000 % 8.81 C
1117 18-09-2019 12:00:00 13.6 C 71.3333 % 8.52 C
1118 18-09-2019 13:00:00 15.1 C 60.1667 % 7.44 C
1119 18-09-2019 14:00:00 16.25 C 53.7500 % 6.87 C
1120 18-09-2019 15:00:00 17.00833 C 50.2500 % 6.59 C
1121 18-09-2019 16:00:00 17.225 C 51.0000 % 7.01 C
1122 18-09-2019 17:00:00 18.14167 C 45.8333 % 6.3 C
1123 18-09-2019 18:00:00 18.08333 C 44.8333 % 5.92 C
1124 18-09-2019 19:00:00 15.75 C 54.2500 % 6.54 C
1125 18-09-2019 20:00:00 12.30833 C 67.0000 % 6.36 C
Sensor: Nr:Datum:Temp:Feuchte:Taupunkt:
Aussen-T/F 1126 18-09-2019 21:00:00 11.525 C 72.0000 % 6.66 C
1127 18-09-2019 22:00:00 10.68333 C 75.7500 % 6.58 C
1128 18-09-2019 23:00:00 9.85833 C 79.9167 % 6.56 C
1129 19-09-2019 00:00:00 9.16667 C 83.0833 % 6.45 C
1130 19-09-2019 01:00:00 8.5 C 84.6667 % 6.07 C
1131 19-09-2019 02:00:00 7.20833 C 88.7500 % 5.48 C
1132 19-09-2019 03:00:00 6.58333 C 91.0000 % 5.22 C
1133 19-09-2019 04:00:00 6.08333 C 92.1667 % 4.91 C
1134 19-09-2019 05:00:00 5.65833 C 93.0000 % 4.62 C
1135 19-09-2019 06:00:00 5.26667 C 93.6667 % 4.33 C
1136 19-09-2019 07:00:00 5.14167 C 94.0000 % 4.26 C
1137 19-09-2019 08:00:00 5.33333 C 94.9167 % 4.59 C
1138 19-09-2019 09:00:00 6.31667 C 95.5833 % 5.66 C
1139 19-09-2019 10:00:00 7.725 C 96.0000 % 7.13 C
1140 19-09-2019 11:00:00 9.70833 C 91.2500 % 8.35 C
1141 19-09-2019 12:00:00 13.33333 C 65.0833 % 6.92 C
1142 19-09-2019 13:00:00 14.46667 C 56.8333 % 6.02 C
1143 19-09-2019 14:00:00 15.7 C 50.5000 % 5.46 C
1144 19-09-2019 15:00:00 16.48333 C 47.7500 % 5.37 C
1145 19-09-2019 16:00:00 17.08333 C 45.8333 % 5.33 C
1146 19-09-2019 17:00:00 18.04167 C 42.2500 % 5.03 C
1147 19-09-2019 18:00:00 18.01667 C 43.1667 % 5.32 C
1148 19-09-2019 19:00:00 15.00833 C 54.9167 % 6.03 C
1149 19-09-2019 20:00:00 11.975 C 63.7500 % 5.33 C
1150 19-09-2019 21:00:00 10.525 C 69.8333 % 5.26 C
Sensor: Nr:Datum:Temp:Feuchte:Taupunkt:
Aussen-T/F 1151 19-09-2019 22:00:00 9.59167 C 74.0000 % 5.19 C
1152 19-09-2019 23:00:00 8.45 C 78.1667 % 4.87 C
1153 20-09-2019 00:00:00 7.625 C 80.0833 % 4.42 C
1154 20-09-2019 01:00:00 7.05 C 82.5833 % 4.29 C
1155 20-09-2019 02:00:00 6.21667 C 85.1667 % 3.92 C
1156 20-09-2019 03:00:00 5.75 C 86.6667 % 3.7 C
1157 20-09-2019 04:00:00 5.15 C 88.7500 % 3.45 C
1158 20-09-2019 05:00:00 4.69167 C 90.5833 % 3.29 C
1159 20-09-2019 06:00:00 4.325 C 91.9167 % 3.13 C
1160 20-09-2019 07:00:00 4.125 C 93.0000 % 3.1 C
1161 20-09-2019 08:00:00 4.65 C 94.0000 % 3.77 C
1162 20-09-2019 09:00:00 5.625 C 94.5000 % 4.81 C
1163 20-09-2019 10:00:00 7.39167 C 94.0000 % 6.49 C
1164 20-09-2019 11:00:00 10 C 86.1667 % 7.8 C
1165 20-09-2019 12:00:00 13.41667 C 66.0000 % 7.2 C
1166 20-09-2019 13:00:00 15.83333 C 53.7500 % 6.48 C
1167 20-09-2019 14:00:00 17.63333 C 47.5000 % 6.35 C
1168 20-09-2019 15:00:00 18.525 C 43.5000 % 5.89 C
1169 20-09-2019 16:00:00 19.26667 C 42.3333 % 6.16 C
1170 20-09-2019 17:00:00 20.33333 C 39.8333 % 6.24 C
1171 20-09-2019 18:00:00 20.525 C 40.2500 % 6.56 C
1172 20-09-2019 19:00:00 15.85 C 52.5000 % 6.16 C
1173 20-09-2019 20:00:00 13.7 C 58.7500 % 5.78 C
1174 20-09-2019 21:00:00 11.68333 C 68.3333 % 6.05 C
1175 20-09-2019 22:00:00 9.525 C 76.5000 % 5.61 C
Sensor: Nr:Datum:Temp:Feuchte:Taupunkt:
Aussen-T/F 1176 20-09-2019 23:00:00 8.425 C 80.8333 % 5.33 C
1177 21-09-2019 00:00:00 7.44167 C 83.9167 % 4.91 C
1178 21-09-2019 01:00:00 6.85 C 85.3333 % 4.56 C
1179 21-09-2019 02:00:00 6.34167 C 86.1667 % 4.2 C
1180 21-09-2019 03:00:00 5.80833 C 87.4167 % 3.88 C
1181 21-09-2019 04:00:00 5.45833 C 89.0833 % 3.81 C
1182 21-09-2019 05:00:00 5.275 C 90.2500 % 3.81 C
1183 21-09-2019 06:00:00 4.80833 C 90.9167 % 3.45 C
1184 21-09-2019 07:00:00 4.60833 C 91.9167 % 3.41 C
1185 21-09-2019 08:00:00 4.725 C 93.0000 % 3.69 C
1186 21-09-2019 09:00:00 5.79167 C 93.9167 % 4.89 C
1187 21-09-2019 10:00:00 8.225 C 90.4167 % 6.75 C
1188 21-09-2019 11:00:00 11.40833 C 81.8333 % 8.42 C
1189 21-09-2019 12:00:00 14.95 C 67.2500 % 8.94 C
1190 21-09-2019 13:00:00 18.2 C 50.0833 % 7.64 C
1191 21-09-2019 14:00:00 21.43333 C 33.1667 % 4.58 C
1192 21-09-2019 15:00:00 22.63333 C 30.3333 % 4.35 C
1193 21-09-2019 16:00:00 23.23333 C 31.3333 % 5.33 C
1194 21-09-2019 17:00:00 24.65833 C 31.5833 % 6.68 C
1195 21-09-2019 18:00:00 22.74167 C 39.3333 % 8.21 C
1196 21-09-2019 19:00:00 18.49167 C 47.6667 % 7.18 C
1197 21-09-2019 20:00:00 16.16667 C 55.3333 % 7.22 C
1198 21-09-2019 21:00:00 13.66667 C 66.0000 % 7.44 C
1199 21-09-2019 22:00:00 11.99167 C 71.5000 % 7.01 C
1200 21-09-2019 23:00:00 10.88333 C 75.6667 % 6.76 C
Sensor: Nr:Datum:Temp:Feuchte:Taupunkt:
Aussen-T/F 1201 22-09-2019 00:00:00 9.825 C 79.9167 % 6.53 C
1202 22-09-2019 01:00:00 9.08333 C 83.4167 % 6.43 C
1203 22-09-2019 02:00:00 8.425 C 85.2500 % 6.1 C
1204 22-09-2019 03:00:00 7.96667 C 87.5833 % 6.04 C
1205 22-09-2019 04:00:00 7.39167 C 89.0000 % 5.7 C
1206 22-09-2019 05:00:00 7.06667 C 90.7500 % 5.66 C
1207 22-09-2019 06:00:00 6.99167 C 91.9167 % 5.77 C
1208 22-09-2019 07:00:00 6.93333 C 92.5000 % 5.8 C
1209 22-09-2019 08:00:00 7.55833 C 93.0000 % 6.5 C
1210 22-09-2019 09:00:00 8.63333 C 93.1667 % 7.59 C
1211 22-09-2019 10:00:00 11.05 C 91.5000 % 9.72 C
1212 22-09-2019 11:00:00 14.83333 C 79.8333 % 11.39 C
1213 22-09-2019 12:00:00 17.68333 C 72.9167 % 12.77 C
1214 22-09-2019 13:00:00 20.70833 C 64.5833 % 13.8 C
1215 22-09-2019 14:00:00 24.05 C 53.3333 % 13.98 C
1216 22-09-2019 15:00:00 24.85 C 49.7500 % 13.64 C
1217 22-09-2019 16:00:00 24.73333 C 54.0000 % 14.8 C
1218 22-09-2019 17:00:00 23.48333 C 59.5833 % 15.16 C
1219 22-09-2019 18:00:00 21.74167 C 64.0000 % 14.63 C
1220 22-09-2019 19:00:00 20.33333 C 65.0000 % 13.54 C
1221 22-09-2019 20:00:00 19.075 C 66.5833 % 12.71 C
1222 22-09-2019 21:00:00 18.175 C 68.6667 % 12.33 C
1223 22-09-2019 22:00:00 18.3 C 69.8333 % 12.7 C
1224 22-09-2019 23:00:00 17.80833 C 75.0833 % 13.34 C
1225 23-09-2019 00:00:00 17.55833 C 80.5000 % 14.17 C
Sensor: Nr:Datum:Temp:Feuchte:Taupunkt:
Aussen-T/F 1226 23-09-2019 01:00:00 18.375 C 81.5833 % 15.17 C
1227 23-09-2019 02:00:00 18.10833 C 79.0000 % 14.41 C
1228 23-09-2019 03:00:00 17.2 C 82.3333 % 14.16 C
1229 23-09-2019 04:00:00 16.05833 C 86.4167 % 13.79 C
1230 23-09-2019 05:00:00 15.14167 C 91.2500 % 13.73 C
1231 23-09-2019 06:00:00 14.43333 C 93.0833 % 13.33 C
1232 23-09-2019 07:00:00 14.23333 C 94.1667 % 13.31 C
1233 23-09-2019 08:00:00 14.25 C 95.0000 % 13.46 C
1234 23-09-2019 09:00:00 14.74167 C 95.8333 % 14.08 C
1235 23-09-2019 10:00:00 15.425 C 96.0000 % 14.79 C
1236 23-09-2019 11:00:00 16.26667 C 94.5000 % 15.38 C
1237 23-09-2019 12:00:00 17.06667 C 90.7500 % 15.54 C
1238 23-09-2019 13:00:00 18.2 C 81.5000 % 14.98 C
1239 23-09-2019 14:00:00 19.425 C 71.1667 % 14.07 C
1240 23-09-2019 15:00:00 19.61667 C 68.8333 % 13.74 C
1241 23-09-2019 16:00:00 19.94167 C 67.4167 % 13.73 C
1242 23-09-2019 17:00:00 20.24167 C 66.0000 % 13.69 C
1243 23-09-2019 18:00:00 18.46667 C 74.1667 % 13.78 C
1244 23-09-2019 19:00:00 16 C 81.9167 % 12.92 C
1245 23-09-2019 20:00:00 14.34167 C 87.2500 % 12.25 C
1246 23-09-2019 21:00:00 13.96667 C 90.1667 % 12.38 C
1247 23-09-2019 22:00:00 13.9 C 92.0000 % 12.62 C
1248 23-09-2019 23:00:00 14.11667 C 92.2500 % 12.88 C
1249 24-09-2019 00:00:00 14.33333 C 92.3333 % 13.11 C
1250 24-09-2019 01:00:00 13.95 C 91.5833 % 12.6 C
Sensor: Nr:Datum:Temp:Feuchte:Taupunkt:
Aussen-T/F 1251 24-09-2019 02:00:00 12.66667 C 92.5833 % 11.5 C
1252 24-09-2019 03:00:00 11.96667 C 93.8333 % 11.01 C
1253 24-09-2019 04:00:00 11.50833 C 94.5000 % 10.66 C
1254 24-09-2019 05:00:00 10.675 C 94.9167 % 9.89 C
1255 24-09-2019 06:00:00 10.25 C 95.3333 % 9.54 C
1256 24-09-2019 07:00:00 9.89167 C 95.8333 % 9.26 C
1257 24-09-2019 08:00:00 10.65 C 96.4167 % 10.1 C
1258 24-09-2019 09:00:00 11.35833 C 97.0000 % 10.9 C
1259 24-09-2019 10:00:00 12.49167 C 97.0000 % 12.03 C
1260 24-09-2019 11:00:00 14.48333 C 94.8333 % 13.67 C
1261 24-09-2019 12:00:00 17.53333 C 80.5000 % 14.14 C
1262 24-09-2019 13:00:00 18.59167 C 72.9167 % 13.64 C
1263 24-09-2019 14:00:00 19.21667 C 68.6667 % 13.32 C
1264 24-09-2019 15:00:00 18.63333 C 70.8333 % 13.24 C
1265 24-09-2019 16:00:00 17.70833 C 81.9167 % 14.58 C
1266 24-09-2019 17:00:00 16.95 C 89.8333 % 15.27 C
1267 24-09-2019 18:00:00 16.125 C 92.0833 % 14.84 C
1268 24-09-2019 19:00:00 15.1 C 93.0833 % 13.99 C
1269 24-09-2019 20:00:00 14.01667 C 94.1667 % 13.09 C
1270 24-09-2019 21:00:00 13.65 C 95.0000 % 12.86 C
1271 24-09-2019 22:00:00 13.64167 C 95.6667 % 12.96 C
1272 24-09-2019 23:00:00 13.775 C 96.0000 % 13.15 C
1273 25-09-2019 00:00:00 13.99167 C 96.0000 % 13.36 C
1274 25-09-2019 01:00:00 14.13333 C 96.3333 % 13.56 C
1275 25-09-2019 02:00:00 14.49167 C 96.0000 % 13.86 C
Sensor: Nr:Datum:Temp:Feuchte:Taupunkt:
Aussen-T/F 1276 25-09-2019 03:00:00 14.6 C 96.0000 % 13.97 C
1277 25-09-2019 04:00:00 14.55833 C 96.0000 % 13.93 C
1278 25-09-2019 05:00:00 14.01667 C 96.0000 % 13.39 C
1279 25-09-2019 06:00:00 13.64167 C 96.0000 % 13.02 C
1280 25-09-2019 07:00:00 13.61667 C 96.1667 % 13.02 C
1281 25-09-2019 08:00:00 13.75 C 96.9167 % 13.27 C
1282 25-09-2019 09:00:00 14.33333 C 97.0000 % 13.86 C
1283 25-09-2019 10:00:00 14.90833 C 94.3333 % 14.01 C
1284 25-09-2019 11:00:00 16.225 C 86.4167 % 13.96 C
1285 25-09-2019 12:00:00 16.875 C 80.5833 % 13.52 C
1286 25-09-2019 13:00:00 17.38333 C 77.4167 % 13.4 C
1287 25-09-2019 14:00:00 17.38333 C 78.1667 % 13.54 C
1288 25-09-2019 15:00:00 16.325 C 89.2500 % 14.55 C
1289 25-09-2019 16:00:00 17.08333 C 85.0000 % 14.54 C
1290 25-09-2019 17:00:00 17.53333 C 81.5833 % 14.35 C
1291 25-09-2019 18:00:00 16.775 C 83.4167 % 13.95 C
1292 25-09-2019 19:00:00 15.625 C 88.0000 % 13.65 C
1293 25-09-2019 20:00:00 15.10833 C 91.0833 % 13.66 C
1294 25-09-2019 21:00:00 14.71667 C 92.7500 % 13.56 C
1295 25-09-2019 22:00:00 14.7 C 93.7500 % 13.7 C
1296 25-09-2019 23:00:00 14.65833 C 95.0000 % 13.87 C
1297 26-09-2019 00:00:00 14.55833 C 95.0000 % 13.77 C
1298 26-09-2019 01:00:00 14.23333 C 95.2500 % 13.48 C
1299 26-09-2019 02:00:00 14.13333 C 96.0000 % 13.51 C
1300 26-09-2019 03:00:00 13.60833 C 95.9167 % 12.97 C
Sensor: Nr:Datum:Temp:Feuchte:Taupunkt:
Aussen-T/F 1301 26-09-2019 04:00:00 13.25833 C 96.1667 % 12.66 C
1302 26-09-2019 05:00:00 13.90833 C 96.7500 % 13.4 C
1303 26-09-2019 06:00:00 14.125 C 96.9167 % 13.64 C
1304 26-09-2019 07:00:00 14.35833 C 96.0000 % 13.73 C
1305 26-09-2019 08:00:00 14.74167 C 96.0000 % 14.11 C
1306 26-09-2019 09:00:00 15.10833 C 95.6667 % 14.42 C
1307 26-09-2019 10:00:00 15.86667 C 95.5000 % 15.15 C
1308 26-09-2019 11:00:00 16.59167 C 94.6667 % 15.73 C
1309 26-09-2019 12:00:00 17.61667 C 91.5833 % 16.23 C
1310 26-09-2019 13:00:00 17.775 C 91.7500 % 16.42 C
1311 26-09-2019 14:00:00 17.51667 C 92.7500 % 16.33 C
1312 26-09-2019 15:00:00 18.05833 C 91.6667 % 16.68 C
1313 26-09-2019 16:00:00 18.83333 C 88.7500 % 16.94 C
1314 26-09-2019 17:00:00 18.91667 C 87.5833 % 16.81 C
1315 26-09-2019 18:00:00 18.71667 C 88.8333 % 16.84 C
1316 26-09-2019 19:00:00 18.04167 C 90.8333 % 16.52 C
1317 26-09-2019 20:00:00 17.39167 C 89.7500 % 15.69 C
1318 26-09-2019 21:00:00 17.36667 C 89.0000 % 15.54 C
1319 26-09-2019 22:00:00 17.725 C 86.5833 % 15.46 C
1320 26-09-2019 23:00:00 17.81667 C 85.5000 % 15.35 C
1321 27-09-2019 00:00:00 17.98333 C 83.8333 % 15.21 C
1322 27-09-2019 01:00:00 18.05 C 82.3333 % 14.99 C
1323 27-09-2019 02:00:00 17.96667 C 82.0833 % 14.87 C
1324 27-09-2019 03:00:00 16.71667 C 90.0833 % 15.08 C
1325 27-09-2019 04:00:00 16.29167 C 92.5000 % 15.07 C
Sensor: Nr:Datum:Temp:Feuchte:Taupunkt:
Aussen-T/F 1326 27-09-2019 05:00:00 16.16667 C 93.0833 % 15.05 C
1327 27-09-2019 06:00:00 15.78333 C 94.2500 % 14.86 C
1328 27-09-2019 07:00:00 14.41667 C 94.6667 % 13.57 C
1329 27-09-2019 08:00:00 14.1 C 95.7500 % 13.43 C
1330 27-09-2019 09:00:00 13.99167 C 96.0000 % 13.36 C
1331 27-09-2019 10:00:00 14.69167 C 95.5000 % 13.98 C
1332 27-09-2019 11:00:00 15.35 C 92.8333 % 14.2 C
1333 27-09-2019 12:00:00 15.96667 C 89.0833 % 14.17 C
1334 27-09-2019 13:00:00 17.29167 C 81.1667 % 14.03 C
1335 27-09-2019 14:00:00 18.15833 C 75.9167 % 13.84 C
1336 27-09-2019 15:00:00 18.21667 C 75.7500 % 13.87 C
1337 27-09-2019 16:00:00 17.96667 C 76.9167 % 13.86 C
1338 27-09-2019 17:00:00 18.98333 C 72.3333 % 13.9 C
1339 27-09-2019 18:00:00 18.01667 C 75.0833 % 13.54 C
1340 27-09-2019 19:00:00 16.05833 C 82.2500 % 13.03 C
1341 27-09-2019 20:00:00 15.13333 C 87.9167 % 13.15 C
1342 27-09-2019 21:00:00 14.275 C 90.1667 % 12.69 C
1343 27-09-2019 22:00:00 13.83333 C 92.5000 % 12.64 C
1344 27-09-2019 23:00:00 13.5 C 93.8333 % 12.53 C
1345 28-09-2019 00:00:00 12.875 C 94.5833 % 12.03 C
1346 28-09-2019 01:00:00 12.90833 C 95.0833 % 12.14 C
1347 28-09-2019 02:00:00 14.21667 C 91.3333 % 12.82 C
1348 28-09-2019 03:00:00 14.825 C 89.3333 % 13.09 C
1349 28-09-2019 04:00:00 14.04167 C 92.3333 % 12.82 C
1350 28-09-2019 05:00:00 13.95 C 91.9167 % 12.66 C
Sensor: Nr:Datum:Temp:Feuchte:Taupunkt:
Aussen-T/F 1351 28-09-2019 06:00:00 14.4 C 90.6667 % 12.89 C
1352 28-09-2019 07:00:00 14.1 C 92.9167 % 12.97 C
1353 28-09-2019 08:00:00 13.89167 C 93.3333 % 12.83 C
1354 28-09-2019 09:00:00 14.35833 C 90.0833 % 12.75 C
1355 28-09-2019 10:00:00 15.4 C 85.3333 % 12.95 C
1356 28-09-2019 11:00:00 16.30833 C 80.3333 % 12.92 C
1357 28-09-2019 12:00:00 16.85 C 78.5833 % 13.11 C
1358 28-09-2019 13:00:00 17.21667 C 77.0833 % 13.17 C
1359 28-09-2019 14:00:00 17.49167 C 76.5000 % 13.32 C
1360 28-09-2019 15:00:00 17.16667 C 77.3333 % 13.17 C
1361 28-09-2019 16:00:00 17.35833 C 77.6667 % 13.42 C
1362 28-09-2019 17:00:00 17.71667 C 75.6667 % 13.37 C
1363 28-09-2019 18:00:00 17.14167 C 76.5833 % 13 C
1364 28-09-2019 19:00:00 15.7 C 80.5833 % 12.37 C
1365 28-09-2019 20:00:00 15.24167 C 82.2500 % 12.24 C
1366 28-09-2019 21:00:00 14.975 C 82.6667 % 12.05 C
1367 28-09-2019 22:00:00 15.13333 C 81.3333 % 11.96 C
1368 28-09-2019 23:00:00 14.15 C 84.8333 % 11.64 C
1369 29-09-2019 00:00:00 13.875 C 86.3333 % 11.63 C
1370 29-09-2019 01:00:00 13.95 C 86.5000 % 11.74 C
1371 29-09-2019 02:00:00 13.65 C 88.8333 % 11.84 C
1372 29-09-2019 03:00:00 13.48333 C 90.1667 % 11.9 C
1373 29-09-2019 04:00:00 13.525 C 91.0000 % 12.09 C
1374 29-09-2019 05:00:00 13.81667 C 89.4167 % 12.11 C
1375 29-09-2019 06:00:00 13.94167 C 86.7500 % 11.77 C
Sensor: Nr:Datum:Temp:Feuchte:Taupunkt:
Aussen-T/F 1376 29-09-2019 07:00:00 14.025 C 86.5833 % 11.82 C
1377 29-09-2019 08:00:00 14.95833 C 82.8333 % 12.07 C
1378 29-09-2019 09:00:00 16.53333 C 77.0000 % 12.49 C
1379 29-09-2019 10:00:00 17.45833 C 73.5833 % 12.69 C
1380 29-09-2019 11:00:00 17.74167 C 72.7500 % 12.79 C
1381 29-09-2019 12:00:00 18.25833 C 71.7500 % 13.07 C
1382 29-09-2019 13:00:00 18.1 C 72.1667 % 13.01 C
1383 29-09-2019 14:00:00 18.61667 C 68.4167 % 12.69 C
1384 29-09-2019 15:00:00 18.21667 C 73.1667 % 13.33 C
1385 29-09-2019 16:00:00 17.10833 C 81.7500 % 13.97 C
1386 29-09-2019 17:00:00 17 C 82.4167 % 13.98 C
1387 29-09-2019 18:00:00 17.5 C 82.9167 % 14.57 C
1388 29-09-2019 19:00:00 17.70833 C 83.0833 % 14.8 C
1389 29-09-2019 20:00:00 17.275 C 88.0833 % 15.28 C
1390 29-09-2019 21:00:00 16.79167 C 92.1667 % 15.51 C
1391 29-09-2019 22:00:00 16.91667 C 92.3333 % 15.66 C
1392 29-09-2019 23:00:00 16.61667 C 91.9167 % 15.3 C
1393 30-09-2019 00:00:00 15.65 C 87.4167 % 13.57 C
1394 30-09-2019 01:00:00 15.34167 C 86.0833 % 13.03 C
1395 30-09-2019 02:00:00 15.15833 C 86.5000 % 12.92 C
1396 30-09-2019 03:00:00 15.25833 C 86.8333 % 13.08 C
1397 30-09-2019 04:00:00 15.04167 C 88.5000 % 13.16 C
1398 30-09-2019 05:00:00 13.75833 C 92.1667 % 12.51 C
1399 30-09-2019 06:00:00 13.19167 C 92.8333 % 12.06 C
1400 30-09-2019 07:00:00 13.08333 C 90.6667 % 11.59 C
Sensor: Nr:Datum:Temp:Feuchte:Taupunkt:
Aussen-T/F 1401 30-09-2019 08:00:00 13.29167 C 87.1667 % 11.2 C
1402 30-09-2019 09:00:00 13.94167 C 83.1667 % 11.13 C
1403 30-09-2019 10:00:00 14.45 C 81.3333 % 11.29 C
1404 30-09-2019 11:00:00 15.13333 C 78.0833 % 11.34 C
1405 30-09-2019 12:00:00 15.71667 C 73.2500 % 10.95 C
1406 30-09-2019 13:00:00 16.40833 C 69.3333 % 10.78 C
1407 30-09-2019 14:00:00 17.10833 C 66.6667 % 10.86 C
1408 30-09-2019 15:00:00 17.75833 C 64.9167 % 11.08 C
1409 30-09-2019 16:00:00 18.45833 C 62.4167 % 11.15 C
1410 30-09-2019 17:00:00 18.45 C 60.5000 % 10.67 C
1411 30-09-2019 18:00:00 17.69167 C 67.9167 % 11.7 C
1412 30-09-2019 19:00:00 14.83333 C 80.5000 % 11.51 C
1413 30-09-2019 20:00:00 14.20833 C 85.2500 % 11.77 C
1414 30-09-2019 21:00:00 14.69167 C 85.0833 % 12.21 C
1415 30-09-2019 22:00:00 14.68333 C 85.0833 % 12.21 C
1416 30-09-2019 23:00:00 14.23333 C 85.3333 % 11.81 C
1417 01-10-2019 00:00:00 14.33333 C 84.5833 % 11.77 C
1418 01-10-2019 01:00:00 14.025 C 86.6667 % 11.84 C
1419 01-10-2019 02:00:00 13.60833 C 87.0000 % 11.49 C
1420 01-10-2019 03:00:00 12.65 C 89.0000 % 10.89 C
1421 01-10-2019 04:00:00 13.275 C 89.2500 % 11.54 C
1422 01-10-2019 05:00:00 14.40833 C 85.3333 % 11.98 C
1423 01-10-2019 06:00:00 15.00833 C 85.5833 % 12.61 C
1424 01-10-2019 07:00:00 15.375 C 86.7500 % 13.18 C
1425 01-10-2019 08:00:00 15.5 C 87.3333 % 13.41 C
Sensor: Nr:Datum:Temp:Feuchte:Taupunkt:
Aussen-T/F 1426 01-10-2019 09:00:00 16.125 C 86.0833 % 13.8 C
1427 01-10-2019 10:00:00 17.09167 C 84.9167 % 14.54 C
1428 01-10-2019 11:00:00 17.53333 C 84.9167 % 14.97 C
1429 01-10-2019 12:00:00 17.36667 C 88.6667 % 15.48 C
1430 01-10-2019 13:00:00 18.575 C 78.4167 % 14.75 C
1431 01-10-2019 14:00:00 18.35833 C 82.9167 % 15.4 C
1432 01-10-2019 15:00:00 19.08333 C 82.8333 % 16.1 C
1433 01-10-2019 16:00:00 18.26667 C 88.3333 % 16.3 C
1434 01-10-2019 17:00:00 17.6 C 93.0000 % 16.45 C
1435 01-10-2019 18:00:00 16.725 C 92.8333 % 15.56 C
1436 01-10-2019 19:00:00 16.19167 C 94.1667 % 15.25 C
1437 01-10-2019 20:00:00 15.875 C 94.8333 % 15.05 C
1438 01-10-2019 21:00:00 15.85 C 95.1667 % 15.08 C
1439 01-10-2019 22:00:00 15.5 C 95.0000 % 14.7 C
1440 01-10-2019 23:00:00 15.225 C 95.0000 % 14.43 C
1441 02-10-2019 00:00:00 15.15833 C 95.0000 % 14.36 C
1442 02-10-2019 01:00:00 15.20833 C 94.2500 % 14.29 C
1443 02-10-2019 02:00:00 14.975 C 93.7500 % 13.98 C
1444 02-10-2019 03:00:00 14.95833 C 93.5000 % 13.92 C
1445 02-10-2019 04:00:00 15.08333 C 92.0000 % 13.79 C
1446 02-10-2019 05:00:00 14.69167 C 92.6667 % 13.52 C
1447 02-10-2019 06:00:00 13.59167 C 92.0000 % 12.32 C
1448 02-10-2019 07:00:00 11.80833 C 92.2500 % 10.59 C
1449 02-10-2019 08:00:00 10.74167 C 93.0000 % 9.66 C
1450 02-10-2019 09:00:00 10.46667 C 90.9167 % 9.05 C
Sensor: Nr:Datum:Temp:Feuchte:Taupunkt:
Aussen-T/F 1451 02-10-2019 10:00:00 10.86667 C 88.0000 % 8.96 C
1452 02-10-2019 11:00:00 11.33333 C 83.7500 % 8.69 C
1453 02-10-2019 12:00:00 11.86667 C 80.5833 % 8.64 C
1454 02-10-2019 13:00:00 12.65833 C 76.4167 % 8.62 C
1455 02-10-2019 14:00:00 13.49167 C 70.0833 % 8.15 C
1456 02-10-2019 15:00:00 13.66667 C 66.5833 % 7.57 C
1457 02-10-2019 16:00:00 13.8 C 61.8333 % 6.62 C
1458 02-10-2019 17:00:00 14.26667 C 61.5833 % 7 C
1459 02-10-2019 18:00:00 12.9 C 68.1667 % 7.18 C
1460 02-10-2019 19:00:00 11.325 C 74.5000 % 6.96 C
1461 02-10-2019 20:00:00 10.04167 C 79.5833 % 6.68 C
1462 02-10-2019 21:00:00 9.875 C 80.5833 % 6.7 C
1463 02-10-2019 22:00:00 8.61667 C 85.6667 % 6.35 C
1464 02-10-2019 23:00:00 8.48333 C 87.1667 % 6.48 C
1465 03-10-2019 00:00:00 9.33333 C 85.0833 % 6.96 C
1466 03-10-2019 01:00:00 9.25833 C 86.4167 % 7.11 C
1467 03-10-2019 02:00:00 9.21667 C 86.5000 % 7.08 C
1468 03-10-2019 03:00:00 8.525 C 87.9167 % 6.64 C
1469 03-10-2019 04:00:00 7.63333 C 90.3333 % 6.15 C
1470 03-10-2019 05:00:00 7.94167 C 91.0000 % 6.57 C
1471 03-10-2019 06:00:00 7.45 C 91.0000 % 6.08 C
1472 03-10-2019 07:00:00 7.2 C 92.9167 % 6.13 C
1473 03-10-2019 08:00:00 7.74167 C 92.1667 % 6.55 C
1474 03-10-2019 09:00:00 9.34167 C 87.6667 % 7.4 C
1475 03-10-2019 10:00:00 10.36667 C 85.5833 % 8.06 C
Sensor: Nr:Datum:Temp:Feuchte:Taupunkt:
Aussen-T/F 1476 03-10-2019 11:00:00 12.23333 C 80.9167 % 9.06 C
1477 03-10-2019 12:00:00 12.55833 C 81.7500 % 9.53 C
1478 03-10-2019 13:00:00 12.225 C 88.5833 % 10.4 C
1479 03-10-2019 14:00:00 11.68333 C 92.3333 % 10.48 C
1480 03-10-2019 15:00:00 11.88333 C 94.5833 % 11.04 C
1481 03-10-2019 16:00:00 12.15833 C 93.0833 % 11.07 C
1482 03-10-2019 17:00:00 11.75833 C 93.4167 % 10.73 C
1483 03-10-2019 18:00:00 10.81667 C 94.0000 % 9.89 C
1484 03-10-2019 19:00:00 9.90833 C 94.5833 % 9.08 C
1485 03-10-2019 20:00:00 9.36667 C 95.0833 % 8.62 C
1486 03-10-2019 21:00:00 9.00833 C 95.8333 % 8.38 C
1487 03-10-2019 22:00:00 8.625 C 96.0000 % 8.02 C
1488 03-10-2019 23:00:00 8.375 C 96.0000 % 7.78 C
1489 04-10-2019 00:00:00 8.38333 C 96.0000 % 7.78 C
1490 04-10-2019 01:00:00 8.21667 C 96.2500 % 7.66 C
1491 04-10-2019 02:00:00 8.19167 C 96.5000 % 7.67 C
1492 04-10-2019 03:00:00 8.05833 C 96.9167 % 7.6 C
1493 04-10-2019 04:00:00 7.71667 C 96.8333 % 7.25 C
1494 04-10-2019 05:00:00 7.90833 C 97.0000 % 7.46 C
1495 04-10-2019 06:00:00 7.96667 C 97.0000 % 7.52 C
1496 04-10-2019 07:00:00 8.13333 C 97.0000 % 7.69 C
1497 04-10-2019 08:00:00 8.45833 C 97.0000 % 8.01 C
1498 04-10-2019 09:00:00 8.70833 C 97.0000 % 8.26 C
1499 04-10-2019 10:00:00 9.125 C 96.9167 % 8.66 C
1500 04-10-2019 11:00:00 9.75833 C 96.0000 % 9.15 C
Sensor: Nr:Datum:Temp:Feuchte:Taupunkt:
Aussen-T/F 1501 04-10-2019 12:00:00 10.65 C 95.3333 % 9.94 C
1502 04-10-2019 13:00:00 11.25833 C 94.5000 % 10.41 C
1503 04-10-2019 14:00:00 13.03333 C 90.9167 % 11.59 C
1504 04-10-2019 15:00:00 13.81667 C 87.8333 % 11.84 C
1505 04-10-2019 16:00:00 14.05833 C 89.5000 % 12.36 C
1506 04-10-2019 17:00:00 13.36667 C 92.9167 % 12.25 C
1507 04-10-2019 18:00:00 12.35833 C 94.1667 % 11.45 C
1508 04-10-2019 19:00:00 11.70833 C 95.4167 % 11 C
1509 04-10-2019 20:00:00 11.63333 C 96.0000 % 11.02 C
1510 04-10-2019 21:00:00 11.65833 C 96.0000 % 11.04 C
1511 04-10-2019 22:00:00 11.69167 C 95.3333 % 10.97 C
1512 04-10-2019 23:00:00 11.71667 C 95.4167 % 11.01 C
1513 05-10-2019 00:00:00 11.96667 C 92.6667 % 10.82 C
1514 05-10-2019 01:00:00 12.09167 C 92.0000 % 10.83 C
1515 05-10-2019 02:00:00 12.225 C 90.6667 % 10.75 C
1516 05-10-2019 03:00:00 12.3 C 91.5833 % 10.97 C
1517 05-10-2019 04:00:00 11.55 C 93.0833 % 10.47 C
1518 05-10-2019 05:00:00 10.75833 C 93.4167 % 9.74 C
1519 05-10-2019 06:00:00 10.20833 C 93.8333 % 9.26 C
1520 05-10-2019 07:00:00 9.98333 C 93.4167 % 8.97 C
1521 05-10-2019 08:00:00 9.81667 C 91.9167 % 8.57 C
1522 05-10-2019 09:00:00 10.18333 C 90.6667 % 8.73 C
1523 05-10-2019 10:00:00 10.55833 C 88.4167 % 8.73 C
1524 05-10-2019 11:00:00 10.70833 C 82.5000 % 7.85 C
1525 05-10-2019 12:00:00 11.2 C 80.5833 % 7.99 C
Sensor: Nr:Datum:Temp:Feuchte:Taupunkt:
Aussen-T/F 1526 05-10-2019 13:00:00 11.9 C 77.5833 % 8.11 C
1527 05-10-2019 14:00:00 11.89167 C 78.0833 % 8.2 C
1528 05-10-2019 15:00:00 12.23333 C 77.3333 % 8.39 C
1529 05-10-2019 16:00:00 12.3 C 80.5833 % 9.06 C
1530 05-10-2019 17:00:00 12.06667 C 84.0833 % 9.46 C
1531 05-10-2019 18:00:00 11.125 C 85.6667 % 8.82 C
1532 05-10-2019 19:00:00 9.50833 C 86.4167 % 7.36 C
1533 05-10-2019 20:00:00 8.35833 C 88.1667 % 6.52 C
1534 05-10-2019 21:00:00 7.875 C 90.6667 % 6.45 C
1535 05-10-2019 22:00:00 7.43333 C 93.3333 % 6.43 C
1536 05-10-2019 23:00:00 7.35 C 94.0000 % 6.45 C
1537 06-10-2019 00:00:00 7.13333 C 94.1667 % 6.26 C
1538 06-10-2019 01:00:00 6.55 C 94.5000 % 5.73 C
1539 06-10-2019 02:00:00 6.7 C 95.5000 % 6.03 C
1540 06-10-2019 03:00:00 7.05833 C 96.0000 % 6.46 C
1541 06-10-2019 04:00:00 7.2 C 96.0000 % 6.61 C
1542 06-10-2019 05:00:00 7.18333 C 96.0000 % 6.59 C
1543 06-10-2019 06:00:00 7.38333 C 96.0000 % 6.79 C
1544 06-10-2019 07:00:00 7.65833 C 96.0000 % 7.06 C
1545 06-10-2019 08:00:00 7.84167 C 96.0000 % 7.24 C
1546 06-10-2019 09:00:00 8.31667 C 96.0000 % 7.72 C
1547 06-10-2019 10:00:00 8.63333 C 95.5000 % 7.96 C
1548 06-10-2019 11:00:00 8.55833 C 95.8333 % 7.93 C
1549 06-10-2019 12:00:00 8.78333 C 96.0000 % 8.18 C
1550 06-10-2019 13:00:00 9.06667 C 96.0000 % 8.46 C
Sensor: Nr:Datum:Temp:Feuchte:Taupunkt:
Aussen-T/F 1551 06-10-2019 14:00:00 9.25 C 96.0000 % 8.65 C
1552 06-10-2019 15:00:00 9.45833 C 96.0000 % 8.85 C
1553 06-10-2019 16:00:00 9.61667 C 96.0000 % 9.01 C
1554 06-10-2019 17:00:00 9.51667 C 96.0000 % 8.91 C
1555 06-10-2019 18:00:00 9.325 C 96.0000 % 8.72 C
1556 06-10-2019 19:00:00 9.15 C 96.2500 % 8.58 C
1557 06-10-2019 20:00:00 9.1 C 97.0000 % 8.65 C
1558 06-10-2019 21:00:00 9.04167 C 97.0000 % 8.59 C
1559 06-10-2019 22:00:00 8.81667 C 97.0000 % 8.37 C
1560 06-10-2019 23:00:00 8.83333 C 97.0000 % 8.38 C
1561 07-10-2019 00:00:00 8.9 C 97.0000 % 8.45 C
1562 07-10-2019 01:00:00 8.725 C 97.0000 % 8.28 C
1563 07-10-2019 02:00:00 8.69167 C 97.0000 % 8.24 C
1564 07-10-2019 03:00:00 8.60833 C 97.0000 % 8.16 C
1565 07-10-2019 04:00:00 8.7 C 97.0000 % 8.25 C
1566 07-10-2019 05:00:00 8.64167 C 97.0000 % 8.19 C
1567 07-10-2019 06:00:00 8.6 C 97.0000 % 8.15 C
1568 07-10-2019 07:00:00 8.6 C 97.0000 % 8.15 C
1569 07-10-2019 08:00:00 8.66667 C 97.0000 % 8.22 C
1570 07-10-2019 09:00:00 8.83333 C 97.0000 % 8.38 C
1571 07-10-2019 10:00:00 9.08333 C 97.0000 % 8.63 C
1572 07-10-2019 11:00:00 9.65 C 96.6667 % 9.15 C
1573 07-10-2019 12:00:00 10.51667 C 93.2500 % 9.47 C
1574 07-10-2019 13:00:00 10.84167 C 90.8333 % 9.41 C
1575 07-10-2019 14:00:00 11.46667 C 88.2500 % 9.59 C
Sensor: Nr:Datum:Temp:Feuchte:Taupunkt:
Aussen-T/F 1576 07-10-2019 15:00:00 12.225 C 87.2500 % 10.17 C
1577 07-10-2019 16:00:00 12.29167 C 87.8333 % 10.34 C
1578 07-10-2019 17:00:00 12.3 C 88.0833 % 10.39 C
1579 07-10-2019 18:00:00 11.86667 C 90.5000 % 10.36 C
1580 07-10-2019 19:00:00 11.09167 C 92.8333 % 9.98 C
1581 07-10-2019 20:00:00 10.725 C 94.7500 % 9.92 C
1582 07-10-2019 21:00:00 10.975 C 95.8333 % 10.34 C
1583 07-10-2019 22:00:00 11.1 C 96.0000 % 10.49 C
1584 07-10-2019 23:00:00 11.1 C 96.0000 % 10.49 C
1585 08-10-2019 00:00:00 11.11667 C 96.6667 % 10.61 C
1586 08-10-2019 01:00:00 11.25 C 96.2500 % 10.68 C
1587 08-10-2019 02:00:00 11.44167 C 96.0000 % 10.83 C
1588 08-10-2019 03:00:00 11.75833 C 95.7500 % 11.1 C
1589 08-10-2019 04:00:00 11.9 C 94.6667 % 11.07 C
1590 08-10-2019 05:00:00 12.31667 C 92.0000 % 11.06 C
1591 08-10-2019 06:00:00 12.18333 C 92.4167 % 10.99 C
1592 08-10-2019 07:00:00 11.79167 C 94.7500 % 10.98 C
1593 08-10-2019 08:00:00 11.825 C 95.8333 % 11.18 C
1594 08-10-2019 09:00:00 12.03333 C 96.0000 % 11.42 C
1595 08-10-2019 10:00:00 12.49167 C 95.0833 % 11.73 C
1596 08-10-2019 11:00:00 13.5 C 93.0833 % 12.4 C
1597 08-10-2019 12:00:00 13.85833 C 91.5833 % 12.51 C
1598 08-10-2019 13:00:00 14.225 C 91.5000 % 12.86 C
1599 08-10-2019 14:00:00 14.6 C 91.3333 % 13.2 C
1600 08-10-2019 15:00:00 14.48333 C 92.3333 % 13.26 C
Sensor: Nr:Datum:Temp:Feuchte:Taupunkt:
Aussen-T/F 1601 08-10-2019 16:00:00 14.225 C 94.5000 % 13.35 C
1602 08-10-2019 17:00:00 14.05833 C 95.4167 % 13.34 C
1603 08-10-2019 18:00:00 13.86667 C 96.0000 % 13.24 C
1604 08-10-2019 19:00:00 13.79167 C 96.0000 % 13.17 C
1605 08-10-2019 20:00:00 13.55 C 96.3333 % 12.98 C
1606 08-10-2019 21:00:00 13.225 C 96.8333 % 12.73 C
1607 08-10-2019 22:00:00 12.825 C 97.0000 % 12.36 C
1608 08-10-2019 23:00:00 11.68333 C 96.1667 % 11.09 C
1609 09-10-2019 00:00:00 10.78333 C 96.8333 % 10.3 C
1610 09-10-2019 01:00:00 10.34167 C 97.0000 % 9.89 C
1611 09-10-2019 02:00:00 10.35 C 97.0833 % 9.91 C
1612 09-10-2019 03:00:00 10.625 C 97.4167 % 10.23 C
1613 09-10-2019 04:00:00 10.98333 C 97.1667 % 10.55 C
1614 09-10-2019 05:00:00 10.79167 C 97.0000 % 10.34 C
1615 09-10-2019 06:00:00 10.925 C 97.0000 % 10.47 C
1616 09-10-2019 07:00:00 10.64167 C 96.0833 % 10.04 C
1617 09-10-2019 08:00:00 10.73333 C 96.3333 % 10.17 C
1618 09-10-2019 09:00:00 11.2 C 96.2500 % 10.63 C
1619 09-10-2019 10:00:00 12.55 C 92.4167 % 11.35 C
1620 09-10-2019 11:00:00 13.55833 C 88.8333 % 11.75 C
1621 09-10-2019 12:00:00 13.90833 C 88.7500 % 12.08 C
1622 09-10-2019 13:00:00 13.59167 C 92.4167 % 12.39 C
1623 09-10-2019 14:00:00 12.925 C 92.4167 % 11.73 C
1624 09-10-2019 15:00:00 12.28333 C 93.0000 % 11.19 C
1625 09-10-2019 16:00:00 12.775 C 89.5833 % 11.11 C
Sensor: Nr:Datum:Temp:Feuchte:Taupunkt:
Aussen-T/F 1626 09-10-2019 17:00:00 12.975 C 86.6667 % 10.81 C
1627 09-10-2019 18:00:00 12.525 C 86.6667 % 10.36 C
1628 09-10-2019 19:00:00 11.84167 C 88.8333 % 10.06 C
1629 09-10-2019 20:00:00 11.20833 C 89.5833 % 9.56 C
1630 09-10-2019 21:00:00 11.06667 C 90.2500 % 9.53 C
1631 09-10-2019 22:00:00 11.10833 C 86.2500 % 8.9 C
1632 09-10-2019 23:00:00 10.8 C 86.3333 % 8.61 C
1633 10-10-2019 00:00:00 10.375 C 87.8333 % 8.45 C
1634 10-10-2019 01:00:00 10.15833 C 89.5000 % 8.51 C
1635 10-10-2019 02:00:00 10.39167 C 90.4167 % 8.89 C
1636 10-10-2019 03:00:00 10.68333 C 91.0000 % 9.28 C
1637 10-10-2019 04:00:00 10.56667 C 91.9167 % 9.31 C
1638 10-10-2019 05:00:00 10.40833 C 93.5000 % 9.41 C
1639 10-10-2019 06:00:00 10.44167 C 93.6667 % 9.47 C
1640 10-10-2019 07:00:00 10.09167 C 93.0000 % 9.01 C
1641 10-10-2019 08:00:00 9.81667 C 92.1667 % 8.61 C
1642 10-10-2019 09:00:00 10.675 C 89.5833 % 9.04 C
1643 10-10-2019 10:00:00 11.29167 C 87.0833 % 9.22 C
1644 10-10-2019 11:00:00 12.33333 C 83.9167 % 9.7 C
1645 10-10-2019 12:00:00 13.35 C 78.5000 % 9.69 C
1646 10-10-2019 13:00:00 14.28333 C 71.1667 % 9.14 C
1647 10-10-2019 14:00:00 14.53333 C 73.1667 % 9.79 C
1648 10-10-2019 15:00:00 15.09167 C 72.3333 % 10.16 C
1649 10-10-2019 16:00:00 15.37778 C 71.0000 % 10.15 C
1650 10-10-2019 17:00:00 13.83333 C 80.5833 % 10.55 C
Sensor: Nr:Datum:Temp:Feuchte:Taupunkt:
Aussen-T/F 1651 10-10-2019 18:00:00 13.18333 C 83.0833 % 10.38 C
1652 10-10-2019 19:00:00 11.68333 C 87.9167 % 9.75 C
1653 10-10-2019 20:00:00 11.69167 C 88.2500 % 9.81 C
1654 10-10-2019 21:00:00 10.88333 C 90.5833 % 9.41 C
1655 10-10-2019 22:00:00 10.18333 C 93.6667 % 9.21 C
1656 10-10-2019 23:00:00 9.8 C 94.5000 % 8.96 C
1657 11-10-2019 00:00:00 9.575 C 95.4167 % 8.88 C
1658 11-10-2019 01:00:00 9.19167 C 95.4167 % 8.5 C
1659 11-10-2019 02:00:00 8.83333 C 95.8333 % 8.21 C
1660 11-10-2019 03:00:00 8.98333 C 96.3333 % 8.43 C
1661 11-10-2019 04:00:00 9.49167 C 95.8333 % 8.86 C
1662 11-10-2019 05:00:00 9.45833 C 95.0000 % 8.7 C
1663 11-10-2019 06:00:00 9.43333 C 94.8333 % 8.65 C
1664 11-10-2019 07:00:00 9.91667 C 95.0833 % 9.17 C
1665 11-10-2019 08:00:00 10.98333 C 95.0000 % 10.21 C
1666 11-10-2019 09:00:00 12.425 C 93.3333 % 11.38 C
1667 11-10-2019 10:00:00 13.35833 C 91.2500 % 11.96 C
1668 11-10-2019 11:00:00 14.85833 C 85.1667 % 12.39 C
1669 11-10-2019 12:00:00 15.85 C 79.4167 % 12.3 C
1670 11-10-2019 13:00:00 16.39167 C 77.5833 % 12.47 C
1671 11-10-2019 14:00:00 16.29167 C 78.3333 % 12.52 C
1672 11-10-2019 15:00:00 16.56667 C 77.3333 % 12.59 C
1673 11-10-2019 16:00:00 16.6 C 78.0000 % 12.75 C
1674 11-10-2019 17:00:00 16.66667 C 78.1667 % 12.85 C
1675 11-10-2019 18:00:00 16.04167 C 81.2500 % 12.83 C
Sensor: Nr:Datum:Temp:Feuchte:Taupunkt:
Aussen-T/F 1676 11-10-2019 19:00:00 14.19167 C 88.5833 % 12.33 C
1677 11-10-2019 20:00:00 13.55833 C 92.0833 % 12.3 C
1678 11-10-2019 21:00:00 12.80833 C 93.1667 % 11.73 C
1679 11-10-2019 22:00:00 12.075 C 94.4167 % 11.21 C
1680 11-10-2019 23:00:00 11.81667 C 95.1667 % 11.07 C
1681 12-10-2019 00:00:00 11.11667 C 95.0833 % 10.36 C
1682 12-10-2019 01:00:00 10.63333 C 96.0000 % 10.02 C
1683 12-10-2019 02:00:00 10.30833 C 96.0000 % 9.7 C
1684 12-10-2019 03:00:00 9.95833 C 96.0833 % 9.36 C
1685 12-10-2019 04:00:00 10.01667 C 97.0000 % 9.56 C
1686 12-10-2019 05:00:00 9.58333 C 96.5833 % 9.07 C
1687 12-10-2019 06:00:00 8.89167 C 96.9167 % 8.43 C
1688 12-10-2019 07:00:00 8.74167 C 97.0000 % 8.29 C
1689 12-10-2019 08:00:00 8.86667 C 97.0000 % 8.42 C
1690 12-10-2019 09:00:00 9.28333 C 97.2500 % 8.87 C
1691 12-10-2019 10:00:00 11.75 C 98.0000 % 11.44 C
1692 12-10-2019 11:00:00 14.25 C 92.7500 % 13.09 C
1693 12-10-2019 12:00:00 16.45 C 81.9167 % 13.35 C
1694 12-10-2019 13:00:00 17.975 C 75.8333 % 13.65 C
1695 12-10-2019 14:00:00 19.40833 C 70.6667 % 13.94 C
1696 12-10-2019 15:00:00 19.93333 C 68.9167 % 14.06 C
1697 12-10-2019 16:00:00 19.6 C 71.7500 % 14.36 C
1698 12-10-2019 17:00:00 18.85 C 74.9167 % 14.31 C
1699 12-10-2019 18:00:00 17.225 C 83.2500 % 14.36 C
1700 12-10-2019 19:00:00 15.61667 C 88.6667 % 13.75 C
Sensor: Nr:Datum:Temp:Feuchte:Taupunkt:
Aussen-T/F 1701 12-10-2019 20:00:00 14.93333 C 90.0833 % 13.32 C
1702 12-10-2019 21:00:00 14.51667 C 92.8333 % 13.37 C
1703 12-10-2019 22:00:00 14.925 C 91.8333 % 13.61 C
1704 12-10-2019 23:00:00 14.375 C 93.5000 % 13.34 C
1705 13-10-2019 00:00:00 13.65 C 94.2500 % 12.74 C
1706 13-10-2019 01:00:00 13.11667 C 95.1667 % 12.36 C
1707 13-10-2019 02:00:00 13.30833 C 96.3333 % 12.74 C
1708 13-10-2019 03:00:00 13.40833 C 96.1667 % 12.81 C
1709 13-10-2019 04:00:00 13 C 96.5000 % 12.46 C
1710 13-10-2019 05:00:00 13.54167 C 97.0000 % 13.07 C
1711 13-10-2019 06:00:00 13.79167 C 97.0000 % 13.32 C
1712 13-10-2019 07:00:00 13.76667 C 97.0000 % 13.3 C
1713 13-10-2019 08:00:00 13.11667 C 97.0000 % 12.65 C
1714 13-10-2019 09:00:00 13.46667 C 97.5000 % 13.08 C
1715 13-10-2019 10:00:00 14.23333 C 97.9167 % 13.91 C
1716 13-10-2019 11:00:00 15.63333 C 98.0000 % 15.32 C
1717 13-10-2019 12:00:00 17.325 C 97.8333 % 16.98 C
1718 13-10-2019 13:00:00 19.45833 C 91.4167 % 18.02 C
1719 13-10-2019 14:00:00 21.65833 C 77.5833 % 17.57 C
1720 13-10-2019 15:00:00 22.03333 C 75.9167 % 17.59 C
1721 13-10-2019 16:00:00 21.96667 C 77.0000 % 17.75 C
1722 13-10-2019 17:00:00 21.125 C 80.5833 % 17.65 C
1723 13-10-2019 18:00:00 19.51667 C 85.7500 % 17.07 C
1724 13-10-2019 19:00:00 18.45 C 88.3333 % 16.49 C
1725 13-10-2019 20:00:00 18.11667 C 88.3333 % 16.16 C
Sensor: Nr:Datum:Temp:Feuchte:Taupunkt:
Aussen-T/F 1726 13-10-2019 21:00:00 17.41667 C 89.2500 % 15.63 C
1727 13-10-2019 22:00:00 17.06667 C 88.5000 % 15.15 C
1728 13-10-2019 23:00:00 16.56667 C 88.8333 % 14.72 C
1729 14-10-2019 00:00:00 15.825 C 90.0833 % 14.2 C
1730 14-10-2019 01:00:00 15.41667 C 91.0000 % 13.96 C
1731 14-10-2019 02:00:00 14.91667 C 91.9167 % 13.62 C
1732 14-10-2019 03:00:00 14.14167 C 93.0833 % 13.04 C
1733 14-10-2019 04:00:00 13.45833 C 94.2500 % 12.55 C
1734 14-10-2019 05:00:00 13.36667 C 95.5000 % 12.66 C
1735 14-10-2019 06:00:00 12.9 C 95.1667 % 12.15 C
1736 14-10-2019 07:00:00 12.75 C 95.8333 % 12.1 C
1737 14-10-2019 08:00:00 12.88333 C 96.0000 % 12.26 C
1738 14-10-2019 09:00:00 13.24167 C 96.1667 % 12.64 C
1739 14-10-2019 10:00:00 13.64167 C 96.5000 % 13.1 C
1740 14-10-2019 11:00:00 14.90833 C 97.0000 % 14.44 C
1741 14-10-2019 12:00:00 16.49167 C 96.2500 % 15.89 C
1742 14-10-2019 13:00:00 18.55833 C 89.2500 % 16.75 C
1743 14-10-2019 14:00:00 21.1 C 76.6667 % 16.84 C
1744 14-10-2019 15:00:00 21.11667 C 75.5000 % 16.62 C
1745 14-10-2019 16:00:00 20.775 C 74.0000 % 15.97 C
1746 14-10-2019 17:00:00 19.81667 C 78.5833 % 15.99 C
1747 14-10-2019 18:00:00 18.93333 C 80.9167 % 15.59 C
1748 14-10-2019 19:00:00 17.43333 C 87.0000 % 15.25 C
1749 14-10-2019 20:00:00 16.71667 C 88.1667 % 14.75 C
1750 14-10-2019 21:00:00 15.88333 C 89.0833 % 14.09 C
Sensor: Nr:Datum:Temp:Feuchte:Taupunkt:
Aussen-T/F 1751 14-10-2019 22:00:00 14.875 C 91.9167 % 13.57 C
1752 14-10-2019 23:00:00 15.075 C 92.0833 % 13.8 C
1753 15-10-2019 00:00:00 15.08333 C 92.0000 % 13.79 C
1754 15-10-2019 01:00:00 14.4 C 92.3333 % 13.17 C
1755 15-10-2019 02:00:00 13.43333 C 93.5833 % 12.42 C
1756 15-10-2019 03:00:00 12.725 C 94.5000 % 11.87 C
1757 15-10-2019 04:00:00 12.38333 C 95.4167 % 11.67 C
1758 15-10-2019 05:00:00 11.95833 C 95.7500 % 11.3 C
1759 15-10-2019 06:00:00 12.09167 C 96.5833 % 11.57 C
1760 15-10-2019 07:00:00 11.96667 C 96.2500 % 11.39 C
1761 15-10-2019 08:00:00 11.79167 C 96.8333 % 11.31 C
1762 15-10-2019 09:00:00 12.36667 C 97.0000 % 11.9 C
1763 15-10-2019 10:00:00 13.25833 C 97.0000 % 12.79 C
1764 15-10-2019 11:00:00 15.375 C 95.5833 % 14.67 C
1765 15-10-2019 12:00:00 17.68333 C 85.4167 % 15.21 C
1766 15-10-2019 13:00:00 18.10833 C 80.4167 % 14.69 C
1767 15-10-2019 14:00:00 17.73333 C 81.0000 % 14.43 C
1768 15-10-2019 15:00:00 17.21667 C 82.0000 % 14.12 C
1769 15-10-2019 16:00:00 16.65833 C 85.2500 % 14.17 C
1770 15-10-2019 17:00:00 16.28333 C 88.0000 % 14.29 C
1771 15-10-2019 18:00:00 15.11667 C 92.0000 % 13.83 C
1772 15-10-2019 19:00:00 14.29167 C 94.3333 % 13.39 C
1773 15-10-2019 20:00:00 13.925 C 95.0000 % 13.14 C
1774 15-10-2019 21:00:00 13.65 C 95.5000 % 12.94 C
1775 15-10-2019 22:00:00 13.41667 C 96.0000 % 12.79 C
Sensor: Nr:Datum:Temp:Feuchte:Taupunkt:
Aussen-T/F 1776 15-10-2019 23:00:00 12.925 C 95.0833 % 12.16 C
1777 16-10-2019 00:00:00 12.10833 C 94.9167 % 11.32 C
1778 16-10-2019 01:00:00 11.85833 C 95.6667 % 11.19 C
1779 16-10-2019 02:00:00 11.8 C 96.0000 % 11.18 C
1780 16-10-2019 03:00:00 11.775 C 96.0000 % 11.16 C
1781 16-10-2019 04:00:00 11.625 C 96.0000 % 11.01 C
1782 16-10-2019 05:00:00 11.425 C 96.0000 % 10.81 C
1783 16-10-2019 06:00:00 11.18333 C 95.0833 % 10.43 C
1784 16-10-2019 07:00:00 10.95833 C 93.9167 % 10.02 C
1785 16-10-2019 08:00:00 10.65 C 94.0000 % 9.73 C
1786 16-10-2019 09:00:00 10.925 C 94.7500 % 10.12 C
1787 16-10-2019 10:00:00 12.44167 C 91.1667 % 11.04 C
1788 16-10-2019 11:00:00 13.79167 C 86.4167 % 11.57 C
1789 16-10-2019 12:00:00 14.55 C 84.5000 % 11.97 C
1790 16-10-2019 13:00:00 14.08333 C 91.1667 % 12.67 C
1791 16-10-2019 14:00:00 13.51667 C 94.0833 % 12.58 C
1792 16-10-2019 15:00:00 13.91667 C 94.7500 % 13.09 C
1793 16-10-2019 16:00:00 14.34167 C 94.1667 % 13.42 C
1794 16-10-2019 17:00:00 14.36667 C 94.5000 % 13.5 C
1795 16-10-2019 18:00:00 13.90833 C 95.0000 % 13.12 C
1796 16-10-2019 19:00:00 13.53333 C 96.0000 % 12.91 C
1797 16-10-2019 20:00:00 13.25 C 96.0000 % 12.63 C
1798 16-10-2019 21:00:00 12.71667 C 96.0000 % 12.1 C
1799 16-10-2019 22:00:00 12.55833 C 96.0000 % 11.94 C
1800 16-10-2019 23:00:00 12.4 C 96.4167 % 11.85 C
Sensor: Nr:Datum:Temp:Feuchte:Taupunkt:
Aussen-T/F 1801 17-10-2019 00:00:00 12.64167 C 96.0000 % 12.02 C
1802 17-10-2019 01:00:00 12.61667 C 96.0000 % 12 C
1803 17-10-2019 02:00:00 12.375 C 96.0000 % 11.76 C
1804 17-10-2019 03:00:00 12.76667 C 95.5000 % 12.07 C
1805 17-10-2019 04:00:00 13.575 C 92.4167 % 12.37 C
1806 17-10-2019 05:00:00 14.19167 C 89.3333 % 12.46 C
1807 17-10-2019 06:00:00 14.23333 C 88.9167 % 12.43 C
1808 17-10-2019 07:00:00 14.24167 C 89.5833 % 12.55 C
1809 17-10-2019 08:00:00 14.58333 C 87.6667 % 12.56 C
1810 17-10-2019 09:00:00 15.36667 C 84.8333 % 12.83 C
1811 17-10-2019 10:00:00 15.86667 C 83.1667 % 13.02 C
1812 17-10-2019 11:00:00 16.65833 C 81.9167 % 13.56 C
1813 17-10-2019 12:00:00 16.65833 C 84.0833 % 13.96 C
1814 17-10-2019 13:00:00 16.81667 C 83.0000 % 13.91 C
1815 17-10-2019 14:00:00 16.84167 C 85.7500 % 14.44 C
1816 17-10-2019 15:00:00 16.63333 C 87.0000 % 14.46 C
1817 17-10-2019 16:00:00 15.85 C 91.1667 % 14.41 C
1818 17-10-2019 17:00:00 15.14167 C 93.9167 % 14.17 C
1819 17-10-2019 18:00:00 14.61667 C 95.0000 % 13.82 C
1820 17-10-2019 19:00:00 14.15833 C 95.6667 % 13.48 C
1821 17-10-2019 20:00:00 14.08333 C 96.0000 % 13.46 C
1822 17-10-2019 21:00:00 13.9 C 96.7500 % 13.39 C
1823 17-10-2019 22:00:00 13.85 C 97.0000 % 13.38 C
1824 17-10-2019 23:00:00 13.89167 C 97.0000 % 13.42 C
1825 18-10-2019 00:00:00 13.825 C 97.0000 % 13.36 C
Sensor: Nr:Datum:Temp:Feuchte:Taupunkt:
Aussen-T/F 1826 18-10-2019 01:00:00 12.83333 C 96.9167 % 12.36 C
1827 18-10-2019 02:00:00 12.125 C 97.0000 % 11.66 C
1828 18-10-2019 03:00:00 11.58333 C 97.0000 % 11.12 C
1829 18-10-2019 04:00:00 11.49167 C 97.0000 % 11.03 C
1830 18-10-2019 05:00:00 11.80833 C 97.3333 % 11.4 C
1831 18-10-2019 06:00:00 12.7 C 98.0000 % 12.39 C
1832 18-10-2019 07:00:00 12.60833 C 97.6667 % 12.25 C
1833 18-10-2019 08:00:00 12.8 C 98.0000 % 12.49 C
1834 18-10-2019 09:00:00 13.4 C 98.0000 % 13.09 C
1835 18-10-2019 10:00:00 14.38333 C 98.0000 % 14.07 C
1836 18-10-2019 11:00:00 14.66667 C 97.3333 % 14.25 C
1837 18-10-2019 12:00:00 15.46667 C 89.3333 % 13.72 C
1838 18-10-2019 13:00:00 14.95833 C 83.9167 % 12.26 C
1839 18-10-2019 14:00:00 12.91667 C 85.4167 % 10.53 C
1840 18-10-2019 15:00:00 13.8 C 80.5833 % 10.52 C
1841 18-10-2019 16:00:00 14.23333 C 75.9167 % 10.05 C
1842 18-10-2019 17:00:00 14.40833 C 73.2500 % 9.69 C
1843 18-10-2019 18:00:00 12.64167 C 80.5000 % 9.38 C
1844 18-10-2019 19:00:00 10.63333 C 88.7500 % 8.86 C
1845 18-10-2019 20:00:00 9.75833 C 91.8333 % 8.5 C
1846 18-10-2019 21:00:00 9.20833 C 93.3333 % 8.19 C
1847 18-10-2019 22:00:00 9.23333 C 94.9167 % 8.46 C
1848 18-10-2019 23:00:00 9.14167 C 95.0000 % 8.38 C
1849 19-10-2019 00:00:00 9.14167 C 95.2500 % 8.42 C
1850 19-10-2019 01:00:00 9.64167 C 94.5000 % 8.8 C
Sensor: Nr:Datum:Temp:Feuchte:Taupunkt:
Aussen-T/F 1851 19-10-2019 02:00:00 9.65833 C 94.2500 % 8.78 C
1852 19-10-2019 03:00:00 9.875 C 94.0000 % 8.96 C
1853 19-10-2019 04:00:00 10.10833 C 94.0000 % 9.19 C
1854 19-10-2019 05:00:00 10.68333 C 93.8333 % 9.73 C
1855 19-10-2019 06:00:00 10.70833 C 93.5000 % 9.7 C
1856 19-10-2019 07:00:00 10.64167 C 94.3333 % 9.77 C
1857 19-10-2019 08:00:00 11.05 C 95.0000 % 10.28 C
1858 19-10-2019 09:00:00 11.875 C 94.2500 % 10.98 C
1859 19-10-2019 10:00:00 13.025 C 90.6667 % 11.54 C
1860 19-10-2019 11:00:00 13.825 C 91.3333 % 12.44 C
1861 19-10-2019 12:00:00 15.40833 C 85.5000 % 12.99 C
1862 19-10-2019 13:00:00 16.2 C 82.0833 % 13.14 C
1863 19-10-2019 14:00:00 16.9 C 79.3333 % 13.3 C
1864 19-10-2019 15:00:00 17.24167 C 77.1667 % 13.21 C
1865 19-10-2019 16:00:00 17.15 C 78.0833 % 13.3 C
1866 19-10-2019 17:00:00 16.84167 C 80.9167 % 13.55 C
1867 19-10-2019 18:00:00 15.16364 C 89.6364 % 13.47 C
1868 19-10-2019 19:00:00 14.03333 C 93.6667 % 13.03 C
1869 19-10-2019 20:00:00 13.625 C 94.9167 % 12.83 C
1870 19-10-2019 21:00:00 13.43333 C 95.6667 % 12.76 C
1871 19-10-2019 22:00:00 13.21667 C 96.0000 % 12.59 C
1872 19-10-2019 23:00:00 13.00833 C 96.0000 % 12.39 C
1873 20-10-2019 00:00:00 13 C 96.6667 % 12.48 C
1874 20-10-2019 01:00:00 13.13333 C 97.0000 % 12.67 C
1875 20-10-2019 02:00:00 13.11667 C 97.0000 % 12.65 C
Sensor: Nr:Datum:Temp:Feuchte:Taupunkt:
Aussen-T/F 1876 20-10-2019 03:00:00 13.1 C 97.0000 % 12.63 C
1877 20-10-2019 04:00:00 13.16667 C 97.0000 % 12.7 C
1878 20-10-2019 05:00:00 12.96667 C 97.0000 % 12.5 C
1879 20-10-2019 06:00:00 12.74167 C 97.0000 % 12.28 C
1880 20-10-2019 07:00:00 12.65 C 97.0000 % 12.19 C
1881 20-10-2019 08:00:00 12.70833 C 97.0000 % 12.24 C
1882 20-10-2019 09:00:00 12.84167 C 97.5833 % 12.47 C
1883 20-10-2019 10:00:00 13.04167 C 97.5833 % 12.67 C
1884 20-10-2019 11:00:00 13.25833 C 97.7500 % 12.91 C
1885 20-10-2019 12:00:00 13.69167 C 98.0000 % 13.38 C
1886 20-10-2019 13:00:00 13.96667 C 98.0000 % 13.66 C
1887 20-10-2019 14:00:00 14.275 C 98.0000 % 13.96 C
1888 20-10-2019 15:00:00 14.525 C 98.0000 % 14.21 C
1889 20-10-2019 16:00:00 14.83333 C 98.0000 % 14.52 C
1890 20-10-2019 17:00:00 14.85 C 98.0000 % 14.54 C
1891 20-10-2019 18:00:00 14.45833 C 98.0000 % 14.15 C
1892 20-10-2019 19:00:00 14.20833 C 98.0000 % 13.9 C
1893 20-10-2019 20:00:00 14.03333 C 98.0000 % 13.72 C
1894 20-10-2019 21:00:00 14.05833 C 98.0000 % 13.75 C
1895 20-10-2019 22:00:00 13.90909 C 98.0000 % 13.6 C
1896 20-10-2019 23:00:00 13.925 C 98.0000 % 13.61 C
1897 21-10-2019 00:00:00 14.24167 C 98.0000 % 13.93 C
1898 21-10-2019 01:00:00 14.14167 C 98.0000 % 13.83 C
1899 21-10-2019 02:00:00 13.74167 C 98.0000 % 13.43 C
1900 21-10-2019 03:00:00 13.66667 C 98.0000 % 13.36 C
Sensor: Nr:Datum:Temp:Feuchte:Taupunkt:
Aussen-T/F 1901 21-10-2019 04:00:00 13.11667 C 98.0000 % 12.81 C
1902 21-10-2019 05:00:00 13.21667 C 98.0000 % 12.91 C
1903 21-10-2019 06:00:00 13.60833 C 98.0000 % 13.3 C
1904 21-10-2019 07:00:00 13.31667 C 98.0000 % 13.01 C
1905 21-10-2019 08:00:00 12.70833 C 98.0000 % 12.4 C
1906 21-10-2019 09:00:00 12.9 C 98.0000 % 12.59 C
1907 21-10-2019 10:00:00 13.49167 C 98.2500 % 13.22 C
1908 21-10-2019 11:00:00 14.00833 C 98.0000 % 13.7 C
1909 21-10-2019 12:00:00 14.60833 C 98.1667 % 14.32 C
1910 21-10-2019 13:00:00 15.91667 C 88.8333 % 14.08 C
1911 21-10-2019 14:00:00 16.70833 C 82.2500 % 13.67 C
1912 21-10-2019 15:00:00 16.375 C 80.8333 % 13.08 C
1913 21-10-2019 16:00:00 15.86667 C 80.9167 % 12.6 C
1914 21-10-2019 17:00:00 14.73333 C 85.5000 % 12.33 C
1915 21-10-2019 18:00:00 13.72727 C 87.0909 % 11.62 C
1916 21-10-2019 19:00:00 12.49167 C 90.2500 % 10.94 C
1917 21-10-2019 20:00:00 11.75 C 92.3333 % 10.55 C
1918 21-10-2019 21:00:00 11.38333 C 93.5833 % 10.39 C
1919 21-10-2019 22:00:00 11.325 C 94.0000 % 10.4 C
1920 21-10-2019 23:00:00 11.21667 C 93.8333 % 10.26 C
1921 22-10-2019 00:00:00 10.825 C 94.5833 % 9.99 C
1922 22-10-2019 01:00:00 11.01667 C 95.0000 % 10.25 C
1923 22-10-2019 02:00:00 10.94167 C 94.9167 % 10.16 C
1924 22-10-2019 03:00:00 10.875 C 94.8333 % 10.08 C
1925 22-10-2019 04:00:00 10.66667 C 94.7500 % 9.86 C
Sensor: Nr:Datum:Temp:Feuchte:Taupunkt:
Aussen-T/F 1926 22-10-2019 05:00:00 10 C 94.9167 % 9.22 C
1927 22-10-2019 06:00:00 10.1 C 96.0000 % 9.49 C
1928 22-10-2019 07:00:00 9.975 C 95.4167 % 9.28 C
1929 22-10-2019 08:00:00 9.875 C 96.0000 % 9.27 C
1930 22-10-2019 09:00:00 10.44167 C 95.7500 % 9.79 C
1931 22-10-2019 10:00:00 11.36667 C 93.9167 % 10.42 C
1932 22-10-2019 11:00:00 12.78333 C 88.3333 % 10.9 C
1933 22-10-2019 12:00:00 13.61667 C 84.9167 % 11.13 C
1934 22-10-2019 13:00:00 14.35714 C 82.2857 % 11.38 C
1935 22-10-2019 14:00:00 15.08333 C 77.5000 % 11.18 C
1936 22-10-2019 15:00:00 14.68333 C 82.0000 % 11.65 C
1937 22-10-2019 16:00:00 13.78333 C 87.0000 % 11.66 C
1938 22-10-2019 17:00:00 13.31667 C 87.9167 % 11.36 C
1939 22-10-2019 18:00:00 12.55 C 87.4167 % 10.52 C
1940 22-10-2019 19:00:00 11.74167 C 90.4167 % 10.23 C
1941 22-10-2019 20:00:00 10.70833 C 93.1667 % 9.65 C
1942 22-10-2019 21:00:00 10.125 C 94.5833 % 9.3 C
1943 22-10-2019 22:00:00 10.20833 C 95.9167 % 9.59 C
1944 22-10-2019 23:00:00 9.9 C 95.7500 % 9.25 C
1945 23-10-2019 00:00:00 8.98333 C 95.7500 % 8.34 C
1946 23-10-2019 01:00:00 8.61667 C 96.0000 % 8.02 C
1947 23-10-2019 02:00:00 8.20833 C 96.0000 % 7.61 C
1948 23-10-2019 03:00:00 8.00833 C 96.7500 % 7.52 C
1949 23-10-2019 04:00:00 7.83333 C 96.9167 % 7.37 C
1950 23-10-2019 05:00:00 8.16667 C 97.0000 % 7.72 C
Sensor: Nr:Datum:Temp:Feuchte:Taupunkt:
Aussen-T/F 1951 23-10-2019 06:00:00 8.13333 C 97.0000 % 7.69 C
1952 23-10-2019 07:00:00 7.95 C 97.0000 % 7.5 C
1953 23-10-2019 08:00:00 7.86667 C 97.2500 % 7.46 C
1954 23-10-2019 09:00:00 8.70833 C 97.8333 % 8.39 C
1955 23-10-2019 10:00:00 9.60833 C 98.0000 % 9.31 C
1956 23-10-2019 11:00:00 10.98333 C 98.0000 % 10.68 C
1957 23-10-2019 12:00:00 11.825 C 96.4167 % 11.27 C
1958 23-10-2019 13:00:00 12.95833 C 92.2500 % 11.73 C
1959 23-10-2019 14:00:00 13.84167 C 89.7500 % 12.19 C
1960 23-10-2019 15:00:00 14.3 C 89.0833 % 12.53 C
1961 23-10-2019 16:00:00 14.79167 C 89.2500 % 13.04 C
1962 23-10-2019 17:00:00 14.94167 C 90.0833 % 13.33 C
1963 23-10-2019 18:00:00 14.175 C 91.6667 % 12.84 C
1964 23-10-2019 19:00:00 13.39167 C 93.5000 % 12.37 C
1965 23-10-2019 20:00:00 13.24167 C 94.3333 % 12.35 C
1966 23-10-2019 21:00:00 13.19167 C 95.0000 % 12.41 C
1967 23-10-2019 22:00:00 12.94167 C 95.0000 % 12.16 C
1968 23-10-2019 23:00:00 12.76667 C 95.0000 % 11.99 C
1969 24-10-2019 00:00:00 12.39167 C 95.5833 % 11.71 C
1970 24-10-2019 01:00:00 12.15833 C 96.0000 % 11.54 C
1971 24-10-2019 02:00:00 12.25833 C 96.3333 % 11.69 C
1972 24-10-2019 03:00:00 11.81667 C 96.0000 % 11.2 C
1973 24-10-2019 04:00:00 11.59167 C 96.8333 % 11.11 C
1974 24-10-2019 05:00:00 11.85 C 97.0000 % 11.39 C
1975 24-10-2019 06:00:00 11.89167 C 97.0833 % 11.44 C
Sensor: Nr:Datum:Temp:Feuchte:Taupunkt:
Aussen-T/F 1976 24-10-2019 07:00:00 12.33333 C 97.0833 % 11.88 C
1977 24-10-2019 08:00:00 12.49167 C 97.0000 % 12.03 C
1978 24-10-2019 09:00:00 13.01667 C 97.0000 % 12.55 C
1979 24-10-2019 10:00:00 13.58333 C 96.8333 % 13.09 C
1980 24-10-2019 11:00:00 14.51667 C 93.5833 % 13.49 C
1981 24-10-2019 12:00:00 15.175 C 92.5833 % 13.98 C
1982 24-10-2019 13:00:00 16.45833 C 89.7500 % 14.77 C
1983 24-10-2019 14:00:00 17.46667 C 86.9167 % 15.27 C
1984 24-10-2019 15:00:00 18.525 C 84.1667 % 15.8 C
1985 24-10-2019 16:00:00 18.44167 C 79.1667 % 14.77 C
1986 24-10-2019 17:00:00 17.525 C 81.6667 % 14.36 C
1987 24-10-2019 18:00:00 15.70833 C 85.3333 % 13.25 C
1988 24-10-2019 19:00:00 14.69167 C 88.2500 % 12.77 C
1989 24-10-2019 20:00:00 13.85833 C 90.4167 % 12.32 C
1990 24-10-2019 21:00:00 13.54167 C 91.0000 % 12.1 C
1991 24-10-2019 22:00:00 13.075 C 92.4167 % 11.87 C
1992 24-10-2019 23:00:00 13.18333 C 93.6667 % 12.19 C
1993 25-10-2019 00:00:00 12.40833 C 93.5833 % 11.4 C
1994 25-10-2019 01:00:00 11.95 C 95.0000 % 11.17 C
1995 25-10-2019 02:00:00 11.49167 C 95.1667 % 10.75 C
1996 25-10-2019 03:00:00 12.34167 C 93.8333 % 11.38 C
1997 25-10-2019 04:00:00 12.88333 C 91.6667 % 11.56 C
1998 25-10-2019 05:00:00 12.65833 C 90.8333 % 11.2 C
1999 25-10-2019 06:00:00 12.63333 C 92.0000 % 11.37 C
2000 25-10-2019 07:00:00 13.175 C 90.6667 % 11.68 C
Sensor: Nr:Datum:Temp:Feuchte:Taupunkt:
Aussen-T/F 2001 25-10-2019 08:00:00 12.68333 C 91.6667 % 11.36 C
2002 25-10-2019 09:00:00 12.93333 C 93.0000 % 11.83 C
2003 25-10-2019 10:00:00 13.775 C 89.0833 % 12.01 C
2004 25-10-2019 11:00:00 14.90833 C 82.5000 % 11.96 C
2005 25-10-2019 12:00:00 15.275 C 79.3333 % 11.72 C
2006 25-10-2019 13:00:00 16.19167 C 73.7500 % 11.51 C
2007 25-10-2019 14:00:00 16.29167 C 73.8333 % 11.62 C
2008 25-10-2019 15:00:00 16.43333 C 70.5000 % 11.06 C
2009 25-10-2019 16:00:00 16.05833 C 73.1667 % 11.26 C
2010 25-10-2019 17:00:00 14.56667 C 81.7500 % 11.49 C
2011 25-10-2019 18:00:00 13.01667 C 86.4167 % 10.8 C
2012 25-10-2019 19:00:00 11.99167 C 89.9167 % 10.39 C
2013 25-10-2019 20:00:00 11.45 C 91.3333 % 10.09 C
2014 25-10-2019 21:00:00 11.025 C 92.3333 % 9.83 C
2015 25-10-2019 22:00:00 11.3 C 93.7500 % 10.33 C
2016 25-10-2019 23:00:00 12.46667 C 92.2500 % 11.24 C
2017 26-10-2019 00:00:00 13.48333 C 89.1667 % 11.74 C
2018 26-10-2019 01:00:00 13.675 C 88.0833 % 11.74 C
2019 26-10-2019 02:00:00 13.53333 C 87.7500 % 11.54 C
2020 26-10-2019 03:00:00 12.26667 C 91.1667 % 10.87 C
2021 26-10-2019 04:00:00 11.59167 C 93.6667 % 10.61 C
2022 26-10-2019 05:00:00 12.29167 C 93.0833 % 11.21 C
2023 26-10-2019 06:00:00 11.86667 C 93.3333 % 10.83 C
2024 26-10-2019 07:00:00 11.1 C 94.0000 % 10.17 C
2025 26-10-2019 08:00:00 10.15833 C 94.7500 % 9.36 C
Sensor: Nr:Datum:Temp:Feuchte:Taupunkt:
Aussen-T/F 2026 26-10-2019 09:00:00 10.325 C 96.0000 % 9.72 C
2027 26-10-2019 10:00:00 11.26667 C 96.6667 % 10.76 C
2028 26-10-2019 11:00:00 12.475 C 96.8333 % 11.99 C
2029 26-10-2019 12:00:00 13.81667 C 95.0833 % 13.04 C
2030 26-10-2019 13:00:00 15.18333 C 89.9167 % 13.54 C
2031 26-10-2019 14:00:00 16.53333 C 85.0833 % 14.02 C
2032 26-10-2019 15:00:00 16.78333 C 84.6667 % 14.19 C
2033 26-10-2019 16:00:00 16.53333 C 85.7500 % 14.14 C
2034 26-10-2019 17:00:00 15.31667 C 87.4167 % 13.24 C
2035 26-10-2019 18:00:00 13.925 C 89.0833 % 12.16 C
2036 26-10-2019 19:00:00 12.975 C 91.0000 % 11.54 C
2037 26-10-2019 20:00:00 12.86667 C 92.6667 % 11.71 C
2038 26-10-2019 21:00:00 12.99167 C 92.0833 % 11.74 C
2039 26-10-2019 22:00:00 12.64167 C 93.0000 % 11.54 C
2040 26-10-2019 23:00:00 12.625 C 93.8333 % 11.66 C
2041 27-10-2019 00:00:00 13.45833 C 90.3333 % 11.91 C
2042 27-10-2019 01:00:00 13.74167 C 87.5000 % 11.7 C
2043 27-10-2019 02:00:00 12.98333 C 89.5000 % 11.3 C
2044 27-10-2019 04:00:00 12.17391 C 92.2174 % 10.95 C
2045 27-10-2019 05:00:00 12.87692 C 91.2308 % 11.48 C
2046 27-10-2019 06:00:00 14.125 C 86.0000 % 11.82 C
2047 27-10-2019 07:00:00 14.16667 C 87.3333 % 12.09 C
2048 27-10-2019 08:00:00 11.975 C 91.8333 % 10.69 C
2049 27-10-2019 09:00:00 10.425 C 92.8333 % 9.32 C
2050 27-10-2019 10:00:00 9.44167 C 93.6667 % 8.47 C
Sensor: Nr:Datum:Temp:Feuchte:Taupunkt:
Aussen-T/F 2051 27-10-2019 11:00:00 9.75833 C 94.5000 % 8.92 C
2052 27-10-2019 12:00:00 10 C 94.4167 % 9.15 C
2053 27-10-2019 13:00:00 9.9 C 94.6667 % 9.09 C
2054 27-10-2019 14:00:00 9.53333 C 94.2500 % 8.66 C
2055 27-10-2019 15:00:00 9.43333 C 95.0000 % 8.67 C
2056 27-10-2019 16:00:00 9.16667 C 95.0000 % 8.41 C
2057 27-10-2019 17:00:00 8.55 C 95.3333 % 7.85 C
2058 27-10-2019 18:00:00 8.35 C 96.0000 % 7.75 C
2059 27-10-2019 19:00:00 8.275 C 96.0000 % 7.68 C
2060 27-10-2019 20:00:00 7.50833 C 96.0000 % 6.91 C
2061 27-10-2019 21:00:00 6.91667 C 96.0000 % 6.32 C
2062 27-10-2019 22:00:00 5.925 C 96.0000 % 5.34 C
2063 27-10-2019 23:00:00 5.125 C 96.3333 % 4.59 C
2064 28-10-2019 00:00:00 5.325 C 97.0000 % 4.89 C
2065 28-10-2019 01:00:00 5.8 C 97.0000 % 5.36 C
2066 28-10-2019 02:00:00 5.59167 C 97.0000 % 5.15 C
2067 28-10-2019 03:00:00 5.44167 C 97.0000 % 5 C
2068 28-10-2019 04:00:00 5.30833 C 97.0000 % 4.87 C
2069 28-10-2019 05:00:00 5.2 C 97.0000 % 4.76 C
2070 28-10-2019 06:00:00 5.13333 C 97.0000 % 4.7 C
2071 28-10-2019 07:00:00 5.26667 C 97.0000 % 4.83 C
2072 28-10-2019 08:00:00 5.51667 C 97.3333 % 5.13 C
2073 28-10-2019 09:00:00 5.8 C 98.0000 % 5.51 C
2074 28-10-2019 10:00:00 6.18333 C 98.0000 % 5.89 C
2075 28-10-2019 11:00:00 6.38333 C 98.0000 % 6.09 C
Sensor: Nr:Datum:Temp:Feuchte:Taupunkt:
Aussen-T/F 2076 28-10-2019 12:00:00 6.5 C 97.7500 % 6.17 C
2077 28-10-2019 13:00:00 6.725 C 97.0000 % 6.28 C
2078 28-10-2019 14:00:00 7.39167 C 96.6667 % 6.9 C
2079 28-10-2019 15:00:00 8.01667 C 95.1667 % 7.29 C
2080 28-10-2019 16:00:00 7.79167 C 94.9167 % 7.03 C
2081 28-10-2019 17:00:00 7 C 95.4167 % 6.32 C
2082 28-10-2019 18:00:00 7.175 C 96.0000 % 6.58 C
2083 28-10-2019 19:00:00 7.15833 C 96.0000 % 6.56 C
2084 28-10-2019 20:00:00 6.99167 C 96.5000 % 6.47 C
2085 28-10-2019 21:00:00 6.94167 C 96.6667 % 6.45 C
2086 28-10-2019 22:00:00 6.78333 C 97.0000 % 6.34 C
2087 28-10-2019 23:00:00 6.7 C 96.4167 % 6.17 C
2088 29-10-2019 00:00:00 6.68333 C 96.0000 % 6.09 C
2089 29-10-2019 01:00:00 6.41667 C 96.0000 % 5.83 C
2090 29-10-2019 02:00:00 6.3 C 96.0000 % 5.71 C
2091 29-10-2019 03:00:00 6.275 C 96.0000 % 5.69 C
2092 29-10-2019 04:00:00 6.2 C 96.0000 % 5.61 C
2093 29-10-2019 05:00:00 6.2 C 96.0000 % 5.61 C
2094 29-10-2019 06:00:00 6.10833 C 95.7500 % 5.48 C
2095 29-10-2019 07:00:00 5.975 C 95.3333 % 5.29 C
2096 29-10-2019 08:00:00 6.225 C 95.5833 % 5.57 C
2097 29-10-2019 09:00:00 6.69167 C 94.7500 % 5.91 C
2098 29-10-2019 10:00:00 7.475 C 92.7500 % 6.38 C
2099 29-10-2019 11:00:00 8.23333 C 90.5833 % 6.79 C
2100 29-10-2019 12:00:00 8.925 C 88.3333 % 7.1 C
Sensor: Nr:Datum:Temp:Feuchte:Taupunkt:
Aussen-T/F 2101 29-10-2019 13:00:00 9.74167 C 84.4167 % 7.24 C
2102 29-10-2019 14:00:00 10.59167 C 76.4167 % 6.62 C
2103 29-10-2019 15:00:00 9.575 C 80.3333 % 6.36 C
2104 29-10-2019 16:00:00 8.275 C 88.2500 % 6.45 C
2105 29-10-2019 17:00:00 6.94167 C 89.4167 % 5.32 C
2106 29-10-2019 18:00:00 5.96667 C 90.9167 % 4.6 C
2107 29-10-2019 19:00:00 4.96667 C 92.5000 % 3.86 C
2108 29-10-2019 20:00:00 4.425 C 94.0000 % 3.55 C
2109 29-10-2019 21:00:00 3.63333 C 94.1667 % 2.78 C
2110 29-10-2019 22:00:00 2.99167 C 95.0000 % 2.27 C
2111 29-10-2019 23:00:00 2.775 C 95.8333 % 2.18 C
2112 30-10-2019 00:00:00 2.20833 C 95.8333 % 1.61 C
2113 30-10-2019 01:00:00 1.98333 C 96.0000 % 1.41 C
2114 30-10-2019 02:00:00 1.98333 C 96.0000 % 1.41 C
2115 30-10-2019 03:00:00 1.51667 C 96.0000 % 0.95 C
2116 30-10-2019 04:00:00 1.14167 C 96.3333 % 0.62 C
2117 30-10-2019 05:00:00 1.35 C 96.7500 % 0.89 C
2118 30-10-2019 06:00:00 1.4 C 97.0000 % 0.98 C
2119 30-10-2019 07:00:00 1.45833 C 97.0000 % 1.04 C
2120 30-10-2019 08:00:00 1.85833 C 97.0000 % 1.43 C
2121 30-10-2019 09:00:00 2.4 C 97.0000 % 1.97 C
2122 30-10-2019 10:00:00 3.69167 C 97.8333 % 3.38 C
2123 30-10-2019 11:00:00 4.94167 C 98.0000 % 4.65 C
2124 30-10-2019 12:00:00 5.71667 C 96.9167 % 5.27 C
2125 30-10-2019 13:00:00 6.63333 C 91.0000 % 5.27 C
Sensor: Nr:Datum:Temp:Feuchte:Taupunkt:
Aussen-T/F 2126 30-10-2019 14:00:00 7.58333 C 84.5000 % 5.14 C
2127 30-10-2019 15:00:00 7.75 C 84.3333 % 5.28 C
2128 30-10-2019 16:00:00 7.01667 C 88.0000 % 5.17 C
2129 30-10-2019 17:00:00 5.76667 C 89.1667 % 4.12 C
2130 30-10-2019 18:00:00 4.46667 C 90.5833 % 3.06 C
2131 30-10-2019 19:00:00 3.8 C 91.9167 % 2.61 C
2132 30-10-2019 20:00:00 3.23333 C 93.3333 % 2.26 C
2133 30-10-2019 21:00:00 2.70833 C 94.4167 % 1.9 C
2134 30-10-2019 22:00:00 2.25 C 94.6667 % 1.48 C
2135 30-10-2019 23:00:00 1.80833 C 95.0000 % 1.09 C
2136 31-10-2019 00:00:00 1.025 C 95.0000 % 0.32 C
2137 31-10-2019 01:00:00 0.89167 C 95.9167 % 0.32 C
2138 31-10-2019 02:00:00 0.53333 C 96.0000 % -0.03 C
2139 31-10-2019 03:00:00 0.28333 C 96.0000 % -0.28 C
2140 31-10-2019 04:00:00 0.06667 C 96.0000 % -0.49 C
2141 31-10-2019 05:00:00 -0.325 C 96.0000 % -0.88 C
2142 31-10-2019 06:00:00 -0.50833 C 96.0000 % -1.07 C
2143 31-10-2019 07:00:00 -0.75 C 96.2500 % -1.27 C
2144 31-10-2019 08:00:00 -0.61667 C 96.5833 % -1.09 C
2145 31-10-2019 09:00:00 0.05 C 97.0000 % -0.37 C
2146 31-10-2019 10:00:00 1.13333 C 97.0833 % 0.72 C
2147 31-10-2019 11:00:00 2.85833 C 97.8333 % 2.55 C
2148 31-10-2019 12:00:00 4.16667 C 97.7500 % 3.84 C
2149 31-10-2019 13:00:00 5.60833 C 94.5000 % 4.8 C
2150 31-10-2019 14:00:00 7.29167 C 84.2500 % 4.82 C
Sensor: Nr:Datum:Temp:Feuchte:Taupunkt:
Aussen-T/F 2151 31-10-2019 15:00:00 7.44167 C 83.4167 % 4.82 C
2152 31-10-2019 16:00:00 6.125 C 87.4167 % 4.2 C
2153 31-10-2019 17:00:00 4.63333 C 88.4167 % 2.89 C
2154 31-10-2019 18:00:00 3.70833 C 89.0833 % 2.08 C
2155 31-10-2019 19:00:00 3.175 C 90.4167 % 1.76 C
2156 31-10-2019 20:00:00 2.325 C 92.0000 % 1.16 C
2157 31-10-2019 21:00:00 1.71667 C 93.7500 % 0.82 C
2158 31-10-2019 22:00:00 1.48333 C 94.2500 % 0.66 C
2159 31-10-2019 23:00:00 1.30833 C 95.0000 % 0.6 C
2160 01-11-2019 00:00:00 0.88333 C 95.0000 % 0.18 C
2161 01-11-2019 01:00:00 0.6 C 95.3333 % -0.06 C
2162 01-11-2019 02:00:00 0.55833 C 95.9167 % -0.02 C
2163 01-11-2019 03:00:00 0.44167 C 96.0000 % -0.12 C
2164 01-11-2019 04:00:00 1.03333 C 96.5000 % 0.54 C
2165 01-11-2019 05:00:00 2.16667 C 97.0000 % 1.74 C
2166 01-11-2019 06:00:00 2.85833 C 97.0000 % 2.43 C
2167 01-11-2019 07:00:00 3.55 C 97.0000 % 3.12 C
2168 01-11-2019 08:00:00 4.35833 C 97.0000 % 3.93 C
2169 01-11-2019 09:00:00 5.40833 C 97.0000 % 4.97 C
2170 01-11-2019 10:00:00 6.38333 C 97.0000 % 5.94 C
2171 01-11-2019 11:00:00 7.29167 C 95.5833 % 6.63 C
2172 01-11-2019 12:00:00 8.09167 C 93.3333 % 7.08 C
2173 01-11-2019 13:00:00 8.53333 C 93.0000 % 7.47 C
2174 01-11-2019 14:00:00 8.73333 C 94.5833 % 7.91 C
2175 01-11-2019 15:00:00 8.7 C 95.6667 % 8.05 C
Sensor: Nr:Datum:Temp:Feuchte:Taupunkt:
Aussen-T/F 2176 01-11-2019 16:00:00 8.8 C 96.0000 % 8.2 C
2177 01-11-2019 17:00:00 8.85833 C 96.0000 % 8.26 C
2178 01-11-2019 18:00:00 8.86667 C 96.1667 % 8.29 C
2179 01-11-2019 19:00:00 8.93333 C 97.0000 % 8.48 C
2180 01-11-2019 20:00:00 9.225 C 97.0000 % 8.77 C
2181 01-11-2019 21:00:00 9.64167 C 97.0833 % 9.2 C
2182 01-11-2019 22:00:00 10.15 C 98.0000 % 9.85 C
2183 01-11-2019 23:00:00 10.525 C 98.0000 % 10.22 C
2184 02-11-2019 00:00:00 11.18333 C 98.0000 % 10.88 C
2185 02-11-2019 01:00:00 11.96667 C 98.0000 % 11.66 C
2186 02-11-2019 02:00:00 12.21667 C 98.0000 % 11.91 C
2187 02-11-2019 03:00:00 12.28333 C 98.0000 % 11.98 C
2188 02-11-2019 04:00:00 12.25 C 98.0000 % 11.94 C
2189 02-11-2019 05:00:00 12.65833 C 98.0000 % 12.35 C
2190 02-11-2019 06:00:00 13.1 C 98.0000 % 12.79 C
2191 02-11-2019 07:00:00 13.48333 C 98.0000 % 13.17 C
2192 02-11-2019 08:00:00 13.84167 C 98.0000 % 13.53 C
2193 02-11-2019 09:00:00 14.30833 C 97.8333 % 13.97 C
2194 02-11-2019 10:00:00 14.925 C 93.0000 % 13.8 C
2195 02-11-2019 11:00:00 15.74167 C 86.2500 % 13.45 C
2196 02-11-2019 12:00:00 16.15833 C 80.3333 % 12.77 C
2197 02-11-2019 13:00:00 16.04167 C 75.3333 % 11.68 C
2198 02-11-2019 14:00:00 15.8 C 74.3333 % 11.25 C
2199 02-11-2019 15:00:00 15.10833 C 77.2500 % 11.16 C
2200 02-11-2019 16:00:00 14.55833 C 78.0833 % 10.79 C
Sensor: Nr:Datum:Temp:Feuchte:Taupunkt:
Aussen-T/F 2201 02-11-2019 17:00:00 13.78333 C 81.5833 % 10.69 C
2202 02-11-2019 18:00:00 11.90833 C 90.0833 % 10.34 C
2203 02-11-2019 19:00:00 11.425 C 91.8333 % 10.15 C
2204 02-11-2019 20:00:00 11.30833 C 91.1667 % 9.92 C
2205 02-11-2019 21:00:00 11.15 C 88.6667 % 9.35 C
2206 02-11-2019 22:00:00 10.98333 C 88.4167 % 9.15 C
2207 02-11-2019 23:00:00 10.56667 C 89.0833 % 8.85 C
2208 03-11-2019 00:00:00 10.475 C 88.2500 % 8.62 C
2209 03-11-2019 01:00:00 10.41667 C 90.1667 % 8.88 C
2210 03-11-2019 02:00:00 10.03333 C 91.5000 % 8.71 C
2211 03-11-2019 03:00:00 10 C 93.1667 % 8.95 C
2212 03-11-2019 04:00:00 10.26667 C 94.3333 % 9.4 C
2213 03-11-2019 05:00:00 10.25 C 95.0000 % 9.49 C
2214 03-11-2019 06:00:00 10.3 C 95.9167 % 9.68 C
2215 03-11-2019 07:00:00 10.325 C 96.0000 % 9.72 C
2216 03-11-2019 08:00:00 10.48333 C 96.7500 % 9.99 C
2217 03-11-2019 09:00:00 11.3 C 97.0000 % 10.84 C
2218 03-11-2019 10:00:00 12.26667 C 95.5833 % 11.58 C
2219 03-11-2019 11:00:00 13.53333 C 90.8333 % 12.07 C
2220 03-11-2019 12:00:00 14.85 C 83.4167 % 12.07 C
2221 03-11-2019 13:00:00 15.39167 C 81.5000 % 12.24 C
2222 03-11-2019 14:00:00 15.46667 C 81.7500 % 12.36 C
2223 03-11-2019 15:00:00 14.81667 C 83.3333 % 12.02 C
2224 03-11-2019 16:00:00 14.00833 C 86.2500 % 11.75 C
2225 03-11-2019 17:00:00 13.00833 C 90.3333 % 11.46 C
Sensor: Nr:Datum:Temp:Feuchte:Taupunkt:
Aussen-T/F 2226 03-11-2019 18:00:00 12.35833 C 93.7500 % 11.38 C
2227 03-11-2019 19:00:00 11.71667 C 95.0000 % 10.94 C
2228 03-11-2019 20:00:00 11.075 C 95.7500 % 10.42 C
2229 03-11-2019 21:00:00 10.75833 C 96.0000 % 10.15 C
2230 03-11-2019 22:00:00 10.7 C 96.0000 % 10.09 C
2231 03-11-2019 23:00:00 10.60833 C 95.9167 % 9.98 C
2232 04-11-2019 00:00:00 11.075 C 92.5833 % 9.92 C
2233 04-11-2019 01:00:00 11.025 C 90.9167 % 9.6 C
2234 04-11-2019 02:00:00 10.15833 C 92.5833 % 9.01 C
2235 04-11-2019 03:00:00 9.9 C 94.0000 % 8.98 C
2236 04-11-2019 04:00:00 10.18333 C 95.0000 % 9.42 C
2237 04-11-2019 05:00:00 10.38333 C 94.7500 % 9.58 C
2238 04-11-2019 06:00:00 9.79167 C 94.5000 % 8.95 C
2239 04-11-2019 07:00:00 9.26667 C 94.9167 % 8.5 C
2240 04-11-2019 08:00:00 9.5 C 95.5000 % 8.82 C
2241 04-11-2019 09:00:00 10.00833 C 93.9167 % 9.08 C
2242 04-11-2019 10:00:00 10.875 C 92.0833 % 9.64 C
2243 04-11-2019 11:00:00 10.91667 C 93.0000 % 9.83 C
2244 04-11-2019 12:00:00 11.25 C 93.0000 % 10.16 C
2245 04-11-2019 13:00:00 12.025 C 91.3333 % 10.66 C
2246 04-11-2019 14:00:00 12.58333 C 86.6667 % 10.42 C
2247 04-11-2019 15:00:00 12.625 C 84.5833 % 10.1 C
2248 04-11-2019 16:00:00 11.44167 C 88.0833 % 9.54 C
2249 04-11-2019 17:00:00 10.275 C 91.5833 % 8.97 C
2250 04-11-2019 18:00:00 9.60833 C 92.7500 % 8.49 C
Sensor: Nr:Datum:Temp:Feuchte:Taupunkt:
Aussen-T/F 2251 04-11-2019 19:00:00 9.18333 C 94.5000 % 8.35 C
2252 04-11-2019 20:00:00 9.5 C 95.6667 % 8.84 C
2253 04-11-2019 21:00:00 9.24167 C 95.8333 % 8.61 C
2254 04-11-2019 22:00:00 8.29167 C 95.7500 % 7.65 C
2255 04-11-2019 23:00:00 8.89167 C 96.8333 % 8.42 C
2256 05-11-2019 00:00:00 9.275 C 94.5833 % 8.45 C
2257 05-11-2019 01:00:00 9.14167 C 93.1667 % 8.1 C
2258 05-11-2019 02:00:00 9.225 C 93.2500 % 8.19 C
2259 05-11-2019 03:00:00 9.40833 C 91.4167 % 8.08 C
2260 05-11-2019 04:00:00 9.46667 C 89.5833 % 7.84 C
2261 05-11-2019 05:00:00 9.525 C 89.4167 % 7.87 C
2262 05-11-2019 06:00:00 9.25 C 90.7500 % 7.82 C
2263 05-11-2019 07:00:00 9.15833 C 91.0000 % 7.77 C
2264 05-11-2019 08:00:00 8.95833 C 91.8333 % 7.7 C
2265 05-11-2019 09:00:00 9.45833 C 89.7500 % 7.86 C
2266 05-11-2019 10:00:00 10.48333 C 86.0000 % 8.24 C
2267 05-11-2019 11:00:00 11.225 C 82.0000 % 8.27 C
2268 05-11-2019 12:00:00 11.83333 C 78.0000 % 8.13 C
2269 05-11-2019 13:00:00 11.89167 C 79.4167 % 8.45 C
2270 05-11-2019 14:00:00 12.06667 C 80.5833 % 8.83 C
2271 05-11-2019 15:00:00 11.875 C 82.1667 % 8.93 C
2272 05-11-2019 16:00:00 10.85833 C 86.9167 % 8.77 C
2273 05-11-2019 17:00:00 9.85833 C 90.8333 % 8.43 C
2274 05-11-2019 18:00:00 9.025 C 92.6667 % 7.9 C
2275 05-11-2019 19:00:00 8.54167 C 93.7500 % 7.59 C
Sensor: Nr:Datum:Temp:Feuchte:Taupunkt:
Aussen-T/F 2276 05-11-2019 20:00:00 8.425 C 94.3333 % 7.57 C
2277 05-11-2019 21:00:00 7.95833 C 94.9167 % 7.19 C
2278 05-11-2019 22:00:00 8.00833 C 95.2500 % 7.3 C
2279 05-11-2019 23:00:00 8.11667 C 96.0000 % 7.52 C
2280 06-11-2019 00:00:00 8.2 C 96.0000 % 7.6 C
2281 06-11-2019 01:00:00 8.2 C 96.0000 % 7.6 C
2282 06-11-2019 02:00:00 8.175 C 96.2500 % 7.61 C
2283 06-11-2019 03:00:00 7.79167 C 96.0000 % 7.19 C
2284 06-11-2019 04:00:00 7.45 C 96.5000 % 6.93 C
2285 06-11-2019 05:00:00 7.49167 C 97.0000 % 7.05 C
2286 06-11-2019 06:00:00 7.65 C 97.0000 % 7.2 C
2287 06-11-2019 07:00:00 7.65 C 97.0000 % 7.2 C
2288 06-11-2019 08:00:00 7.975 C 97.0000 % 7.53 C
2289 06-11-2019 09:00:00 8.81667 C 96.5833 % 8.3 C
2290 06-11-2019 10:00:00 9.68333 C 92.4167 % 8.51 C
2291 06-11-2019 11:00:00 10.15 C 91.8333 % 8.88 C
2292 06-11-2019 12:00:00 10.35 C 92.1667 % 9.14 C
2293 06-11-2019 13:00:00 10.6 C 90.5833 % 9.13 C
2294 06-11-2019 14:00:00 10.43333 C 91.4167 % 9.1 C
2295 06-11-2019 15:00:00 10.24167 C 93.3333 % 9.21 C
2296 06-11-2019 16:00:00 10 C 94.0833 % 9.09 C
2297 06-11-2019 17:00:00 9.68333 C 95.0000 % 8.92 C
2298 06-11-2019 18:00:00 9.6 C 95.7500 % 8.96 C
2299 06-11-2019 19:00:00 9.40833 C 96.0000 % 8.8 C
2300 06-11-2019 20:00:00 9.13333 C 96.0000 % 8.53 C
Sensor: Nr:Datum:Temp:Feuchte:Taupunkt:
Aussen-T/F 2301 06-11-2019 21:00:00 8.975 C 96.6667 % 8.47 C
2302 06-11-2019 22:00:00 8.9 C 96.1667 % 8.32 C
2303 06-11-2019 23:00:00 8.85833 C 97.0000 % 8.41 C
2304 07-11-2019 00:00:00 8.51667 C 97.0000 % 8.07 C
2305 07-11-2019 01:00:00 8.06667 C 97.0000 % 7.62 C
2306 07-11-2019 02:00:00 7.98333 C 97.0000 % 7.54 C
2307 07-11-2019 03:00:00 7.91667 C 97.0000 % 7.47 C
2308 07-11-2019 04:00:00 7.49167 C 97.0000 % 7.05 C
2309 07-11-2019 05:00:00 7.55 C 97.0000 % 7.11 C
2310 07-11-2019 06:00:00 7.375 C 97.0000 % 6.93 C
2311 07-11-2019 07:00:00 7.59167 C 97.4167 % 7.21 C
2312 07-11-2019 08:00:00 8.24167 C 98.0000 % 7.94 C
2313 07-11-2019 09:00:00 8.875 C 98.0000 % 8.58 C
2314 07-11-2019 10:00:00 9.29167 C 97.6667 % 8.94 C
2315 07-11-2019 11:00:00 9.39167 C 96.0833 % 8.8 C
2316 07-11-2019 12:00:00 9.31667 C 94.7500 % 8.52 C
2317 07-11-2019 13:00:00 9.625 C 93.1667 % 8.58 C
2318 07-11-2019 14:00:00 9.375 C 92.4167 % 8.21 C
2319 07-11-2019 15:00:00 9.76667 C 93.3333 % 8.74 C
2320 07-11-2019 16:00:00 9.65 C 89.6667 % 8.04 C
2321 07-11-2019 17:00:00 8.55833 C 90.1667 % 7.04 C
2322 07-11-2019 18:00:00 7.24167 C 91.7500 % 5.99 C
2323 07-11-2019 19:00:00 6.76667 C 94.4167 % 5.93 C
2324 07-11-2019 20:00:00 6.18333 C 94.7500 % 5.41 C
2325 07-11-2019 21:00:00 5.65833 C 95.4167 % 4.98 C
Sensor: Nr:Datum:Temp:Feuchte:Taupunkt:
Aussen-T/F 2326 07-11-2019 22:00:00 5.00833 C 95.7500 % 4.39 C
2327 07-11-2019 23:00:00 5.025 C 96.3333 % 4.49 C
2328 08-11-2019 00:00:00 4.675 C 96.0000 % 4.09 C
2329 08-11-2019 01:00:00 4.24167 C 96.0000 % 3.66 C
2330 08-11-2019 02:00:00 3.28333 C 96.0000 % 2.71 C
2331 08-11-2019 03:00:00 3.1 C 96.6667 % 2.62 C
2332 08-11-2019 04:00:00 2.75833 C 96.7500 % 2.29 C
2333 08-11-2019 05:00:00 2.34167 C 97.0000 % 1.92 C
2334 08-11-2019 06:00:00 2.31667 C 97.0000 % 1.89 C
2335 08-11-2019 07:00:00 2.35 C 97.0000 % 1.92 C
2336 08-11-2019 08:00:00 3.05 C 97.4167 % 2.68 C
2337 08-11-2019 09:00:00 3.78333 C 97.4167 % 3.41 C
2338 08-11-2019 10:00:00 4.43333 C 97.8333 % 4.12 C
2339 08-11-2019 11:00:00 5.15833 C 98.0000 % 4.87 C
2340 08-11-2019 12:00:00 6 C 98.0000 % 5.71 C
2341 08-11-2019 13:00:00 6.8 C 97.3333 % 6.41 C
2342 08-11-2019 14:00:00 7.44167 C 95.6667 % 6.8 C
2343 08-11-2019 15:00:00 7.73333 C 94.9167 % 6.97 C
2344 08-11-2019 16:00:00 7.61667 C 94.6667 % 6.82 C
2345 08-11-2019 17:00:00 6.85833 C 95.0000 % 6.11 C
2346 08-11-2019 18:00:00 6.65 C 95.8333 % 6.03 C
2347 08-11-2019 19:00:00 6.475 C 96.0000 % 5.88 C
2348 08-11-2019 20:00:00 6.21667 C 96.0000 % 5.63 C
2349 08-11-2019 21:00:00 5.7 C 96.0000 % 5.11 C
2350 08-11-2019 22:00:00 5.39167 C 97.0000 % 4.95 C
Sensor: Nr:Datum:Temp:Feuchte:Taupunkt:
Aussen-T/F 2351 08-11-2019 23:00:00 5.49167 C 97.0000 % 5.05 C
2352 09-11-2019 00:00:00 5.34167 C 97.0000 % 4.9 C
2353 09-11-2019 01:00:00 5.15833 C 97.0000 % 4.72 C
2354 09-11-2019 02:00:00 5.1 C 97.0000 % 4.66 C
2355 09-11-2019 03:00:00 5.125 C 97.0000 % 4.69 C
2356 09-11-2019 04:00:00 4.96667 C 97.0000 % 4.53 C
2357 09-11-2019 05:00:00 4.78333 C 97.1667 % 4.37 C
2358 09-11-2019 06:00:00 4.45 C 96.4167 % 3.93 C
2359 09-11-2019 07:00:00 3.44167 C 96.0000 % 2.87 C
2360 09-11-2019 08:00:00 3.29167 C 96.6667 % 2.81 C
2361 09-11-2019 09:00:00 4.53333 C 96.6667 % 4.05 C
2362 09-11-2019 10:00:00 5.65833 C 92.3333 % 4.51 C
2363 09-11-2019 11:00:00 5.91667 C 90.9167 % 4.55 C
2364 09-11-2019 12:00:00 6.375 C 89.5833 % 4.79 C
2365 09-11-2019 13:00:00 7.04167 C 87.0000 % 5.03 C
2366 09-11-2019 14:00:00 6.93333 C 87.7500 % 5.05 C
2367 09-11-2019 15:00:00 6.68333 C 90.5833 % 5.26 C
2368 09-11-2019 16:00:00 6.56667 C 92.0833 % 5.38 C
2369 09-11-2019 17:00:00 6.175 C 93.0000 % 5.13 C
2370 09-11-2019 18:00:00 5.375 C 93.0833 % 4.35 C
2371 09-11-2019 19:00:00 4.875 C 94.1667 % 4.02 C
2372 09-11-2019 20:00:00 4.03333 C 93.1667 % 3.03 C
2373 09-11-2019 21:00:00 3.25833 C 94.6667 % 2.49 C
2374 09-11-2019 22:00:00 2.725 C 95.2500 % 2.04 C
2375 09-11-2019 23:00:00 1.99167 C 95.0000 % 1.28 C
Sensor: Nr:Datum:Temp:Feuchte:Taupunkt:
Aussen-T/F 2376 10-11-2019 00:00:00 1.25833 C 95.6667 % 0.64 C
2377 10-11-2019 01:00:00 1.31667 C 96.4167 % 0.81 C
2378 10-11-2019 02:00:00 1.65833 C 96.5833 % 1.17 C
2379 10-11-2019 03:00:00 1.59167 C 97.0000 % 1.17 C
2380 10-11-2019 04:00:00 1.28333 C 97.0000 % 0.86 C
2381 10-11-2019 05:00:00 1.38333 C 97.0000 % 0.96 C
2382 10-11-2019 06:00:00 1.70833 C 97.0000 % 1.28 C
2383 10-11-2019 07:00:00 1.61667 C 97.0000 % 1.19 C
2384 10-11-2019 08:00:00 1.81667 C 97.4167 % 1.45 C
2385 10-11-2019 09:00:00 2.25 C 97.6667 % 1.92 C
2386 10-11-2019 10:00:00 2.66667 C 98.0000 % 2.38 C
2387 10-11-2019 11:00:00 3.2 C 98.0000 % 2.92 C
2388 10-11-2019 12:00:00 3.4 C 96.8333 % 2.95 C
2389 10-11-2019 13:00:00 3.86667 C 95.0833 % 3.15 C
2390 10-11-2019 14:00:00 4.29167 C 93.4167 % 3.33 C
2391 10-11-2019 15:00:00 4.65833 C 92.8333 % 3.6 C
2392 10-11-2019 16:00:00 4.58333 C 92.0000 % 3.4 C
2393 10-11-2019 17:00:00 4.35833 C 93.0000 % 3.33 C
2394 10-11-2019 18:00:00 4.275 C 93.7500 % 3.36 C
2395 10-11-2019 19:00:00 4.15 C 94.0833 % 3.29 C
2396 10-11-2019 20:00:00 4.25 C 95.0000 % 3.52 C
2397 10-11-2019 21:00:00 4.3 C 95.0000 % 3.57 C
2398 10-11-2019 22:00:00 4.275 C 95.0000 % 3.55 C
2399 10-11-2019 23:00:00 4.36667 C 94.2500 % 3.53 C
2400 11-11-2019 00:00:00 4.25833 C 93.1667 % 3.25 C
Sensor: Nr:Datum:Temp:Feuchte:Taupunkt:
Aussen-T/F 2401 11-11-2019 01:00:00 3.85 C 92.8333 % 2.8 C
2402 11-11-2019 02:00:00 3.58333 C 93.0000 % 2.56 C
2403 11-11-2019 03:00:00 3.30833 C 93.0000 % 2.29 C
2404 11-11-2019 04:00:00 3.14167 C 93.0000 % 2.12 C
2405 11-11-2019 05:00:00 3.23333 C 93.4167 % 2.28 C
2406 11-11-2019 06:00:00 3.3 C 93.3333 % 2.33 C
2407 11-11-2019 07:00:00 3.39167 C 94.0000 % 2.52 C
2408 11-11-2019 08:00:00 4.16667 C 92.8333 % 3.11 C
2409 11-11-2019 09:00:00 4.98333 C 90.2500 % 3.52 C
2410 11-11-2019 10:00:00 5.24167 C 89.0833 % 3.59 C
2411 11-11-2019 11:00:00 5.54167 C 88.2500 % 3.76 C
2412 11-11-2019 12:00:00 6.025 C 86.9167 % 4.02 C
2413 11-11-2019 13:00:00 6.425 C 86.0000 % 4.26 C
2414 11-11-2019 14:00:00 6.11667 C 86.5000 % 4.04 C
2415 11-11-2019 15:00:00 5.61667 C 88.7500 % 3.91 C
2416 11-11-2019 16:00:00 5.25833 C 89.9167 % 3.74 C
2417 11-11-2019 17:00:00 5.09167 C 90.0000 % 3.59 C
2418 11-11-2019 18:00:00 4.85833 C 90.6667 % 3.46 C
2419 11-11-2019 19:00:00 4.83333 C 92.5833 % 3.74 C
2420 11-11-2019 20:00:00 4.8 C 94.0000 % 3.92 C
2421 11-11-2019 21:00:00 4.975 C 95.0000 % 4.24 C
2422 11-11-2019 22:00:00 5.13333 C 95.0000 % 4.4 C
2423 11-11-2019 23:00:00 5.18333 C 95.9167 % 4.59 C
2424 12-11-2019 00:00:00 5.05 C 95.8333 % 4.44 C
2425 12-11-2019 01:00:00 5.05 C 95.9167 % 4.45 C
Sensor: Nr:Datum:Temp:Feuchte:Taupunkt:
Aussen-T/F 2426 12-11-2019 02:00:00 5.375 C 94.0833 % 4.5 C
2427 12-11-2019 03:00:00 5.475 C 92.3333 % 4.33 C
2428 12-11-2019 04:00:00 5.6 C 91.1667 % 4.28 C
2429 12-11-2019 05:00:00 5.45833 C 91.5000 % 4.19 C
2430 12-11-2019 06:00:00 5.375 C 91.9167 % 4.17 C
2431 12-11-2019 07:00:00 5.7 C 89.7500 % 4.15 C
2432 12-11-2019 08:00:00 5.88333 C 89.0833 % 4.23 C
2433 12-11-2019 09:00:00 6.58333 C 86.5833 % 4.51 C
2434 12-11-2019 10:00:00 7.66667 C 82.5833 % 4.9 C
2435 12-11-2019 11:00:00 8.03333 C 81.9167 % 5.14 C
2436 12-11-2019 12:00:00 7.91667 C 83.7500 % 5.34 C
2437 12-11-2019 13:00:00 7.73333 C 82.0833 % 4.87 C
2438 12-11-2019 14:00:00 7.76667 C 80.4167 % 4.61 C
2439 12-11-2019 15:00:00 7.75833 C 80.1667 % 4.56 C
2440 12-11-2019 16:00:00 7.31667 C 81.0000 % 4.28 C
2441 12-11-2019 17:00:00 6.60833 C 82.5000 % 3.85 C
2442 12-11-2019 18:00:00 5.85 C 87.1667 % 3.88 C
2443 12-11-2019 19:00:00 4.65833 C 89.2500 % 3.04 C
2444 12-11-2019 20:00:00 3.29167 C 91.5000 % 2.04 C
2445 12-11-2019 21:00:00 3.23333 C 93.5833 % 2.3 C
2446 12-11-2019 22:00:00 3.85 C 94.4167 % 3.04 C
2447 12-11-2019 23:00:00 4.66667 C 91.1667 % 3.35 C
2448 13-11-2019 00:00:00 4.89167 C 88.5833 % 3.17 C
2449 13-11-2019 01:00:00 4.65833 C 89.0000 % 3 C
2450 13-11-2019 02:00:00 3.33333 C 90.7500 % 1.97 C
Sensor: Nr:Datum:Temp:Feuchte:Taupunkt:
Aussen-T/F 2451 13-11-2019 03:00:00 4.14167 C 89.6667 % 2.6 C
2452 13-11-2019 04:00:00 4.48333 C 88.6667 % 2.78 C
2453 13-11-2019 05:00:00 4.53333 C 89.0833 % 2.89 C
2454 13-11-2019 06:00:00 4.50833 C 89.5833 % 2.95 C
2455 13-11-2019 07:00:00 4.16667 C 90.5833 % 2.77 C
2456 13-11-2019 08:00:00 4.58333 C 90.5833 % 3.18 C
2457 13-11-2019 09:00:00 5.43333 C 88.5000 % 3.69 C
2458 13-11-2019 10:00:00 6.01667 C 86.2500 % 3.9 C
2459 13-11-2019 11:00:00 6.30833 C 85.9167 % 4.13 C
2460 13-11-2019 12:00:00 6.81667 C 84.4167 % 4.38 C
2461 13-11-2019 13:00:00 6.775 C 84.3333 % 4.32 C
2462 13-11-2019 14:00:00 6.65 C 85.5000 % 4.4 C
2463 13-11-2019 15:00:00 6.69167 C 85.8333 % 4.49 C
2464 13-11-2019 16:00:00 6.6 C 86.4167 % 4.5 C
2465 13-11-2019 17:00:00 6.41667 C 87.0000 % 4.41 C
2466 13-11-2019 18:00:00 6.35 C 87.6667 % 4.46 C
2467 13-11-2019 19:00:00 6.225 C 88.5833 % 4.48 C
2468 13-11-2019 20:00:00 6.26667 C 88.1667 % 4.46 C
2469 13-11-2019 21:00:00 5.9 C 89.3333 % 4.28 C
2470 13-11-2019 22:00:00 5.025 C 90.8333 % 3.66 C
2471 13-11-2019 23:00:00 4.60833 C 91.9167 % 3.41 C
2472 14-11-2019 00:00:00 4.95 C 93.3333 % 3.97 C
2473 14-11-2019 01:00:00 4.81667 C 92.7500 % 3.74 C
2474 14-11-2019 02:00:00 4.8 C 94.2500 % 3.96 C
2475 14-11-2019 03:00:00 5.425 C 93.8333 % 4.51 C
Sensor: Nr:Datum:Temp:Feuchte:Taupunkt:
Aussen-T/F 2476 14-11-2019 04:00:00 5.69167 C 92.2500 % 4.53 C
2477 14-11-2019 05:00:00 4.84167 C 93.1667 % 3.83 C
2478 14-11-2019 06:00:00 4.70833 C 94.1667 % 3.85 C
2479 14-11-2019 07:00:00 5.25833 C 91.1667 % 3.94 C
2480 14-11-2019 08:00:00 5.28333 C 89.1667 % 3.65 C
2481 14-11-2019 09:00:00 5.64167 C 87.5000 % 3.73 C
2482 14-11-2019 10:00:00 6.68333 C 83.3333 % 4.06 C
2483 14-11-2019 11:00:00 7.86667 C 76.4167 % 3.98 C
2484 14-11-2019 12:00:00 8.725 C 70.2500 % 3.62 C
2485 14-11-2019 13:00:00 8.68333 C 70.2500 % 3.58 C
2486 14-11-2019 14:00:00 9.01667 C 67.7500 % 3.38 C
2487 14-11-2019 15:00:00 8.2 C 73.6667 % 3.79 C
2488 14-11-2019 16:00:00 6.66667 C 79.7500 % 3.42 C
2489 14-11-2019 17:00:00 4.96667 C 83.5000 % 2.41 C
2490 14-11-2019 18:00:00 4.48333 C 85.2500 % 2.23 C
2491 14-11-2019 19:00:00 3.86667 C 86.5833 % 1.84 C
2492 14-11-2019 20:00:00 3.45 C 88.8333 % 1.79 C
2493 14-11-2019 21:00:00 2.86667 C 90.3333 % 1.44 C
2494 14-11-2019 22:00:00 2.55833 C 92.1667 % 1.42 C
2495 14-11-2019 23:00:00 2.725 C 93.2500 % 1.75 C
2496 15-11-2019 00:00:00 2.975 C 93.9167 % 2.09 C
2497 15-11-2019 01:00:00 3.43333 C 93.6667 % 2.51 C
2498 15-11-2019 02:00:00 3.43333 C 93.0000 % 2.41 C
2499 15-11-2019 03:00:00 3.4 C 92.2500 % 2.26 C
2500 15-11-2019 04:00:00 3.36667 C 91.6667 % 2.14 C
Sensor: Nr:Datum:Temp:Feuchte:Taupunkt:
Aussen-T/F 2501 15-11-2019 05:00:00 3.53333 C 90.1667 % 2.08 C
2502 15-11-2019 06:00:00 3.89167 C 87.9167 % 2.08 C
2503 15-11-2019 07:00:00 3.88333 C 87.5000 % 2 C
2504 15-11-2019 08:00:00 4.05833 C 87.5000 % 2.17 C
2505 15-11-2019 09:00:00 4.275 C 87.5833 % 2.4 C
2506 15-11-2019 10:00:00 5.38333 C 83.5000 % 2.82 C
2507 15-11-2019 11:00:00 5.86667 C 81.7500 % 2.99 C
2508 15-11-2019 12:00:00 6.55 C 80.8333 % 3.5 C
2509 15-11-2019 13:00:00 7.05 C 80.5833 % 3.94 C
2510 15-11-2019 14:00:00 7.68333 C 79.2500 % 4.32 C
2511 15-11-2019 15:00:00 7.875 C 78.6667 % 4.41 C
2512 15-11-2019 16:00:00 6.54167 C 82.7500 % 3.83 C
2513 15-11-2019 17:00:00 4.75833 C 88.7500 % 3.06 C
2514 15-11-2019 18:00:00 4.63333 C 90.6667 % 3.24 C
2515 15-11-2019 19:00:00 4.50833 C 91.5000 % 3.25 C
2516 15-11-2019 20:00:00 4.2 C 92.0833 % 3.03 C
2517 15-11-2019 21:00:00 4.05 C 93.0000 % 3.02 C
2518 15-11-2019 22:00:00 3.70833 C 93.1667 % 2.71 C
2519 15-11-2019 23:00:00 3.49167 C 93.9167 % 2.61 C
2520 16-11-2019 00:00:00 3.30833 C 94.0833 % 2.45 C
2521 16-11-2019 01:00:00 3.225 C 94.9167 % 2.49 C
2522 16-11-2019 02:00:00 3.11667 C 94.9167 % 2.38 C
2523 16-11-2019 03:00:00 2.63333 C 94.8333 % 1.89 C
2524 16-11-2019 04:00:00 1.85 C 94.5833 % 1.08 C
2525 16-11-2019 05:00:00 0.85 C 95.0000 % 0.14 C
Sensor: Nr:Datum:Temp:Feuchte:Taupunkt:
Aussen-T/F 2526 16-11-2019 06:00:00 0.08333 C 95.0000 % -0.62 C
2527 16-11-2019 07:00:00 -0.30833 C 95.3333 % -0.96 C
2528 16-11-2019 08:00:00 0.24167 C 96.0000 % -0.32 C
2529 16-11-2019 09:00:00 0.31667 C 96.3333 % -0.2 C
2530 16-11-2019 10:00:00 0.74167 C 97.0000 % 0.32 C
2531 16-11-2019 11:00:00 1.425 C 97.0000 % 1 C
2532 16-11-2019 12:00:00 2.25833 C 97.0000 % 1.83 C
2533 16-11-2019 13:00:00 3.375 C 97.0000 % 2.95 C
2534 16-11-2019 14:00:00 4.20833 C 97.0000 % 3.78 C
2535 16-11-2019 15:00:00 4.66667 C 96.0833 % 4.1 C
2536 16-11-2019 16:00:00 4.58333 C 93.5000 % 3.63 C
2537 16-11-2019 17:00:00 3.94167 C 93.5000 % 2.99 C
2538 16-11-2019 18:00:00 3.20833 C 94.5833 % 2.42 C
2539 16-11-2019 19:00:00 2.55833 C 95.0000 % 1.84 C
2540 16-11-2019 20:00:00 1.94167 C 95.5833 % 1.31 C
2541 16-11-2019 21:00:00 1.55833 C 95.9167 % 0.98 C
2542 16-11-2019 22:00:00 0.79167 C 96.0000 % 0.23 C
2543 16-11-2019 23:00:00 0.15833 C 96.0000 % -0.4 C
2544 17-11-2019 00:00:00 -0.3 C 96.0000 % -0.86 C
2545 17-11-2019 01:00:00 -0.69167 C 96.0833 % -1.24 C
2546 17-11-2019 02:00:00 -0.11667 C 96.8333 % -0.56 C
2547 17-11-2019 03:00:00 0.8 C 97.0000 % 0.38 C
2548 17-11-2019 04:00:00 1.475 C 97.0000 % 1.05 C
2549 17-11-2019 05:00:00 1.65833 C 97.0000 % 1.23 C
2550 17-11-2019 06:00:00 1.7 C 97.0000 % 1.28 C
Sensor: Nr:Datum:Temp:Feuchte:Taupunkt:
Aussen-T/F 2551 17-11-2019 07:00:00 1.825 C 97.0000 % 1.4 C
2552 17-11-2019 08:00:00 1.96667 C 97.0000 % 1.54 C
2553 17-11-2019 09:00:00 2.475 C 97.2500 % 2.08 C
2554 17-11-2019 10:00:00 3.15 C 98.0000 % 2.87 C
2555 17-11-2019 11:00:00 3.91667 C 98.0000 % 3.63 C
2556 17-11-2019 12:00:00 4.31667 C 98.0000 % 4.03 C
2557 17-11-2019 13:00:00 4.90833 C 98.0000 % 4.62 C
2558 17-11-2019 14:00:00 5.1 C 97.7500 % 4.77 C
2559 17-11-2019 15:00:00 4.88333 C 97.0000 % 4.45 C
2560 17-11-2019 16:00:00 4.65 C 97.0000 % 4.22 C
2561 17-11-2019 17:00:00 4.43333 C 97.0000 % 4 C
2562 17-11-2019 18:00:00 4.63333 C 97.0000 % 4.2 C
2563 17-11-2019 19:00:00 4.7 C 97.0000 % 4.27 C
2564 17-11-2019 20:00:00 4.71667 C 97.0000 % 4.28 C
2565 17-11-2019 21:00:00 4.7 C 97.0000 % 4.27 C
2566 17-11-2019 22:00:00 4.7 C 97.0000 % 4.27 C
2567 17-11-2019 23:00:00 4.625 C 97.0000 % 4.19 C
2568 18-11-2019 00:00:00 4.375 C 97.0000 % 3.94 C
2569 18-11-2019 01:00:00 4.2 C 97.0000 % 3.77 C
2570 18-11-2019 02:00:00 4.2 C 97.0000 % 3.77 C
2571 18-11-2019 03:00:00 4.2 C 97.0000 % 3.77 C
2572 18-11-2019 04:00:00 4.2 C 97.0000 % 3.77 C
2573 18-11-2019 05:00:00 4.175 C 97.0000 % 3.74 C
2574 18-11-2019 06:00:00 4.1 C 97.0000 % 3.67 C
2575 18-11-2019 07:00:00 4.08333 C 97.0000 % 3.65 C
Sensor: Nr:Datum:Temp:Feuchte:Taupunkt:
Aussen-T/F 2576 18-11-2019 08:00:00 4.14167 C 97.0000 % 3.71 C
2577 18-11-2019 09:00:00 4.40833 C 97.0833 % 3.99 C
2578 18-11-2019 10:00:00 4.86667 C 97.6667 % 4.53 C
2579 18-11-2019 11:00:00 5.025 C 97.0000 % 4.59 C
2580 18-11-2019 12:00:00 5.30833 C 96.6667 % 4.82 C
2581 18-11-2019 13:00:00 5.33333 C 96.0000 % 4.75 C
2582 18-11-2019 14:00:00 5.35833 C 95.3333 % 4.67 C
2583 18-11-2019 15:00:00 5.19167 C 95.0000 % 4.46 C
2584 18-11-2019 16:00:00 4.86667 C 95.0000 % 4.13 C
2585 18-11-2019 17:00:00 4.78333 C 95.0000 % 4.05 C
2586 18-11-2019 18:00:00 4.65833 C 95.0000 % 3.93 C
2587 18-11-2019 19:00:00 4.08333 C 95.0000 % 3.36 C
2588 18-11-2019 20:00:00 3.23333 C 95.0000 % 2.51 C
2589 18-11-2019 21:00:00 2.55833 C 95.5000 % 1.91 C
2590 18-11-2019 22:00:00 2.88333 C 96.0000 % 2.31 C
2591 18-11-2019 23:00:00 3.25 C 96.0000 % 2.67 C
2592 19-11-2019 00:00:00 3.7 C 96.0000 % 3.12 C
2593 19-11-2019 01:00:00 4.01667 C 96.0000 % 3.44 C
2594 19-11-2019 02:00:00 4.2 C 96.0000 % 3.62 C
2595 19-11-2019 03:00:00 4.25833 C 96.0000 % 3.68 C
2596 19-11-2019 04:00:00 4.325 C 96.0000 % 3.74 C
2597 19-11-2019 05:00:00 3.475 C 95.7500 % 2.86 C
2598 19-11-2019 06:00:00 2.85 C 96.1667 % 2.3 C
2599 19-11-2019 07:00:00 2.93333 C 96.6667 % 2.46 C
2600 19-11-2019 08:00:00 3.18333 C 97.0000 % 2.75 C
Sensor: Nr:Datum:Temp:Feuchte:Taupunkt:
Aussen-T/F 2601 19-11-2019 09:00:00 4.025 C 96.8333 % 3.57 C
2602 19-11-2019 10:00:00 4.00833 C 96.5833 % 3.52 C
2603 19-11-2019 11:00:00 4.65833 C 96.9167 % 4.21 C
2604 19-11-2019 12:00:00 6.175 C 91.5000 % 4.9 C
2605 19-11-2019 13:00:00 6.35 C 88.2500 % 4.55 C
2606 19-11-2019 14:00:00 6.63333 C 86.9167 % 4.61 C
2607 19-11-2019 15:00:00 6.55 C 90.0000 % 5.03 C
2608 19-11-2019 16:00:00 5.54167 C 92.6667 % 4.45 C
2609 19-11-2019 17:00:00 4.175 C 93.6667 % 3.25 C
2610 19-11-2019 18:00:00 3.325 C 95.0000 % 2.6 C
2611 19-11-2019 19:00:00 2.74167 C 95.0833 % 2.03 C
2612 19-11-2019 20:00:00 2.3 C 96.1667 % 1.75 C
2613 19-11-2019 21:00:00 2.80833 C 96.6667 % 2.33 C
2614 19-11-2019 22:00:00 2.45 C 96.1667 % 1.9 C
2615 19-11-2019 23:00:00 1.10833 C 96.0000 % 0.54 C
2616 20-11-2019 00:00:00 0.60833 C 96.0000 % 0.05 C
2617 20-11-2019 01:00:00 0.23333 C 96.0000 % -0.33 C
2618 20-11-2019 02:00:00 0.35833 C 97.0000 % -0.06 C
2619 20-11-2019 03:00:00 0.55833 C 97.0000 % 0.14 C
2620 20-11-2019 04:00:00 0.39167 C 97.0000 % -0.03 C
2621 20-11-2019 05:00:00 0.675 C 97.0000 % 0.25 C
2622 20-11-2019 06:00:00 0.75833 C 97.0000 % 0.34 C
2623 20-11-2019 07:00:00 1.01667 C 97.0000 % 0.6 C
2624 20-11-2019 08:00:00 1.275 C 97.4167 % 0.91 C
2625 20-11-2019 09:00:00 1.85 C 98.0000 % 1.57 C
Sensor: Nr:Datum:Temp:Feuchte:Taupunkt:
Aussen-T/F 2626 20-11-2019 10:00:00 2.61667 C 98.0000 % 2.33 C
2627 20-11-2019 11:00:00 3.025 C 97.6667 % 2.69 C
2628 20-11-2019 12:00:00 4.16667 C 96.7500 % 3.7 C
2629 20-11-2019 13:00:00 4.9 C 90.2500 % 3.44 C
2630 20-11-2019 14:00:00 5.275 C 86.3333 % 3.18 C
2631 20-11-2019 15:00:00 5.225 C 85.0833 % 2.93 C
2632 20-11-2019 16:00:00 3.54167 C 88.4167 % 1.81 C
2633 20-11-2019 17:00:00 2.34167 C 92.2500 % 1.22 C
2634 20-11-2019 18:00:00 1.31667 C 93.5833 % 0.4 C
2635 20-11-2019 19:00:00 0.4 C 94.3333 % -0.4 C
2636 20-11-2019 20:00:00 -0.19167 C 95.0000 % -0.89 C
2637 20-11-2019 21:00:00 -0.59167 C 95.5833 % -1.21 C
2638 20-11-2019 22:00:00 -0.85 C 96.0000 % -1.41 C
2639 20-11-2019 23:00:00 -0.6 C 96.1667 % -1.13 C
2640 21-11-2019 00:00:00 -0.6 C 96.3333 % -1.11 C
2641 21-11-2019 01:00:00 -1.19167 C 96.0000 % -1.75 C
2642 21-11-2019 02:00:00 -1.4 C 96.0833 % -1.94 C
2643 21-11-2019 03:00:00 -1.23333 C 96.8333 % -1.67 C
2644 21-11-2019 04:00:00 -0.40833 C 97.0000 % -0.83 C
2645 21-11-2019 05:00:00 0.16667 C 97.0000 % -0.25 C
2646 21-11-2019 06:00:00 0.65 C 97.0000 % 0.23 C
2647 21-11-2019 07:00:00 0.775 C 97.0000 % 0.35 C
2648 21-11-2019 08:00:00 0.85 C 97.0000 % 0.43 C
2649 21-11-2019 09:00:00 1.225 C 97.0000 % 0.8 C
2650 21-11-2019 10:00:00 1.775 C 97.0000 % 1.35 C
Sensor: Nr:Datum:Temp:Feuchte:Taupunkt:
Aussen-T/F 2651 21-11-2019 11:00:00 2.53333 C 97.0000 % 2.11 C
2652 21-11-2019 12:00:00 2.925 C 96.0833 % 2.36 C
2653 21-11-2019 13:00:00 3.6 C 95.6667 % 2.97 C
2654 21-11-2019 14:00:00 4.33333 C 94.3333 % 3.51 C
2655 21-11-2019 15:00:00 4.78333 C 93.9167 % 3.89 C
2656 21-11-2019 16:00:00 4.975 C 94.0000 % 4.09 C
2657 21-11-2019 17:00:00 4.48333 C 94.8333 % 3.73 C
2658 21-11-2019 18:00:00 4.18333 C 95.0833 % 3.47 C
2659 21-11-2019 19:00:00 3.975 C 95.5000 % 3.32 C
2660 21-11-2019 20:00:00 3.10833 C 95.1667 % 2.41 C
2661 21-11-2019 21:00:00 2.35 C 96.0000 % 1.78 C
2662 21-11-2019 22:00:00 1.89167 C 96.0000 % 1.32 C
2663 21-11-2019 23:00:00 2.05 C 97.0000 % 1.62 C
2664 22-11-2019 00:00:00 2.24167 C 97.0000 % 1.82 C
2665 22-11-2019 01:00:00 2 C 97.0000 % 1.58 C
2666 22-11-2019 02:00:00 1.6 C 96.9167 % 1.16 C
2667 22-11-2019 03:00:00 1.725 C 97.0000 % 1.3 C
2668 22-11-2019 04:00:00 2.11667 C 97.0000 % 1.69 C
2669 22-11-2019 05:00:00 2.69167 C 97.5000 % 2.34 C
2670 22-11-2019 06:00:00 3.55833 C 98.0000 % 3.27 C
2671 22-11-2019 07:00:00 3.99167 C 98.0000 % 3.7 C
2672 22-11-2019 08:00:00 4.55833 C 98.0000 % 4.27 C
2673 22-11-2019 09:00:00 4.65833 C 97.5000 % 4.3 C
2674 22-11-2019 10:00:00 4.50833 C 97.1667 % 4.1 C
2675 22-11-2019 11:00:00 5.18333 C 97.1667 % 4.77 C
Sensor: Nr:Datum:Temp:Feuchte:Taupunkt:
Aussen-T/F 2676 22-11-2019 12:00:00 5.7 C 96.3333 % 5.16 C
2677 22-11-2019 13:00:00 5.88333 C 94.2500 % 5.03 C
2678 22-11-2019 14:00:00 6.06667 C 93.0000 % 5.02 C
2679 22-11-2019 15:00:00 6.16667 C 92.0000 % 4.97 C
2680 22-11-2019 16:00:00 5.90833 C 92.2500 % 4.75 C
2681 22-11-2019 17:00:00 5.73333 C 93.3333 % 4.74 C
2682 22-11-2019 18:00:00 5.63333 C 93.7500 % 4.71 C
2683 22-11-2019 19:00:00 5.49167 C 93.2500 % 4.49 C
2684 22-11-2019 20:00:00 5.275 C 92.9167 % 4.22 C
2685 22-11-2019 21:00:00 5.08333 C 93.0000 % 4.05 C
2686 22-11-2019 22:00:00 4.88333 C 92.6667 % 3.8 C
2687 22-11-2019 23:00:00 4.725 C 92.3333 % 3.59 C
2688 23-11-2019 00:00:00 4.725 C 92.2500 % 3.58 C
2689 23-11-2019 01:00:00 4.83333 C 91.5833 % 3.58 C
2690 23-11-2019 02:00:00 4.775 C 91.5833 % 3.52 C
2691 23-11-2019 03:00:00 4.425 C 92.9167 % 3.38 C
2692 23-11-2019 04:00:00 4 C 93.6667 % 3.07 C
2693 23-11-2019 05:00:00 3.69167 C 94.6667 % 2.92 C
2694 23-11-2019 06:00:00 3.68333 C 95.4167 % 3.02 C
2695 23-11-2019 07:00:00 3.94167 C 96.0000 % 3.36 C
2696 23-11-2019 08:00:00 4.15 C 96.0833 % 3.58 C
2697 23-11-2019 09:00:00 5.00833 C 95.9167 % 4.41 C
2698 23-11-2019 10:00:00 6.15833 C 92.0833 % 4.97 C
2699 23-11-2019 11:00:00 7.225 C 87.8333 % 5.35 C
2700 23-11-2019 12:00:00 7.35833 C 90.0000 % 5.83 C
Sensor: Nr:Datum:Temp:Feuchte:Taupunkt:
Aussen-T/F 2701 23-11-2019 13:00:00 7.65 C 90.0000 % 6.12 C
2702 23-11-2019 14:00:00 7.53333 C 92.0833 % 6.33 C
2703 23-11-2019 15:00:00 8.36667 C 88.9167 % 6.65 C
2704 23-11-2019 16:00:00 7.625 C 88.5833 % 5.86 C
2705 23-11-2019 17:00:00 6.25833 C 92.2500 % 5.1 C
2706 23-11-2019 18:00:00 5.76667 C 93.7500 % 4.84 C
2707 23-11-2019 19:00:00 5.56667 C 94.8333 % 4.81 C
2708 23-11-2019 20:00:00 5.00833 C 95.0000 % 4.28 C
2709 23-11-2019 21:00:00 4.41667 C 95.0833 % 3.7 C
2710 23-11-2019 22:00:00 3.85833 C 95.9167 % 3.27 C
2711 23-11-2019 23:00:00 3.28333 C 96.0000 % 2.71 C
2712 24-11-2019 00:00:00 2.8 C 96.0000 % 2.23 C
2713 24-11-2019 01:00:00 2.38333 C 96.2500 % 1.85 C
2714 24-11-2019 02:00:00 2.16667 C 97.0000 % 1.74 C
2715 24-11-2019 03:00:00 2.1 C 97.0000 % 1.67 C
2716 24-11-2019 04:00:00 1.7 C 97.0000 % 1.28 C
2717 24-11-2019 05:00:00 1.825 C 97.0000 % 1.4 C
2718 24-11-2019 06:00:00 1.48333 C 97.0000 % 1.06 C
2719 24-11-2019 07:00:00 1.14167 C 97.0000 % 0.72 C
2720 24-11-2019 08:00:00 1.15 C 97.0000 % 0.73 C
2721 24-11-2019 09:00:00 1.525 C 97.1667 % 1.13 C
2722 24-11-2019 10:00:00 2.25833 C 97.9167 % 1.96 C
2723 24-11-2019 11:00:00 3.01667 C 98.0000 % 2.73 C
2724 24-11-2019 12:00:00 3.81667 C 98.0000 % 3.53 C
2725 24-11-2019 13:00:00 4.81667 C 98.0000 % 4.53 C
Sensor: Nr:Datum:Temp:Feuchte:Taupunkt:
Aussen-T/F 2726 24-11-2019 14:00:00 5.39167 C 98.0000 % 5.1 C
2727 24-11-2019 15:00:00 5.39167 C 98.0000 % 5.1 C
2728 24-11-2019 16:00:00 4.71667 C 97.0833 % 4.29 C
2729 24-11-2019 17:00:00 3.95 C 97.0000 % 3.52 C
2730 24-11-2019 18:00:00 3.625 C 97.0000 % 3.19 C
2731 24-11-2019 19:00:00 3.55 C 97.0000 % 3.12 C
2732 24-11-2019 20:00:00 3.21667 C 97.0000 % 2.79 C
2733 24-11-2019 21:00:00 3 C 97.0833 % 2.58 C
2734 24-11-2019 22:00:00 2.48333 C 97.0833 % 2.07 C
2735 24-11-2019 23:00:00 2.11667 C 97.1667 % 1.72 C
2736 25-11-2019 00:00:00 2.06667 C 97.3333 % 1.69 C
2737 25-11-2019 01:00:00 2.41667 C 98.0000 % 2.13 C
2738 25-11-2019 02:00:00 2.26667 C 98.0000 % 1.98 C
2739 25-11-2019 03:00:00 2.40833 C 98.0000 % 2.13 C
2740 25-11-2019 04:00:00 2.7 C 98.0000 % 2.42 C
2741 25-11-2019 05:00:00 3.06667 C 98.0000 % 2.78 C
2742 25-11-2019 06:00:00 3.31667 C 98.0000 % 3.03 C
2743 25-11-2019 07:00:00 3.575 C 98.0000 % 3.29 C
2744 25-11-2019 08:00:00 3.80833 C 98.0000 % 3.52 C
2745 25-11-2019 09:00:00 4.26667 C 98.0000 % 3.98 C
2746 25-11-2019 10:00:00 4.73333 C 98.0000 % 4.44 C
2747 25-11-2019 11:00:00 5.41667 C 98.0000 % 5.13 C
2748 25-11-2019 12:00:00 6.05 C 97.9167 % 5.75 C
2749 25-11-2019 13:00:00 6.675 C 96.8333 % 6.21 C
2750 25-11-2019 14:00:00 7.08333 C 96.0000 % 6.49 C
Sensor: Nr:Datum:Temp:Feuchte:Taupunkt:
Aussen-T/F 2751 25-11-2019 15:00:00 7.225 C 95.0833 % 6.49 C
2752 25-11-2019 16:00:00 7.15833 C 95.6667 % 6.51 C
2753 25-11-2019 17:00:00 6.8 C 96.0000 % 6.21 C
2754 25-11-2019 18:00:00 6.68333 C 96.0000 % 6.09 C
2755 25-11-2019 19:00:00 6.19167 C 96.0000 % 5.6 C
2756 25-11-2019 20:00:00 6.125 C 97.0000 % 5.69 C
2757 25-11-2019 21:00:00 5.86667 C 96.5000 % 5.35 C
2758 25-11-2019 22:00:00 5.21667 C 96.1667 % 4.66 C
2759 25-11-2019 23:00:00 4.28333 C 96.0000 % 3.7 C
2760 26-11-2019 00:00:00 3.66667 C 96.8333 % 3.21 C
2761 26-11-2019 01:00:00 4.225 C 97.0000 % 3.79 C
2762 26-11-2019 02:00:00 4.71667 C 97.4167 % 4.34 C
2763 26-11-2019 03:00:00 5.25833 C 97.7500 % 4.93 C
2764 26-11-2019 04:00:00 5.88333 C 98.0000 % 5.59 C
2765 26-11-2019 05:00:00 6.50833 C 98.0000 % 6.22 C
2766 26-11-2019 06:00:00 6.75833 C 98.0000 % 6.47 C
2767 26-11-2019 07:00:00 7.25 C 98.0000 % 6.96 C
2768 26-11-2019 08:00:00 7.45833 C 98.0000 % 7.16 C
2769 26-11-2019 09:00:00 8.05833 C 98.0000 % 7.76 C
2770 26-11-2019 10:00:00 9.175 C 96.6667 % 8.67 C
2771 26-11-2019 11:00:00 10.38333 C 92.5000 % 9.22 C
2772 26-11-2019 12:00:00 10.98333 C 90.7500 % 9.53 C
2773 26-11-2019 13:00:00 11.175 C 90.1667 % 9.63 C
2774 26-11-2019 14:00:00 11.10833 C 91.1667 % 9.72 C
2775 26-11-2019 15:00:00 11.24167 C 90.2500 % 9.7 C
Sensor: Nr:Datum:Temp:Feuchte:Taupunkt:
Aussen-T/F 2776 26-11-2019 16:00:00 10.69167 C 91.3333 % 9.34 C
2777 26-11-2019 17:00:00 10.01667 C 92.3333 % 8.83 C
2778 26-11-2019 18:00:00 9.73333 C 93.8333 % 8.79 C
2779 26-11-2019 19:00:00 10.16667 C 92.5000 % 9.01 C
2780 26-11-2019 20:00:00 9.75 C 91.6667 % 8.46 C
2781 26-11-2019 21:00:00 9.15 C 94.6667 % 8.34 C
2782 26-11-2019 22:00:00 9.225 C 94.2500 % 8.35 C
2783 26-11-2019 23:00:00 8.66667 C 94.9167 % 7.9 C
2784 27-11-2019 00:00:00 8.46667 C 95.5833 % 7.8 C
2785 27-11-2019 01:00:00 8.38333 C 95.8333 % 7.76 C
2786 27-11-2019 02:00:00 8.73333 C 96.4167 % 8.2 C
2787 27-11-2019 03:00:00 8.21667 C 96.0833 % 7.63 C
2788 27-11-2019 04:00:00 8.25833 C 97.0000 % 7.81 C
2789 27-11-2019 05:00:00 8.39167 C 96.0833 % 7.8 C
2790 27-11-2019 06:00:00 8.64167 C 95.3333 % 7.94 C
2791 27-11-2019 07:00:00 8.725 C 95.5833 % 8.06 C
2792 27-11-2019 08:00:00 9.13333 C 95.0000 % 8.38 C
2793 27-11-2019 09:00:00 9.60833 C 95.0000 % 8.85 C
2794 27-11-2019 10:00:00 10.00833 C 94.7500 % 9.21 C
2795 27-11-2019 11:00:00 11.66667 C 85.4167 % 9.31 C
2796 27-11-2019 12:00:00 12.65 C 79.0833 % 9.12 C
2797 27-11-2019 13:00:00 12.775 C 77.4167 % 8.93 C
2798 27-11-2019 14:00:00 12.96667 C 76.2500 % 8.89 C
2799 27-11-2019 15:00:00 12.8 C 76.4167 % 8.76 C
2800 27-11-2019 16:00:00 11.73333 C 83.6667 % 9.06 C
Sensor: Nr:Datum:Temp:Feuchte:Taupunkt:
Aussen-T/F 2801 27-11-2019 17:00:00 10.73333 C 90.3333 % 9.22 C
2802 27-11-2019 18:00:00 10.70833 C 91.2500 % 9.34 C
2803 27-11-2019 19:00:00 10.75 C 91.8333 % 9.48 C
2804 27-11-2019 20:00:00 11.26667 C 87.8333 % 9.33 C
2805 27-11-2019 21:00:00 10.76667 C 91.4167 % 9.43 C
2806 27-11-2019 22:00:00 11.29167 C 86.9167 % 9.2 C
2807 27-11-2019 23:00:00 11.6 C 82.8333 % 8.79 C
2808 28-11-2019 00:00:00 11.575 C 81.5833 % 8.54 C
2809 28-11-2019 01:00:00 11.61667 C 81.0000 % 8.47 C
2810 28-11-2019 02:00:00 11.20833 C 82.4167 % 8.33 C
2811 28-11-2019 03:00:00 11.05 C 80.0833 % 7.75 C
2812 28-11-2019 04:00:00 10.96667 C 79.4167 % 7.55 C
2813 28-11-2019 05:00:00 10.66667 C 81.1667 % 7.57 C
2814 28-11-2019 06:00:00 10.66667 C 83.0000 % 7.9 C
2815 28-11-2019 07:00:00 10.60833 C 81.6667 % 7.61 C
2816 28-11-2019 08:00:00 10.58333 C 81.4167 % 7.54 C
2817 28-11-2019 09:00:00 11.025 C 80.0833 % 7.73 C
2818 28-11-2019 10:00:00 11.58333 C 77.5833 % 7.81 C
2819 28-11-2019 11:00:00 11.95833 C 77.4167 % 8.14 C
2820 28-11-2019 12:00:00 11.49167 C 82.5833 % 8.63 C
2821 28-11-2019 13:00:00 11.7 C 82.8333 % 8.88 C
2822 28-11-2019 14:00:00 11.45 C 83.2500 % 8.71 C
2823 28-11-2019 15:00:00 11.16667 C 83.6667 % 8.51 C
2824 28-11-2019 16:00:00 10.83333 C 85.0000 % 8.42 C
2825 28-11-2019 17:00:00 10.41667 C 88.6667 % 8.63 C
Sensor: Nr:Datum:Temp:Feuchte:Taupunkt:
Aussen-T/F 2826 28-11-2019 18:00:00 10.43333 C 87.5833 % 8.46 C
2827 28-11-2019 19:00:00 10.41667 C 87.5000 % 8.43 C
2828 28-11-2019 20:00:00 10.31667 C 88.7500 % 8.54 C
2829 28-11-2019 21:00:00 10.33333 C 88.5000 % 8.52 C
2830 28-11-2019 22:00:00 10.19167 C 89.7500 % 8.59 C
2831 28-11-2019 23:00:00 10.00833 C 90.7500 % 8.57 C
2832 29-11-2019 00:00:00 9.44167 C 93.6667 % 8.47 C
2833 29-11-2019 01:00:00 9.05 C 94.5000 % 8.22 C
2834 29-11-2019 02:00:00 8.825 C 95.2500 % 8.11 C
2835 29-11-2019 03:00:00 8.58333 C 95.9167 % 7.97 C
2836 29-11-2019 04:00:00 8.21667 C 95.9167 % 7.6 C
2837 29-11-2019 05:00:00 7.15 C 93.8333 % 6.23 C
2838 29-11-2019 06:00:00 6.79167 C 94.9167 % 6.04 C
2839 29-11-2019 07:00:00 6.38333 C 94.1667 % 5.52 C
2840 29-11-2019 08:00:00 5.95833 C 95.0000 % 5.22 C
2841 29-11-2019 09:00:00 5.525 C 95.0000 % 4.79 C
2842 29-11-2019 10:00:00 5.73333 C 93.8333 % 4.82 C
2843 29-11-2019 11:00:00 6.45833 C 90.3333 % 4.99 C
2844 29-11-2019 12:00:00 7.34167 C 84.0000 % 4.82 C
2845 29-11-2019 13:00:00 6.99167 C 83.3333 % 4.37 C
2846 29-11-2019 14:00:00 7.49167 C 76.4167 % 3.62 C
2847 29-11-2019 15:00:00 7.675 C 73.1667 % 3.18 C
2848 29-11-2019 16:00:00 6.63333 C 77.9167 % 3.06 C
2849 29-11-2019 17:00:00 4.95833 C 84.5000 % 2.57 C
2850 29-11-2019 18:00:00 4.88333 C 86.9167 % 2.89 C
Sensor: Nr:Datum:Temp:Feuchte:Taupunkt:
Aussen-T/F 2851 29-11-2019 19:00:00 5.13333 C 85.0000 % 2.82 C
2852 29-11-2019 20:00:00 4.80833 C 86.4167 % 2.74 C
2853 29-11-2019 21:00:00 4.55833 C 87.8333 % 2.72 C
2854 29-11-2019 22:00:00 3.55 C 90.0000 % 2.07 C
2855 29-11-2019 23:00:00 2.56667 C 92.4167 % 1.46 C
2856 30-11-2019 00:00:00 2.60833 C 94.0000 % 1.74 C
2857 30-11-2019 01:00:00 1.975 C 94.0000 % 1.11 C
2858 30-11-2019 02:00:00 1.725 C 94.9167 % 1 C
2859 30-11-2019 03:00:00 1.51667 C 95.0000 % 0.8 C
2860 30-11-2019 04:00:00 1.93333 C 95.6667 % 1.32 C
2861 30-11-2019 05:00:00 1.35 C 95.0000 % 0.64 C
2862 30-11-2019 06:00:00 0.18333 C 95.0000 % -0.52 C
2863 30-11-2019 07:00:00 -0.19167 C 95.5833 % -0.81 C
2864 30-11-2019 08:00:00 0.14167 C 96.0000 % -0.42 C
2865 30-11-2019 09:00:00 0.18333 C 96.0833 % -0.37 C
2866 30-11-2019 10:00:00 0.55 C 97.0000 % 0.13 C
2867 30-11-2019 11:00:00 0.89167 C 97.0000 % 0.47 C
2868 30-11-2019 12:00:00 1.35 C 97.0000 % 0.93 C
2869 30-11-2019 13:00:00 2.11667 C 97.0000 % 1.69 C
2870 30-11-2019 14:00:00 2.26667 C 97.0000 % 1.84 C
2871 30-11-2019 15:00:00 2.19167 C 97.0000 % 1.77 C
2872 30-11-2019 16:00:00 1.99167 C 97.0000 % 1.57 C
2873 30-11-2019 17:00:00 1.525 C 97.0000 % 1.1 C
2874 30-11-2019 18:00:00 1.05833 C 97.0000 % 0.64 C
2875 30-11-2019 19:00:00 0.79167 C 97.0000 % 0.37 C
Sensor: Nr:Datum:Temp:Feuchte:Taupunkt:
Aussen-T/F 2876 30-11-2019 20:00:00 0.65 C 97.0000 % 0.23 C
2877 30-11-2019 21:00:00 0.58333 C 97.0000 % 0.16 C
2878 30-11-2019 22:00:00 0.66667 C 97.0833 % 0.26 C
2879 30-11-2019 23:00:00 0.63333 C 97.0833 % 0.23 C
2880 01-12-2019 00:00:00 0.6 C 97.2500 % 0.22 C
2881 01-12-2019 01:00:00 0.75833 C 98.0000 % 0.48 C
2882 01-12-2019 02:00:00 0.63333 C 97.7500 % 0.32 C
2883 01-12-2019 03:00:00 0.5 C 97.0000 % 0.08 C
2884 01-12-2019 04:00:00 0.10833 C 97.4167 % -0.25 C
2885 01-12-2019 05:00:00 0.1 C 98.0000 % -0.18 C
2886 01-12-2019 06:00:00 -0.025 C 97.4167 % -0.38 C
2887 01-12-2019 07:00:00 0.35 C 98.0000 % 0.07 C
2888 01-12-2019 08:00:00 0.70833 C 98.0000 % 0.43 C
2889 01-12-2019 09:00:00 0.84167 C 98.0000 % 0.56 C
2890 01-12-2019 10:00:00 1.275 C 98.0000 % 0.99 C
2891 01-12-2019 11:00:00 2.1 C 98.0000 % 1.82 C
2892 01-12-2019 12:00:00 2.975 C 92.3333 % 1.86 C
2893 01-12-2019 13:00:00 3.75833 C 83.7500 % 1.27 C
2894 01-12-2019 14:00:00 4.20833 C 79.2500 % 0.94 C
2895 01-12-2019 15:00:00 3.98333 C 83.9167 % 1.52 C
2896 01-12-2019 16:00:00 3.16667 C 86.6667 % 1.16 C
2897 01-12-2019 17:00:00 2.81667 C 88.5833 % 1.12 C
2898 01-12-2019 18:00:00 2.8 C 88.5000 % 1.09 C
2899 01-12-2019 19:00:00 2.86667 C 88.2500 % 1.12 C
2900 01-12-2019 20:00:00 2.725 C 88.0833 % 0.95 C
Sensor: Nr:Datum:Temp:Feuchte:Taupunkt:
Aussen-T/F 2901 01-12-2019 21:00:00 2.45 C 88.2500 % 0.71 C
2902 01-12-2019 22:00:00 1.99167 C 89.1667 % 0.4 C
2903 01-12-2019 23:00:00 1.33333 C 90.3333 % -0.07 C
2904 02-12-2019 00:00:00 0.775 C 92.0000 % -0.37 C
2905 02-12-2019 01:00:00 0.63333 C 93.0000 % -0.36 C
2906 02-12-2019 02:00:00 0.09167 C 93.0000 % -0.9 C
2907 02-12-2019 03:00:00 -0.36667 C 93.4167 % -1.3 C
2908 02-12-2019 04:00:00 -0.44167 C 94.5000 % -1.21 C
2909 02-12-2019 05:00:00 -0.35 C 94.8333 % -1.08 C
2910 02-12-2019 06:00:00 -0.6 C 95.0000 % -1.3 C
2911 02-12-2019 07:00:00 -1.15833 C 94.8333 % -1.88 C
2912 02-12-2019 08:00:00 -0.65 C 95.6667 % -1.25 C
2913 02-12-2019 09:00:00 0.26667 C 95.4167 % -0.38 C
2914 02-12-2019 10:00:00 0.85 C 94.2500 % 0.03 C
2915 02-12-2019 11:00:00 1.58333 C 92.4167 % 0.49 C
2916 02-12-2019 12:00:00 2.78333 C 90.5833 % 1.4 C
2917 02-12-2019 13:00:00 3.95 C 87.4167 % 2.06 C
2918 02-12-2019 14:00:00 4.725 C 88.5833 % 3 C
2919 02-12-2019 15:00:00 5.19167 C 88.9167 % 3.52 C
2920 02-12-2019 16:00:00 4.675 C 92.0833 % 3.5 C
2921 02-12-2019 17:00:00 4.20833 C 93.0000 % 3.18 C
2922 02-12-2019 18:00:00 3.875 C 93.3333 % 2.9 C
2923 02-12-2019 19:00:00 3.425 C 94.5000 % 2.63 C
2924 02-12-2019 20:00:00 3.7 C 95.0000 % 2.98 C
2925 02-12-2019 21:00:00 3.63333 C 95.0000 % 2.91 C
Sensor: Nr:Datum:Temp:Feuchte:Taupunkt:
Aussen-T/F 2926 02-12-2019 22:00:00 3.475 C 95.9167 % 2.89 C
2927 02-12-2019 23:00:00 3.4 C 96.0000 % 2.82 C
2928 03-12-2019 00:00:00 3.40833 C 96.0000 % 2.83 C
2929 03-12-2019 01:00:00 3.55833 C 96.0000 % 2.98 C
2930 03-12-2019 02:00:00 3.71667 C 96.0000 % 3.14 C
2931 03-12-2019 03:00:00 3.8 C 96.3333 % 3.27 C
2932 03-12-2019 04:00:00 3.89167 C 96.8333 % 3.44 C
2933 03-12-2019 05:00:00 4.01667 C 97.0000 % 3.58 C
2934 03-12-2019 06:00:00 4.1 C 97.0000 % 3.67 C
2935 03-12-2019 07:00:00 4.19167 C 97.0000 % 3.76 C
2936 03-12-2019 08:00:00 4.23333 C 97.0000 % 3.8 C
2937 03-12-2019 09:00:00 4.35 C 97.0000 % 3.92 C
2938 03-12-2019 10:00:00 4.61667 C 97.0000 % 4.18 C
2939 03-12-2019 11:00:00 5.11667 C 97.0000 % 4.68 C
2940 03-12-2019 12:00:00 5.6 C 97.0000 % 5.16 C
2941 03-12-2019 13:00:00 6.06667 C 96.0000 % 5.48 C
2942 03-12-2019 14:00:00 6.51667 C 95.0000 % 5.77 C
2943 03-12-2019 15:00:00 6.675 C 94.0000 % 5.78 C
2944 03-12-2019 16:00:00 6.46667 C 94.5000 % 5.65 C
2945 03-12-2019 17:00:00 5.98333 C 95.0000 % 5.24 C
2946 03-12-2019 18:00:00 5.56667 C 95.1667 % 4.86 C
2947 03-12-2019 19:00:00 5.29167 C 95.5833 % 4.64 C
2948 03-12-2019 20:00:00 4.93333 C 95.7500 % 4.31 C
2949 03-12-2019 21:00:00 4.6 C 95.8333 % 3.99 C
2950 03-12-2019 22:00:00 4.00833 C 95.7500 % 3.39 C
Sensor: Nr:Datum:Temp:Feuchte:Taupunkt:
Aussen-T/F 2951 03-12-2019 23:00:00 3.46667 C 95.7500 % 2.85 C
2952 04-12-2019 00:00:00 2.41667 C 95.0833 % 1.71 C
2953 04-12-2019 01:00:00 1.24167 C 95.5000 % 0.6 C
2954 04-12-2019 02:00:00 0.90833 C 96.0000 % 0.34 C
2955 04-12-2019 03:00:00 1.64167 C 97.0000 % 1.22 C
2956 04-12-2019 04:00:00 1.74167 C 97.0000 % 1.32 C
2957 04-12-2019 05:00:00 1.74167 C 97.0000 % 1.32 C
2958 04-12-2019 06:00:00 1.93333 C 97.0000 % 1.51 C
2959 04-12-2019 07:00:00 1.81667 C 97.0000 % 1.39 C
2960 04-12-2019 08:00:00 1.725 C 97.0000 % 1.3 C
2961 04-12-2019 09:00:00 1.8 C 97.0000 % 1.38 C
2962 04-12-2019 10:00:00 1.83333 C 97.0000 % 1.41 C
2963 04-12-2019 11:00:00 1.83333 C 96.9167 % 1.4 C
2964 04-12-2019 12:00:00 2.15 C 97.0000 % 1.72 C
2965 04-12-2019 13:00:00 2.51667 C 97.0000 % 2.09 C
2966 04-12-2019 14:00:00 2.825 C 96.5833 % 2.34 C
2967 04-12-2019 15:00:00 2.58333 C 96.0000 % 2.01 C
2968 04-12-2019 16:00:00 2.025 C 95.5000 % 1.38 C
2969 04-12-2019 17:00:00 1.43333 C 95.7500 % 0.83 C
2970 04-12-2019 18:00:00 1.10833 C 95.7500 % 0.51 C
2971 04-12-2019 19:00:00 0.41667 C 95.7500 % -0.18 C
2972 04-12-2019 20:00:00 -0.08333 C 96.0000 % -0.64 C
2973 04-12-2019 21:00:00 -0.58333 C 96.0000 % -1.14 C
2974 04-12-2019 22:00:00 -1.23333 C 96.0000 % -1.79 C
2975 04-12-2019 23:00:00 -1.54167 C 96.0000 % -2.09 C
Sensor: Nr:Datum:Temp:Feuchte:Taupunkt:
Aussen-T/F 2976 05-12-2019 00:00:00 -1.775 C 96.0000 % -2.33 C
2977 05-12-2019 01:00:00 -1.78333 C 96.5833 % -2.25 C
2978 05-12-2019 02:00:00 -1.86667 C 96.7500 % -2.31 C
2979 05-12-2019 03:00:00 -2.225 C 96.5000 % -2.71 C
2980 05-12-2019 04:00:00 -1.84167 C 97.0000 % -2.25 C
2981 05-12-2019 05:00:00 -1.75833 C 97.0000 % -2.17 C
2982 05-12-2019 06:00:00 -1.83333 C 97.0000 % -2.25 C
2983 05-12-2019 07:00:00 -2.03333 C 97.0000 % -2.44 C
2984 05-12-2019 08:00:00 -2.075 C 97.0000 % -2.49 C
2985 05-12-2019 09:00:00 -1.81667 C 97.0000 % -2.23 C
2986 05-12-2019 10:00:00 -1.575 C 97.0000 % -1.99 C
2987 05-12-2019 11:00:00 -0.94167 C 97.0000 % -1.36 C
2988 05-12-2019 12:00:00 -0.44167 C 97.0000 % -0.86 C
2989 05-12-2019 13:00:00 0 C 97.0000 % -0.42 C
2990 05-12-2019 14:00:00 0.6 C 97.0000 % 0.18 C
2991 05-12-2019 15:00:00 0.675 C 97.0000 % 0.25 C
2992 05-12-2019 16:00:00 0.29167 C 97.0000 % -0.13 C
2993 05-12-2019 17:00:00 -0.225 C 97.0000 % -0.64 C
2994 05-12-2019 18:00:00 -0.825 C 97.0000 % -1.24 C
2995 05-12-2019 19:00:00 -1.25833 C 97.0000 % -1.67 C
2996 05-12-2019 20:00:00 -0.65833 C 97.1667 % -1.05 C
2997 05-12-2019 21:00:00 -1.16667 C 97.0000 % -1.58 C
2998 05-12-2019 22:00:00 -1.39167 C 97.0000 % -1.81 C
2999 05-12-2019 23:00:00 -1.825 C 97.0000 % -2.24 C
3000 06-12-2019 00:00:00 -2.28333 C 97.0000 % -2.69 C
Sensor: Nr:Datum:Temp:Feuchte:Taupunkt:
Aussen-T/F 3001 06-12-2019 01:00:00 -1.125 C 97.2500 % -1.5 C
3002 06-12-2019 02:00:00 -0.575 C 97.0000 % -0.99 C
3003 06-12-2019 03:00:00 -0.225 C 96.5000 % -0.71 C
3004 06-12-2019 04:00:00 -0.10833 C 95.5833 % -0.73 C
3005 06-12-2019 05:00:00 0.13333 C 95.0000 % -0.57 C
3006 06-12-2019 06:00:00 0.36667 C 94.5000 % -0.41 C
3007 06-12-2019 07:00:00 0.725 C 94.0000 % -0.13 C
3008 06-12-2019 08:00:00 1.31667 C 92.2500 % 0.2 C
3009 06-12-2019 09:00:00 1.89167 C 92.6667 % 0.83 C
3010 06-12-2019 10:00:00 2.65 C 93.5833 % 1.72 C
3011 06-12-2019 11:00:00 3.86667 C 94.0000 % 2.99 C
3012 06-12-2019 12:00:00 4.7 C 93.5833 % 3.76 C
3013 06-12-2019 13:00:00 4.95833 C 95.0000 % 4.23 C
3014 06-12-2019 14:00:00 5.25833 C 95.0000 % 4.52 C
3015 06-12-2019 15:00:00 5.44167 C 95.0000 % 4.71 C
3016 06-12-2019 16:00:00 5.95833 C 93.5833 % 5 C
3017 06-12-2019 17:00:00 6.225 C 90.9167 % 4.85 C
3018 06-12-2019 18:00:00 6.65 C 90.0000 % 5.13 C
3019 06-12-2019 19:00:00 6.91667 C 90.1667 % 5.42 C
3020 06-12-2019 20:00:00 7.28333 C 89.0000 % 5.59 C
3021 06-12-2019 21:00:00 7.19167 C 89.4167 % 5.57 C
3022 06-12-2019 22:00:00 7.25 C 89.2500 % 5.6 C
3023 06-12-2019 23:00:00 7.44167 C 89.3333 % 5.8 C
3024 07-12-2019 00:00:00 7.65 C 90.0000 % 6.12 C
3025 07-12-2019 01:00:00 8.09167 C 90.0833 % 6.57 C
Sensor: Nr:Datum:Temp:Feuchte:Taupunkt:
Aussen-T/F 3026 07-12-2019 02:00:00 8.14167 C 92.2500 % 6.96 C
3027 07-12-2019 03:00:00 8.68333 C 91.4167 % 7.37 C
3028 07-12-2019 04:00:00 8.85833 C 89.3333 % 7.2 C
3029 07-12-2019 05:00:00 8.40833 C 91.1667 % 7.05 C
3030 07-12-2019 06:00:00 8.46667 C 88.1667 % 6.62 C
3031 07-12-2019 07:00:00 7.675 C 89.6667 % 6.09 C
3032 07-12-2019 08:00:00 8.35 C 89.8333 % 6.78 C
3033 07-12-2019 09:00:00 8.70833 C 89.8333 % 7.14 C
3034 07-12-2019 10:00:00 9.19167 C 88.0000 % 7.31 C
3035 07-12-2019 11:00:00 9.38333 C 89.8333 % 7.8 C
3036 07-12-2019 12:00:00 9.5 C 86.5000 % 7.36 C
3037 07-12-2019 13:00:00 10.025 C 82.4167 % 7.17 C
3038 07-12-2019 14:00:00 10.15 C 82.1667 % 7.25 C
3039 07-12-2019 15:00:00 10.06667 C 83.0000 % 7.32 C
3040 07-12-2019 16:00:00 9.39167 C 85.5833 % 7.1 C
3041 07-12-2019 17:00:00 8.74167 C 88.5833 % 6.96 C
3042 07-12-2019 18:00:00 8.40833 C 89.3333 % 6.76 C
3043 07-12-2019 19:00:00 8.25 C 91.0000 % 6.87 C
3044 07-12-2019 20:00:00 8.01667 C 91.0000 % 6.64 C
3045 07-12-2019 21:00:00 8.26667 C 90.4167 % 6.79 C
3046 07-12-2019 22:00:00 8.39167 C 90.0000 % 6.85 C
3047 07-12-2019 23:00:00 8.2 C 91.3333 % 6.87 C
3048 08-12-2019 00:00:00 8.9 C 85.7500 % 6.65 C
3049 08-12-2019 01:00:00 9.15833 C 84.7500 % 6.73 C
3050 08-12-2019 02:00:00 9.44167 C 80.5833 % 6.28 C
Sensor: Nr:Datum:Temp:Feuchte:Taupunkt:
Aussen-T/F 3051 08-12-2019 03:00:00 9.55 C 80.5833 % 6.38 C
3052 08-12-2019 04:00:00 9.91667 C 82.4167 % 7.07 C
3053 08-12-2019 05:00:00 9.89167 C 84.4167 % 7.39 C
3054 08-12-2019 06:00:00 10.08333 C 84.7500 % 7.64 C
3055 08-12-2019 07:00:00 10.425 C 83.4167 % 7.74 C
3056 08-12-2019 08:00:00 10.56667 C 83.6667 % 7.92 C
3057 08-12-2019 09:00:00 10.65 C 84.4167 % 8.13 C
3058 08-12-2019 10:00:00 10.75833 C 85.6667 % 8.46 C
3059 08-12-2019 11:00:00 11.01667 C 85.3333 % 8.65 C
3060 08-12-2019 12:00:00 11.54167 C 84.9167 % 9.1 C
3061 08-12-2019 13:00:00 11.70833 C 86.5000 % 9.53 C
3062 08-12-2019 14:00:00 11.9 C 87.0000 % 9.81 C
3063 08-12-2019 15:00:00 12.09167 C 87.0000 % 10 C
3064 08-12-2019 16:00:00 11.79167 C 88.0833 % 9.89 C
3065 08-12-2019 17:00:00 9.35 C 91.7500 % 8.08 C
3066 08-12-2019 18:00:00 8.775 C 92.6667 % 7.65 C
3067 08-12-2019 19:00:00 8.75 C 90.7500 % 7.32 C
3068 08-12-2019 20:00:00 8.48333 C 91.2500 % 7.14 C
3069 08-12-2019 21:00:00 8.83333 C 87.0000 % 6.79 C
3070 08-12-2019 22:00:00 8.80833 C 87.1667 % 6.79 C
3071 08-12-2019 23:00:00 9.025 C 84.7500 % 6.6 C
3072 09-12-2019 00:00:00 8.75833 C 82.5000 % 5.95 C
3073 09-12-2019 01:00:00 8.575 C 81.0833 % 5.52 C
3074 09-12-2019 02:00:00 7.975 C 82.9167 % 5.26 C
3075 09-12-2019 03:00:00 7.95833 C 82.4167 % 5.15 C
Sensor: Nr:Datum:Temp:Feuchte:Taupunkt:
Aussen-T/F 3076 09-12-2019 04:00:00 8.15 C 82.8333 % 5.41 C
3077 09-12-2019 05:00:00 7.85833 C 79.8333 % 4.6 C
3078 09-12-2019 06:00:00 7.99167 C 80.0833 % 4.77 C
3079 09-12-2019 07:00:00 8.04167 C 82.4167 % 5.23 C
3080 09-12-2019 08:00:00 8.26667 C 81.1667 % 5.23 C
3081 09-12-2019 09:00:00 8.20833 C 83.5833 % 5.6 C
3082 09-12-2019 10:00:00 8.30833 C 84.2500 % 5.81 C
3083 09-12-2019 11:00:00 8.54167 C 82.7500 % 5.78 C
3084 09-12-2019 12:00:00 8.5 C 83.0833 % 5.8 C
3085 09-12-2019 13:00:00 8.63333 C 83.2500 % 5.96 C
3086 09-12-2019 14:00:00 8.85 C 81.4167 % 5.85 C
3087 09-12-2019 15:00:00 8.15 C 84.8333 % 5.76 C
3088 09-12-2019 16:00:00 7.75833 C 83.0833 % 5.07 C
3089 09-12-2019 17:00:00 7.425 C 86.5000 % 5.32 C
3090 09-12-2019 18:00:00 6.84167 C 90.9167 % 5.46 C
3091 09-12-2019 19:00:00 6.58333 C 92.5000 % 5.46 C
3092 09-12-2019 20:00:00 6.575 C 91.3333 % 5.27 C
3093 09-12-2019 21:00:00 6.24167 C 90.4167 % 4.79 C
3094 09-12-2019 22:00:00 5.75 C 88.9167 % 4.07 C
3095 09-12-2019 23:00:00 5.39167 C 87.9167 % 3.55 C
3096 10-12-2019 00:00:00 4.79167 C 87.3333 % 2.87 C
3097 10-12-2019 01:00:00 3.8 C 89.5000 % 2.24 C
3098 10-12-2019 02:00:00 3.38333 C 89.9167 % 1.89 C
3099 10-12-2019 03:00:00 2.64167 C 92.5833 % 1.56 C
3100 10-12-2019 04:00:00 2.025 C 93.5833 % 1.1 C
Sensor: Nr:Datum:Temp:Feuchte:Taupunkt:
Aussen-T/F 3101 10-12-2019 05:00:00 2.275 C 94.5000 % 1.49 C
3102 10-12-2019 06:00:00 2.05833 C 94.0000 % 1.2 C
3103 10-12-2019 07:00:00 2.075 C 94.5000 % 1.29 C
3104 10-12-2019 08:00:00 1.56667 C 94.5000 % 0.78 C
3105 10-12-2019 09:00:00 1.95833 C 95.0000 % 1.24 C
3106 10-12-2019 10:00:00 3.13333 C 93.6667 % 2.21 C
3107 10-12-2019 11:00:00 3.35833 C 93.0000 % 2.34 C
3108 10-12-2019 12:00:00 4.475 C 89.7500 % 2.94 C
3109 10-12-2019 13:00:00 5.21667 C 87.5833 % 3.33 C
3110 10-12-2019 14:00:00 5.00833 C 87.1667 % 3.06 C
3111 10-12-2019 15:00:00 4.13333 C 89.0000 % 2.49 C
3112 10-12-2019 16:00:00 3.84167 C 88.6667 % 2.15 C
3113 10-12-2019 17:00:00 3.675 C 85.9167 % 1.54 C
3114 10-12-2019 18:00:00 2.98333 C 88.5000 % 1.27 C
3115 10-12-2019 19:00:00 2.44167 C 91.4167 % 1.19 C
3116 10-12-2019 20:00:00 3.10833 C 90.3333 % 1.68 C
3117 10-12-2019 21:00:00 3.18333 C 90.0000 % 1.71 C
3118 10-12-2019 22:00:00 3.08333 C 91.3333 % 1.81 C
3119 10-12-2019 23:00:00 3.725 C 90.2500 % 2.28 C
3120 11-12-2019 00:00:00 4.05833 C 88.6667 % 2.36 C
3121 11-12-2019 01:00:00 4.275 C 87.4167 % 2.37 C
3122 11-12-2019 02:00:00 4.08333 C 89.5833 % 2.53 C
3123 11-12-2019 03:00:00 4.08333 C 90.2500 % 2.63 C
3124 11-12-2019 04:00:00 3.81667 C 92.0000 % 2.64 C
3125 11-12-2019 05:00:00 3.69167 C 93.6667 % 2.77 C
Sensor: Nr:Datum:Temp:Feuchte:Taupunkt:
Aussen-T/F 3126 11-12-2019 06:00:00 3.425 C 94.9167 % 2.69 C
3127 11-12-2019 07:00:00 3.33333 C 95.0000 % 2.61 C
3128 11-12-2019 08:00:00 3.25833 C 95.6667 % 2.63 C
3129 11-12-2019 09:00:00 3.26667 C 96.0000 % 2.69 C
3130 11-12-2019 10:00:00 3.54167 C 96.0000 % 2.97 C
3131 11-12-2019 11:00:00 3.75833 C 96.0000 % 3.18 C
3132 11-12-2019 12:00:00 3.9 C 96.0000 % 3.32 C
3133 11-12-2019 13:00:00 3.93333 C 96.0000 % 3.36 C
3134 11-12-2019 14:00:00 4.09167 C 96.0000 % 3.51 C
3135 11-12-2019 15:00:00 4.2 C 96.0000 % 3.62 C
3136 11-12-2019 16:00:00 4.11667 C 96.0833 % 3.55 C
3137 11-12-2019 17:00:00 3.91667 C 96.0000 % 3.34 C
3138 11-12-2019 18:00:00 4.13333 C 96.9167 % 3.69 C
3139 11-12-2019 19:00:00 4.35 C 97.0000 % 3.92 C
3140 11-12-2019 20:00:00 4.60833 C 97.0000 % 4.17 C
3141 11-12-2019 21:00:00 4.75833 C 97.0000 % 4.32 C
3142 11-12-2019 22:00:00 4.525 C 96.5000 % 4.02 C
3143 11-12-2019 23:00:00 4.225 C 96.2500 % 3.68 C
3144 12-12-2019 00:00:00 3.69167 C 96.4167 % 3.18 C
3145 12-12-2019 01:00:00 3.36667 C 96.8333 % 2.91 C
3146 12-12-2019 02:00:00 2.83333 C 96.9167 % 2.39 C
3147 12-12-2019 03:00:00 3.29167 C 97.0000 % 2.86 C
3148 12-12-2019 04:00:00 3.69167 C 97.0000 % 3.26 C
3149 12-12-2019 05:00:00 3.175 C 97.0000 % 2.75 C
3150 12-12-2019 06:00:00 2.95 C 97.0000 % 2.52 C
Sensor: Nr:Datum:Temp:Feuchte:Taupunkt:
Aussen-T/F 3151 12-12-2019 07:00:00 3.75 C 97.5833 % 3.4 C
3152 12-12-2019 08:00:00 4.025 C 97.5000 % 3.67 C
3153 12-12-2019 09:00:00 4.525 C 98.0000 % 4.24 C
3154 12-12-2019 10:00:00 4.80833 C 97.8333 % 4.5 C
3155 12-12-2019 11:00:00 4.9 C 96.4167 % 4.38 C
3156 12-12-2019 12:00:00 5.2 C 92.1667 % 4.04 C
3157 12-12-2019 13:00:00 5.14167 C 88.1667 % 3.35 C
3158 12-12-2019 14:00:00 5.14167 C 85.5833 % 2.93 C
3159 12-12-2019 15:00:00 4.875 C 87.0000 % 2.9 C
3160 12-12-2019 16:00:00 4.38333 C 86.7500 % 2.37 C
3161 12-12-2019 17:00:00 2.875 C 89.5833 % 1.34 C
3162 12-12-2019 18:00:00 2.00833 C 93.5833 % 1.09 C
3163 12-12-2019 19:00:00 1.68333 C 94.4167 % 0.89 C
3164 12-12-2019 20:00:00 1.675 C 95.0000 % 0.96 C
3165 12-12-2019 21:00:00 2.31667 C 93.5000 % 1.38 C
3166 12-12-2019 22:00:00 1.85833 C 92.6667 % 0.8 C
3167 12-12-2019 23:00:00 2.4 C 91.1667 % 1.11 C
3168 13-12-2019 00:00:00 2.38333 C 89.5000 % 0.84 C
3169 13-12-2019 01:00:00 2.78333 C 87.5000 % 0.92 C
3170 13-12-2019 02:00:00 2.9 C 86.8333 % 0.93 C
3171 13-12-2019 03:00:00 2.725 C 87.9167 % 0.93 C
3172 13-12-2019 04:00:00 2.525 C 90.0833 % 1.07 C
3173 13-12-2019 05:00:00 2.63333 C 91.0000 % 1.32 C
3174 13-12-2019 06:00:00 2.86667 C 91.2500 % 1.58 C
3175 13-12-2019 07:00:00 2.85833 C 92.8333 % 1.82 C
Sensor: Nr:Datum:Temp:Feuchte:Taupunkt:
Aussen-T/F 3176 13-12-2019 08:00:00 2.83333 C 93.6667 % 1.92 C
3177 13-12-2019 09:00:00 2.8 C 94.3333 % 1.98 C
3178 13-12-2019 10:00:00 3 C 95.0000 % 2.28 C
3179 13-12-2019 11:00:00 3.35833 C 95.5000 % 2.71 C
3180 13-12-2019 12:00:00 4.09167 C 96.0000 % 3.51 C
3181 13-12-2019 13:00:00 5.2 C 96.6667 % 4.71 C
3182 13-12-2019 14:00:00 6.93333 C 92.7500 % 5.84 C
3183 13-12-2019 15:00:00 6.675 C 90.5000 % 5.23 C
3184 13-12-2019 16:00:00 5.96667 C 90.0000 % 4.45 C
3185 13-12-2019 17:00:00 5.23333 C 91.6667 % 3.99 C
3186 13-12-2019 18:00:00 4.73333 C 93.6667 % 3.8 C
3187 13-12-2019 19:00:00 4.76667 C 94.0833 % 3.9 C
3188 13-12-2019 20:00:00 5.26667 C 93.0833 % 4.24 C
3189 13-12-2019 21:00:00 5.13333 C 93.1667 % 4.12 C
3190 13-12-2019 22:00:00 5.05833 C 92.1667 % 3.89 C
3191 13-12-2019 23:00:00 5.60833 C 91.0833 % 4.27 C
3192 14-12-2019 00:00:00 5.46667 C 90.9167 % 4.1 C
3193 14-12-2019 01:00:00 5.89167 C 87.8333 % 4.03 C
3194 14-12-2019 02:00:00 5.71667 C 88.4167 % 3.96 C
3195 14-12-2019 03:00:00 5.33333 C 91.6667 % 4.09 C
3196 14-12-2019 04:00:00 4.89167 C 93.5833 % 3.95 C
3197 14-12-2019 05:00:00 4.5 C 94.5833 % 3.71 C
3198 14-12-2019 06:00:00 5.18333 C 95.9167 % 4.59 C
3199 14-12-2019 07:00:00 6.75 C 95.1667 % 6.03 C
3200 14-12-2019 08:00:00 7.4 C 87.6667 % 5.49 C
Sensor: Nr:Datum:Temp:Feuchte:Taupunkt:
Aussen-T/F 3201 14-12-2019 09:00:00 7.2 C 81.5833 % 4.27 C
3202 14-12-2019 10:00:00 7.09167 C 83.6667 % 4.52 C
3203 14-12-2019 11:00:00 7.03333 C 84.3333 % 4.58 C
3204 14-12-2019 12:00:00 7.58333 C 74.5000 % 3.35 C
3205 14-12-2019 13:00:00 8.45 C 72.4167 % 3.78 C
3206 14-12-2019 14:00:00 8.76667 C 74.9167 % 4.57 C
3207 14-12-2019 15:00:00 7.825 C 85.0000 % 5.47 C
3208 14-12-2019 16:00:00 7.875 C 83.1667 % 5.2 C
3209 14-12-2019 17:00:00 8.03333 C 83.7500 % 5.46 C
3210 14-12-2019 18:00:00 7.95833 C 83.9167 % 5.41 C
3211 14-12-2019 19:00:00 7.04167 C 84.0833 % 4.54 C
3212 14-12-2019 20:00:00 6.88333 C 83.8333 % 4.34 C
3213 14-12-2019 21:00:00 7.375 C 84.3333 % 4.91 C
3214 14-12-2019 22:00:00 7.45833 C 84.7500 % 5.06 C
3215 14-12-2019 23:00:00 7.73333 C 84.0000 % 5.21 C
3216 15-12-2019 00:00:00 6.84167 C 86.5833 % 4.76 C
3217 15-12-2019 01:00:00 6.325 C 89.5833 % 4.74 C
3218 15-12-2019 02:00:00 6.76667 C 91.3333 % 5.46 C
3219 15-12-2019 03:00:00 6.99167 C 94.2500 % 6.13 C
3220 15-12-2019 04:00:00 8.23333 C 95.9167 % 7.62 C
3221 15-12-2019 05:00:00 9.40833 C 94.2500 % 8.53 C
3222 15-12-2019 06:00:00 10.84167 C 87.5000 % 8.85 C
3223 15-12-2019 07:00:00 11 C 85.0000 % 8.58 C
3224 15-12-2019 08:00:00 11.075 C 86.0833 % 8.84 C
3225 15-12-2019 09:00:00 9.46667 C 92.1667 % 8.26 C
Sensor: Nr:Datum:Temp:Feuchte:Taupunkt:
Aussen-T/F 3226 15-12-2019 10:00:00 8.7 C 93.4167 % 7.7 C
3227 15-12-2019 11:00:00 8.75833 C 89.8333 % 7.18 C
3228 15-12-2019 12:00:00 8.625 C 87.8333 % 6.73 C
3229 15-12-2019 13:00:00 9.15 C 83.2500 % 6.46 C
3230 15-12-2019 14:00:00 9.30833 C 79.9167 % 6.03 C
3231 15-12-2019 15:00:00 9.10833 C 78.6667 % 5.6 C
3232 15-12-2019 16:00:00 8.48333 C 78.0000 % 4.87 C
3233 15-12-2019 17:00:00 7.85833 C 80.5833 % 4.73 C
3234 15-12-2019 18:00:00 7.65833 C 82.4167 % 4.86 C
3235 15-12-2019 19:00:00 6.325 C 88.3333 % 4.54 C
3236 15-12-2019 20:00:00 5.675 C 91.0000 % 4.32 C
3237 15-12-2019 21:00:00 4.39167 C 92.7500 % 3.32 C
3238 15-12-2019 22:00:00 4.25833 C 94.9167 % 3.52 C
3239 15-12-2019 23:00:00 4.36667 C 95.2500 % 3.68 C
3240 16-12-2019 00:00:00 5 C 96.0000 % 4.42 C
3241 16-12-2019 01:00:00 5.85 C 96.5000 % 5.34 C
3242 16-12-2019 02:00:00 6.44167 C 96.9167 % 5.99 C
3243 16-12-2019 03:00:00 6.65833 C 97.0000 % 6.22 C
3244 16-12-2019 04:00:00 6.875 C 97.0000 % 6.43 C
3245 16-12-2019 05:00:00 7.325 C 97.0000 % 6.88 C
3246 16-12-2019 06:00:00 7.64167 C 97.0000 % 7.2 C
3247 16-12-2019 07:00:00 7.575 C 97.0000 % 7.13 C
3248 16-12-2019 08:00:00 7.8 C 97.0000 % 7.35 C
3249 16-12-2019 09:00:00 8.15833 C 97.2500 % 7.75 C
3250 16-12-2019 10:00:00 8.49167 C 97.4167 % 8.11 C
Sensor: Nr:Datum:Temp:Feuchte:Taupunkt:
Aussen-T/F 3251 16-12-2019 11:00:00 9.225 C 98.0000 % 8.93 C
3252 16-12-2019 12:00:00 9.8 C 98.0000 % 9.5 C
3253 16-12-2019 13:00:00 10.26667 C 98.0000 % 9.96 C
3254 16-12-2019 14:00:00 10.41667 C 97.0833 % 9.97 C
3255 16-12-2019 15:00:00 10.09167 C 97.0000 % 9.64 C
3256 16-12-2019 16:00:00 9.1 C 96.5000 % 8.57 C
3257 16-12-2019 17:00:00 8.15833 C 96.5000 % 7.64 C
3258 16-12-2019 18:00:00 8.35833 C 97.0000 % 7.91 C
3259 16-12-2019 19:00:00 8.7 C 96.3333 % 8.15 C
3260 16-12-2019 20:00:00 8.66667 C 95.8333 % 8.04 C
3261 16-12-2019 21:00:00 8.15833 C 95.2500 % 7.44 C
3262 16-12-2019 22:00:00 8.10833 C 95.7500 % 7.47 C
3263 16-12-2019 23:00:00 8.24167 C 95.7500 % 7.6 C
3264 17-12-2019 00:00:00 8.2 C 95.5833 % 7.54 C
3265 17-12-2019 01:00:00 8.09167 C 95.8333 % 7.47 C
3266 17-12-2019 02:00:00 8.11667 C 95.0000 % 7.37 C
3267 17-12-2019 03:00:00 9.125 C 93.1667 % 8.08 C
3268 17-12-2019 04:00:00 9.44167 C 91.0000 % 8.05 C
3269 17-12-2019 05:00:00 9.15 C 92.0833 % 7.93 C
3270 17-12-2019 06:00:00 8.53333 C 93.2500 % 7.51 C
3271 17-12-2019 07:00:00 8.33333 C 94.0000 % 7.43 C
3272 17-12-2019 08:00:00 7.93333 C 93.8333 % 7 C
3273 17-12-2019 09:00:00 7.525 C 94.5000 % 6.7 C
3274 17-12-2019 10:00:00 7.51667 C 95.3333 % 6.82 C
3275 17-12-2019 11:00:00 8.95833 C 95.5000 % 8.28 C
Sensor: Nr:Datum:Temp:Feuchte:Taupunkt:
Aussen-T/F 3276 17-12-2019 12:00:00 9.98333 C 94.1667 % 9.09 C
3277 17-12-2019 13:00:00 11.10833 C 92.1667 % 9.89 C
3278 17-12-2019 14:00:00 12.41667 C 86.8333 % 10.29 C
3279 17-12-2019 15:00:00 12.54167 C 84.2500 % 9.96 C
3280 17-12-2019 16:00:00 12.93333 C 81.2500 % 9.8 C
3281 17-12-2019 17:00:00 13 C 78.3333 % 9.32 C
3282 17-12-2019 18:00:00 14.08333 C 77.4167 % 10.2 C
3283 17-12-2019 19:00:00 13.34167 C 83.1667 % 10.55 C
3284 17-12-2019 20:00:00 12.59167 C 88.9167 % 10.81 C
3285 17-12-2019 21:00:00 11.76667 C 91.2500 % 10.39 C
3286 17-12-2019 22:00:00 13.26667 C 83.0833 % 10.46 C
3287 17-12-2019 23:00:00 12.375 C 87.5000 % 10.36 C
3288 18-12-2019 00:00:00 11.4 C 90.2500 % 9.86 C
3289 18-12-2019 01:00:00 11.31667 C 89.0833 % 9.59 C
3290 18-12-2019 02:00:00 11.45833 C 89.9167 % 9.86 C
3291 18-12-2019 03:00:00 11.19167 C 92.0000 % 9.94 C
3292 18-12-2019 04:00:00 10.53333 C 92.0833 % 9.3 C
3293 18-12-2019 05:00:00 9.69167 C 91.4167 % 8.36 C
3294 18-12-2019 06:00:00 8.7 C 92.8333 % 7.61 C
3295 18-12-2019 07:00:00 7.99167 C 93.9167 % 7.07 C
3296 18-12-2019 08:00:00 7.475 C 94.8333 % 6.7 C
3297 18-12-2019 09:00:00 7.29167 C 95.5000 % 6.62 C
3298 18-12-2019 10:00:00 7.79167 C 96.0000 % 7.19 C
3299 18-12-2019 11:00:00 7.60833 C 95.0833 % 6.87 C
3300 18-12-2019 12:00:00 8.43333 C 92.9167 % 7.36 C
Sensor: Nr:Datum:Temp:Feuchte:Taupunkt:
Aussen-T/F 3301 18-12-2019 13:00:00 8.66667 C 90.3333 % 7.17 C
3302 18-12-2019 14:00:00 8.175 C 92.0833 % 6.97 C
3303 18-12-2019 15:00:00 7.55 C 93.1667 % 6.52 C
3304 18-12-2019 16:00:00 6.88333 C 93.8333 % 5.96 C
3305 18-12-2019 17:00:00 5.93333 C 94.0000 % 5.04 C
3306 18-12-2019 18:00:00 5.4 C 95.4167 % 4.73 C
3307 18-12-2019 19:00:00 5.58333 C 96.0000 % 5 C
3308 18-12-2019 20:00:00 5.39167 C 96.0000 % 4.81 C
3309 18-12-2019 21:00:00 4.74167 C 96.0000 % 4.16 C
3310 18-12-2019 22:00:00 3.95833 C 96.0000 % 3.38 C
3311 18-12-2019 23:00:00 3.31667 C 96.1667 % 2.77 C
3312 19-12-2019 00:00:00 3.05833 C 96.7500 % 2.59 C
3313 19-12-2019 01:00:00 2.91667 C 97.0000 % 2.49 C
3314 19-12-2019 02:00:00 2.875 C 97.0000 % 2.45 C
3315 19-12-2019 03:00:00 2.675 C 97.0000 % 2.25 C
3316 19-12-2019 04:00:00 2.39167 C 97.0000 % 1.97 C
3317 19-12-2019 05:00:00 2.18333 C 97.0000 % 1.76 C
3318 19-12-2019 06:00:00 1.875 C 97.0000 % 1.45 C
3319 19-12-2019 07:00:00 3.075 C 97.5000 % 2.72 C
3320 19-12-2019 08:00:00 5.05833 C 98.0000 % 4.77 C
3321 19-12-2019 09:00:00 5.24167 C 98.0000 % 4.95 C
3322 19-12-2019 10:00:00 6.75833 C 98.0000 % 6.47 C
3323 19-12-2019 11:00:00 7.35 C 98.0000 % 7.06 C
3324 19-12-2019 12:00:00 7.59167 C 98.0000 % 7.3 C
3325 19-12-2019 13:00:00 7.88333 C 98.0000 % 7.59 C
Sensor: Nr:Datum:Temp:Feuchte:Taupunkt:
Aussen-T/F 3326 19-12-2019 14:00:00 7.96667 C 97.3333 % 7.57 C
3327 19-12-2019 15:00:00 9.23333 C 92.7500 % 8.12 C
3328 19-12-2019 16:00:00 9.61667 C 87.0000 % 7.56 C
3329 19-12-2019 17:00:00 7.6 C 89.0000 % 5.91 C
3330 19-12-2019 18:00:00 6.30833 C 94.2500 % 5.45 C
3331 19-12-2019 19:00:00 6.29167 C 94.7500 % 5.51 C
3332 19-12-2019 20:00:00 6.23333 C 95.3333 % 5.54 C
3333 19-12-2019 21:00:00 6.65833 C 95.1667 % 5.94 C
3334 19-12-2019 22:00:00 6.75833 C 95.2500 % 6.05 C
3335 19-12-2019 23:00:00 6.31667 C 95.5833 % 5.66 C
3336 20-12-2019 00:00:00 5.44167 C 95.0000 % 4.71 C
3337 20-12-2019 01:00:00 4.30833 C 95.6667 % 3.68 C
3338 20-12-2019 02:00:00 4 C 96.3333 % 3.47 C
3339 20-12-2019 03:00:00 5.275 C 97.0000 % 4.84 C
3340 20-12-2019 04:00:00 5.36667 C 96.2500 % 4.82 C
3341 20-12-2019 05:00:00 6 C 95.5833 % 5.35 C
3342 20-12-2019 06:00:00 6.7 C 91.3333 % 5.39 C
3343 20-12-2019 07:00:00 7.35 C 87.1667 % 5.36 C
3344 20-12-2019 08:00:00 7.525 C 87.5000 % 5.59 C
3345 20-12-2019 09:00:00 7.375 C 89.7500 % 5.81 C
3346 20-12-2019 10:00:00 7.06667 C 91.1667 % 5.73 C
3347 20-12-2019 11:00:00 7.275 C 94.5833 % 6.46 C
3348 20-12-2019 12:00:00 8.375 C 95.0000 % 7.62 C
3349 20-12-2019 13:00:00 9.20833 C 94.4167 % 8.36 C
3350 20-12-2019 14:00:00 9.38333 C 93.6667 % 8.42 C
Sensor: Nr:Datum:Temp:Feuchte:Taupunkt:
Aussen-T/F 3351 20-12-2019 15:00:00 9.2 C 94.1667 % 8.31 C
3352 20-12-2019 16:00:00 9.325 C 95.5833 % 8.66 C
3353 20-12-2019 17:00:00 9.79167 C 95.2500 % 9.07 C
3354 20-12-2019 18:00:00 9.66667 C 94.7500 % 8.87 C
3355 20-12-2019 19:00:00 10.18333 C 90.0833 % 8.63 C
3356 20-12-2019 20:00:00 9.76667 C 87.5000 % 7.79 C
3357 20-12-2019 21:00:00 9.10833 C 86.7500 % 7.02 C
3358 20-12-2019 22:00:00 9.05 C 85.5833 % 6.77 C
3359 20-12-2019 23:00:00 8.84167 C 86.4167 % 6.7 C
3360 21-12-2019 00:00:00 8.34167 C 87.7500 % 6.43 C
3361 21-12-2019 01:00:00 8.075 C 90.2500 % 6.58 C
3362 21-12-2019 02:00:00 8.34167 C 90.1667 % 6.83 C
3363 21-12-2019 03:00:00 8.225 C 90.0000 % 6.68 C
3364 21-12-2019 04:00:00 7.60833 C 91.3333 % 6.29 C
3365 21-12-2019 05:00:00 6.69167 C 92.9167 % 5.63 C
3366 21-12-2019 06:00:00 5.60833 C 93.6667 % 4.67 C
3367 21-12-2019 07:00:00 4.74167 C 94.6667 % 3.96 C
3368 21-12-2019 08:00:00 4.725 C 95.8333 % 4.12 C
3369 21-12-2019 09:00:00 5.5 C 95.9167 % 4.9 C
3370 21-12-2019 10:00:00 5.85833 C 95.0000 % 5.12 C
3371 21-12-2019 11:00:00 6.30833 C 95.0000 % 5.57 C
3372 21-12-2019 12:00:00 6.88333 C 94.5833 % 6.08 C
3373 21-12-2019 13:00:00 8.01667 C 89.7500 % 6.44 C
3374 21-12-2019 14:00:00 9.05833 C 85.2500 % 6.72 C
3375 21-12-2019 15:00:00 9.10833 C 83.9167 % 6.54 C
Sensor: Nr:Datum:Temp:Feuchte:Taupunkt:
Aussen-T/F 3376 21-12-2019 16:00:00 8.325 C 87.5000 % 6.37 C
3377 21-12-2019 17:00:00 8.04167 C 89.0000 % 6.34 C
3378 21-12-2019 18:00:00 8.125 C 86.3333 % 5.98 C
3379 21-12-2019 19:00:00 7.875 C 86.8333 % 5.82 C
3380 21-12-2019 20:00:00 7.76667 C 86.4167 % 5.65 C
3381 21-12-2019 21:00:00 7.13333 C 88.2500 % 5.32 C
3382 21-12-2019 22:00:00 6.56667 C 87.9167 % 4.71 C
3383 21-12-2019 23:00:00 7.03333 C 84.4167 % 4.59 C
3384 22-12-2019 00:00:00 7.48333 C 85.0833 % 5.14 C
3385 22-12-2019 01:00:00 6.98333 C 91.0000 % 5.62 C
3386 22-12-2019 02:00:00 6.75 C 93.0000 % 5.7 C
3387 22-12-2019 03:00:00 6.95 C 92.5000 % 5.82 C
3388 22-12-2019 04:00:00 7.06667 C 92.0000 % 5.86 C
3389 22-12-2019 05:00:00 6.89167 C 92.0000 % 5.68 C
3390 22-12-2019 06:00:00 6.48333 C 93.4167 % 5.5 C
3391 22-12-2019 07:00:00 6.83333 C 94.2500 % 5.98 C
3392 22-12-2019 08:00:00 6.975 C 94.9167 % 6.22 C
3393 22-12-2019 09:00:00 7.29167 C 95.0000 % 6.55 C
3394 22-12-2019 10:00:00 8.56667 C 93.0833 % 7.51 C
3395 22-12-2019 11:00:00 10.06667 C 87.0833 % 8.02 C
3396 22-12-2019 12:00:00 10.70833 C 85.6667 % 8.41 C
3397 22-12-2019 13:00:00 10.95 C 83.7500 % 8.31 C
3398 22-12-2019 14:00:00 11.06667 C 82.0000 % 8.11 C
3399 22-12-2019 15:00:00 10.44167 C 84.0000 % 7.86 C
3400 22-12-2019 16:00:00 9.34167 C 84.1667 % 6.81 C
Sensor: Nr:Datum:Temp:Feuchte:Taupunkt:
Aussen-T/F 3401 22-12-2019 17:00:00 8.16667 C 88.5000 % 6.38 C
3402 22-12-2019 18:00:00 7.825 C 89.2500 % 6.17 C
3403 22-12-2019 19:00:00 7.88333 C 90.2500 % 6.39 C
3404 22-12-2019 20:00:00 8.4 C 84.5833 % 5.96 C
3405 22-12-2019 21:00:00 8.34167 C 84.6667 % 5.92 C
3406 22-12-2019 22:00:00 7.85 C 86.3333 % 5.71 C
3407 22-12-2019 23:00:00 7.09167 C 90.0833 % 5.58 C
3408 23-12-2019 00:00:00 7.14167 C 91.0000 % 5.77 C
3409 23-12-2019 01:00:00 7.325 C 89.7500 % 5.76 C
3410 23-12-2019 02:00:00 7.35833 C 88.9167 % 5.65 C
3411 23-12-2019 03:00:00 7.15 C 89.9167 % 5.61 C
3412 23-12-2019 04:00:00 7.25833 C 90.1667 % 5.76 C
3413 23-12-2019 05:00:00 7.23333 C 91.3333 % 5.92 C
3414 23-12-2019 06:00:00 7.21667 C 91.7500 % 5.97 C
3415 23-12-2019 07:00:00 7.56667 C 91.5833 % 6.29 C
3416 23-12-2019 08:00:00 7.85833 C 89.6667 % 6.27 C
3417 23-12-2019 09:00:00 8.15833 C 88.2500 % 6.33 C
3418 23-12-2019 10:00:00 7.89167 C 91.0833 % 6.53 C
3419 23-12-2019 11:00:00 8.425 C 89.0833 % 6.73 C
3420 23-12-2019 12:00:00 9.28333 C 84.6667 % 6.84 C
3421 23-12-2019 13:00:00 9.125 C 87.3333 % 7.13 C
3422 23-12-2019 14:00:00 9.33333 C 85.1667 % 6.97 C
3423 23-12-2019 15:00:00 9.30833 C 84.3333 % 6.81 C
3424 23-12-2019 16:00:00 8.99167 C 84.3333 % 6.5 C
3425 23-12-2019 17:00:00 8.49167 C 84.0000 % 5.95 C
Sensor: Nr:Datum:Temp:Feuchte:Taupunkt:
Aussen-T/F 3426 23-12-2019 18:00:00 8.18333 C 84.5833 % 5.75 C
3427 23-12-2019 19:00:00 7.575 C 87.4167 % 5.62 C
3428 23-12-2019 20:00:00 7.21667 C 89.6667 % 5.64 C
3429 23-12-2019 21:00:00 7.30833 C 90.0833 % 5.79 C
3430 23-12-2019 22:00:00 6.64167 C 90.5833 % 5.21 C
3431 23-12-2019 23:00:00 5.88333 C 90.9167 % 4.52 C
3432 24-12-2019 00:00:00 6.04167 C 92.9167 % 4.98 C
3433 24-12-2019 01:00:00 6.325 C 92.0833 % 5.14 C
3434 24-12-2019 02:00:00 6.39167 C 92.2500 % 5.23 C
3435 24-12-2019 03:00:00 6.55833 C 90.3333 % 5.09 C
3436 24-12-2019 04:00:00 5.90833 C 92.0000 % 4.71 C
3437 24-12-2019 05:00:00 5.76667 C 92.9167 % 4.71 C
3438 24-12-2019 06:00:00 5.28333 C 93.5833 % 4.33 C
3439 24-12-2019 07:00:00 5.61667 C 94.0000 % 4.73 C
3440 24-12-2019 08:00:00 6.53333 C 91.2500 % 5.21 C
3441 24-12-2019 09:00:00 7.25 C 88.4167 % 5.47 C
3442 24-12-2019 10:00:00 7.34167 C 91.0000 % 5.97 C
3443 24-12-2019 11:00:00 7.85833 C 92.3333 % 6.69 C
3444 24-12-2019 12:00:00 8.5 C 89.0833 % 6.81 C
3445 24-12-2019 13:00:00 9.5 C 86.1667 % 7.31 C
3446 24-12-2019 14:00:00 9.85833 C 85.2500 % 7.5 C
3447 24-12-2019 15:00:00 10.025 C 83.3333 % 7.33 C
3448 24-12-2019 16:00:00 10.275 C 79.8333 % 6.95 C
3449 24-12-2019 17:00:00 9.84167 C 79.8333 % 6.53 C
3450 24-12-2019 18:00:00 9.23333 C 85.1667 % 6.87 C
Sensor: Nr:Datum:Temp:Feuchte:Taupunkt:
Aussen-T/F 3451 24-12-2019 19:00:00 7.675 C 91.0833 % 6.31 C
3452 24-12-2019 20:00:00 7.26667 C 92.6667 % 6.16 C
3453 24-12-2019 21:00:00 7.85 C 90.8333 % 6.45 C
3454 24-12-2019 22:00:00 8.68333 C 86.5000 % 6.56 C
3455 24-12-2019 23:00:00 8.73333 C 87.7500 % 6.82 C
3456 25-12-2019 00:00:00 8.8 C 88.5000 % 7.01 C
3457 25-12-2019 01:00:00 8.4 C 91.1667 % 7.05 C
3458 25-12-2019 02:00:00 8.28333 C 91.3333 % 6.96 C
3459 25-12-2019 03:00:00 8.60833 C 91.0833 % 7.24 C
3460 25-12-2019 04:00:00 8.68333 C 92.3333 % 7.51 C
3461 25-12-2019 05:00:00 8.5 C 93.6667 % 7.54 C
3462 25-12-2019 06:00:00 8.06667 C 93.5000 % 7.08 C
3463 25-12-2019 07:00:00 7.91667 C 92.4167 % 6.76 C
3464 25-12-2019 08:00:00 7.41667 C 90.5000 % 5.97 C
3465 25-12-2019 09:00:00 7.625 C 88.5000 % 5.85 C
3466 25-12-2019 10:00:00 7.925 C 86.3333 % 5.79 C
3467 25-12-2019 11:00:00 8.13333 C 86.2500 % 5.98 C
3468 25-12-2019 12:00:00 8.11667 C 87.6667 % 6.2 C
3469 25-12-2019 13:00:00 7.925 C 89.5000 % 6.31 C
3470 25-12-2019 14:00:00 8.05833 C 89.2500 % 6.4 C
3471 25-12-2019 15:00:00 7.975 C 89.7500 % 6.4 C
3472 25-12-2019 16:00:00 7.75833 C 89.4167 % 6.13 C
3473 25-12-2019 17:00:00 7.25 C 89.5000 % 5.64 C
3474 25-12-2019 18:00:00 6.8 C 91.0000 % 5.44 C
3475 25-12-2019 19:00:00 6.725 C 91.1667 % 5.39 C
Sensor: Nr:Datum:Temp:Feuchte:Taupunkt:
Aussen-T/F 3476 25-12-2019 20:00:00 6.64167 C 91.9167 % 5.42 C
3477 25-12-2019 21:00:00 6.33333 C 93.4167 % 5.35 C
3478 25-12-2019 22:00:00 6.05 C 94.8333 % 5.29 C
3479 25-12-2019 23:00:00 5.94167 C 95.0000 % 5.2 C
3480 26-12-2019 00:00:00 4.98333 C 95.1667 % 4.28 C
3481 26-12-2019 01:00:00 5.11667 C 96.0000 % 4.53 C
3482 26-12-2019 02:00:00 5.075 C 96.0000 % 4.49 C
3483 26-12-2019 03:00:00 4.94167 C 96.0000 % 4.36 C
3484 26-12-2019 04:00:00 4.4 C 96.0000 % 3.82 C
3485 26-12-2019 05:00:00 4.25833 C 96.8333 % 3.8 C
3486 26-12-2019 06:00:00 4.325 C 97.0000 % 3.89 C
3487 26-12-2019 07:00:00 4.325 C 97.0000 % 3.89 C
3488 26-12-2019 08:00:00 4.23333 C 97.0000 % 3.8 C
3489 26-12-2019 09:00:00 4.35 C 97.0000 % 3.92 C
3490 26-12-2019 10:00:00 4.65833 C 97.0000 % 4.22 C
3491 26-12-2019 11:00:00 5.5 C 97.0000 % 5.06 C
3492 26-12-2019 12:00:00 5.89167 C 96.9167 % 5.44 C
3493 26-12-2019 13:00:00 6.26667 C 96.0000 % 5.68 C
3494 26-12-2019 14:00:00 6.275 C 95.5000 % 5.61 C
3495 26-12-2019 15:00:00 6.00833 C 95.0000 % 5.27 C
3496 26-12-2019 16:00:00 5.34167 C 95.1667 % 4.63 C
3497 26-12-2019 17:00:00 5.03333 C 96.0000 % 4.45 C
3498 26-12-2019 18:00:00 4.81667 C 96.0000 % 4.23 C
3499 26-12-2019 19:00:00 4.74167 C 96.0000 % 4.16 C
3500 26-12-2019 20:00:00 4.71667 C 96.0000 % 4.13 C
Sensor: Nr:Datum:Temp:Feuchte:Taupunkt:
Aussen-T/F 3501 26-12-2019 21:00:00 4.79167 C 96.0000 % 4.21 C
3502 26-12-2019 22:00:00 4.89167 C 96.0000 % 4.31 C
3503 26-12-2019 23:00:00 4.9 C 96.0000 % 4.32 C
3504 27-12-2019 00:00:00 4.9 C 96.1667 % 4.34 C
3505 27-12-2019 01:00:00 4.91667 C 97.0000 % 4.48 C
3506 27-12-2019 02:00:00 4.98333 C 97.0000 % 4.55 C
3507 27-12-2019 03:00:00 5.08333 C 97.0000 % 4.65 C
3508 27-12-2019 04:00:00 5.15833 C 97.0000 % 4.72 C
3509 27-12-2019 05:00:00 5.2 C 97.0000 % 4.76 C
3510 27-12-2019 06:00:00 5.29167 C 97.0000 % 4.86 C
3511 27-12-2019 07:00:00 5.3 C 97.0000 % 4.86 C
3512 27-12-2019 08:00:00 5.13333 C 97.0000 % 4.7 C
3513 27-12-2019 09:00:00 5.25833 C 97.0000 % 4.82 C
3514 27-12-2019 10:00:00 5.575 C 97.0000 % 5.14 C
3515 27-12-2019 11:00:00 5.7 C 97.0000 % 5.26 C
3516 27-12-2019 12:00:00 6.10833 C 95.1667 % 5.39 C
3517 27-12-2019 13:00:00 6.18333 C 92.9167 % 5.13 C
3518 27-12-2019 14:00:00 6.275 C 90.4167 % 4.83 C
3519 27-12-2019 15:00:00 6.21667 C 88.6667 % 4.49 C
3520 27-12-2019 16:00:00 5.8 C 91.0000 % 4.45 C
3521 27-12-2019 17:00:00 5.25833 C 92.7500 % 4.18 C
3522 27-12-2019 18:00:00 5.01667 C 93.0000 % 3.98 C
3523 27-12-2019 19:00:00 4.76667 C 93.0000 % 3.73 C
3524 27-12-2019 20:00:00 4.55 C 93.0000 % 3.52 C
3525 27-12-2019 21:00:00 4.525 C 93.0833 % 3.51 C
Sensor: Nr:Datum:Temp:Feuchte:Taupunkt:
Aussen-T/F 3526 27-12-2019 22:00:00 3.70833 C 91.7500 % 2.49 C
3527 27-12-2019 23:00:00 2.00833 C 92.5833 % 0.94 C
3528 28-12-2019 00:00:00 1.075 C 94.0000 % 0.22 C
3529 28-12-2019 01:00:00 0.53333 C 94.6667 % -0.22 C
3530 28-12-2019 02:00:00 -0.13333 C 95.0000 % -0.84 C
3531 28-12-2019 03:00:00 -0.58333 C 95.3333 % -1.24 C
3532 28-12-2019 04:00:00 -0.9 C 95.8333 % -1.48 C
3533 28-12-2019 05:00:00 -1.18333 C 96.0000 % -1.74 C
3534 28-12-2019 06:00:00 -1.25833 C 96.0000 % -1.81 C
3535 28-12-2019 07:00:00 -1.35833 C 96.0000 % -1.91 C
3536 28-12-2019 08:00:00 -1.61667 C 96.0000 % -2.17 C
3537 28-12-2019 09:00:00 -1.525 C 96.1667 % -2.05 C
3538 28-12-2019 10:00:00 -0.63333 C 97.0000 % -1.05 C
3539 28-12-2019 11:00:00 -0.05833 C 97.0000 % -0.48 C
3540 28-12-2019 12:00:00 0.53333 C 97.0000 % 0.11 C
3541 28-12-2019 13:00:00 1.175 C 97.0000 % 0.75 C
3542 28-12-2019 14:00:00 1.325 C 97.0000 % 0.9 C
3543 28-12-2019 15:00:00 1.08333 C 96.0833 % 0.53 C
3544 28-12-2019 16:00:00 0.7 C 96.0000 % 0.14 C
3545 28-12-2019 17:00:00 0.19167 C 96.0000 % -0.37 C
3546 28-12-2019 18:00:00 -0.275 C 95.8333 % -0.86 C
3547 28-12-2019 19:00:00 -0.525 C 96.0000 % -1.08 C
3548 28-12-2019 20:00:00 -0.46667 C 96.0000 % -1.02 C
3549 28-12-2019 21:00:00 -0.45 C 96.0000 % -1.01 C
3550 28-12-2019 22:00:00 -0.975 C 96.0000 % -1.53 C
Sensor: Nr:Datum:Temp:Feuchte:Taupunkt:
Aussen-T/F 3551 28-12-2019 23:00:00 -1.26667 C 96.0000 % -1.82 C
3552 29-12-2019 00:00:00 -1.58333 C 96.0000 % -2.14 C
3553 29-12-2019 01:00:00 -1.925 C 96.0000 % -2.48 C
3554 29-12-2019 02:00:00 -2.25833 C 96.0000 % -2.81 C
3555 29-12-2019 03:00:00 -2.525 C 96.0000 % -3.07 C
3556 29-12-2019 04:00:00 -2.65 C 96.0000 % -3.2 C
3557 29-12-2019 05:00:00 -3 C 96.0000 % -3.55 C
3558 29-12-2019 06:00:00 -3.26667 C 96.0000 % -3.81 C
3559 29-12-2019 07:00:00 -3.54167 C 96.0000 % -4.09 C
3560 29-12-2019 08:00:00 -3.24167 C 96.2500 % -3.75 C
3561 29-12-2019 09:00:00 -2.90833 C 96.1667 % -3.43 C
3562 29-12-2019 10:00:00 -2.51667 C 96.7500 % -2.96 C
3563 29-12-2019 11:00:00 -1.05833 C 97.0000 % -1.47 C
3564 29-12-2019 12:00:00 0.38333 C 97.0000 % -0.04 C
3565 29-12-2019 13:00:00 1.36667 C 97.0000 % 0.94 C
3566 29-12-2019 14:00:00 2.05833 C 96.5833 % 1.57 C
3567 29-12-2019 15:00:00 2.25 C 92.5000 % 1.16 C
3568 29-12-2019 16:00:00 1.31667 C 92.4167 % 0.23 C
3569 29-12-2019 17:00:00 0.54167 C 93.9167 % -0.32 C
3570 29-12-2019 18:00:00 0.64167 C 94.8333 % -0.09 C
3571 29-12-2019 19:00:00 0.08333 C 94.0000 % -0.76 C
3572 29-12-2019 20:00:00 -0.24167 C 94.0000 % -1.09 C
3573 29-12-2019 21:00:00 -0.60833 C 94.0000 % -1.45 C
3574 29-12-2019 22:00:00 -1.09167 C 94.2500 % -1.9 C
3575 29-12-2019 23:00:00 -1.33333 C 95.0000 % -2.03 C
Sensor: Nr:Datum:Temp:Feuchte:Taupunkt:
Aussen-T/F 3576 30-12-2019 00:00:00 -1.66667 C 95.0000 % -2.36 C
3577 30-12-2019 01:00:00 -1.825 C 95.0000 % -2.52 C
3578 30-12-2019 02:00:00 -1.99167 C 95.5000 % -2.61 C
3579 30-12-2019 03:00:00 -2.025 C 96.0000 % -2.58 C
3580 30-12-2019 04:00:00 -2.38333 C 96.0000 % -2.93 C
3581 30-12-2019 05:00:00 -2.59167 C 96.0000 % -3.14 C
3582 30-12-2019 06:00:00 -2.675 C 96.0000 % -3.22 C
3583 30-12-2019 07:00:00 -2.79167 C 96.0000 % -3.34 C
3584 30-12-2019 08:00:00 -3.06667 C 96.0000 % -3.61 C
3585 30-12-2019 09:00:00 -2.70833 C 96.0000 % -3.26 C
3586 30-12-2019 10:00:00 -2.225 C 96.3333 % -2.73 C
3587 30-12-2019 11:00:00 -1.61667 C 96.9167 % -2.04 C
3588 30-12-2019 12:00:00 -0.725 C 97.0000 % -1.14 C
3589 30-12-2019 13:00:00 0.2 C 96.9167 % -0.23 C
3590 30-12-2019 14:00:00 0.875 C 95.7500 % 0.28 C
3591 30-12-2019 15:00:00 1.50833 C 94.3333 % 0.7 C
3592 30-12-2019 16:00:00 2.025 C 93.0000 % 1.01 C
3593 30-12-2019 17:00:00 1.65 C 93.0833 % 0.66 C
3594 30-12-2019 18:00:00 0.90833 C 92.2500 % -0.2 C
3595 30-12-2019 19:00:00 0.28333 C 92.0833 % -0.85 C
3596 30-12-2019 20:00:00 0.18333 C 90.1667 % -1.23 C
3597 30-12-2019 21:00:00 -0.175 C 92.0833 % -1.3 C
3598 30-12-2019 22:00:00 -0.23333 C 90.6667 % -1.57 C
3599 30-12-2019 23:00:00 -0.175 C 91.1667 % -1.44 C
3600 31-12-2019 00:00:00 -0.05 C 90.5833 % -1.4 C
Sensor: Nr:Datum:Temp:Feuchte:Taupunkt:
Aussen-T/F 3601 31-12-2019 01:00:00 -0.15833 C 91.5000 % -1.37 C
3602 31-12-2019 02:00:00 -1.03333 C 92.7500 % -2.06 C
3603 31-12-2019 03:00:00 -0.9 C 93.9167 % -1.75 C
3604 31-12-2019 04:00:00 -1.53333 C 94.0000 % -2.37 C
3605 31-12-2019 05:00:00 -1.70833 C 94.7500 % -2.44 C
3606 31-12-2019 06:00:00 -1.79167 C 95.0000 % -2.48 C
3607 31-12-2019 07:00:00 -1.70833 C 95.5000 % -2.33 C
3608 31-12-2019 08:00:00 -0.70833 C 96.0833 % -1.25 C
3609 31-12-2019 09:00:00 -0.1 C 96.0000 % -0.66 C
3610 31-12-2019 10:00:00 0.46667 C 95.6667 % -0.14 C
3611 31-12-2019 11:00:00 1.20833 C 94.0833 % 0.36 C
3612 31-12-2019 12:00:00 2.275 C 92.3333 % 1.16 C
3613 31-12-2019 13:00:00 2.84167 C 89.0000 % 1.21 C
3614 31-12-2019 14:00:00 3.26667 C 87.7500 % 1.44 C
3615 31-12-2019 15:00:00 3.48333 C 87.4167 % 1.6 C
3616 31-12-2019 16:00:00 2.26667 C 89.3333 % 0.7 C
3617 31-12-2019 17:00:00 0.65833 C 92.5833 % -0.4 C
3618 31-12-2019 18:00:00 0.31667 C 94.3333 % -0.48 C
3619 31-12-2019 19:00:00 0.875 C 95.0833 % 0.18 C
3620 31-12-2019 20:00:00 1.26667 C 95.2500 % 0.59 C
3621 31-12-2019 21:00:00 1.23333 C 95.0000 % 0.52 C
3622 31-12-2019 22:00:00 1.18333 C 95.0000 % 0.47 C
3623 31-12-2019 23:00:00 0.90833 C 95.4167 % 0.26 C
3624 01-01-2020 00:00:00 0.98333 C 95.5833 % 0.36 C
3625 01-01-2020 01:00:00 0.35 C 95.7500 % -0.25 C
Sensor: Nr:Datum:Temp:Feuchte:Taupunkt:
Aussen-T/F 3626 01-01-2020 02:00:00 0.50833 C 96.0000 % -0.05 C
3627 01-01-2020 03:00:00 1.06667 C 96.0000 % 0.5 C
3628 01-01-2020 04:00:00 1.15 C 96.0000 % 0.58 C
3629 01-01-2020 05:00:00 1.25 C 96.0000 % 0.68 C
3630 01-01-2020 06:00:00 1.26667 C 96.0000 % 0.7 C
3631 01-01-2020 07:00:00 1.3 C 96.0000 % 0.73 C
3632 01-01-2020 08:00:00 1.425 C 96.0000 % 0.86 C
3633 01-01-2020 09:00:00 1.8 C 96.0000 % 1.23 C
3634 01-01-2020 10:00:00 2.53333 C 94.8333 % 1.79 C
3635 01-01-2020 11:00:00 3.125 C 91.6667 % 1.9 C
3636 01-01-2020 12:00:00 3.375 C 90.0833 % 1.91 C
3637 01-01-2020 13:00:00 2.70833 C 91.1667 % 1.42 C
3638 01-01-2020 14:00:00 2.35833 C 93.5833 % 1.43 C
3639 01-01-2020 15:00:00 2.25 C 94.1667 % 1.41 C
3640 01-01-2020 16:00:00 1.33333 C 93.9167 % 0.46 C
3641 01-01-2020 17:00:00 0.21667 C 94.8333 % -0.51 C
3642 01-01-2020 18:00:00 -0.50833 C 95.2500 % -1.17 C
3643 01-01-2020 19:00:00 -0.88333 C 95.8333 % -1.46 C
3644 01-01-2020 20:00:00 -1.19167 C 96.0000 % -1.75 C
3645 01-01-2020 21:00:00 -1.50833 C 96.0000 % -2.06 C
3646 01-01-2020 22:00:00 -1.74167 C 96.0000 % -2.29 C
3647 01-01-2020 23:00:00 -1.66667 C 96.5000 % -2.15 C
3648 02-01-2020 00:00:00 -1.35 C 96.8333 % -1.79 C
3649 02-01-2020 01:00:00 -1.11667 C 97.0000 % -1.53 C
3650 02-01-2020 02:00:00 -0.65833 C 97.0000 % -1.07 C
Sensor: Nr:Datum:Temp:Feuchte:Taupunkt:
Aussen-T/F 3651 02-01-2020 03:00:00 -0.26667 C 97.0000 % -0.68 C
3652 02-01-2020 04:00:00 0.16667 C 97.0000 % -0.25 C
3653 02-01-2020 05:00:00 0.18333 C 97.0000 % -0.24 C
3654 02-01-2020 06:00:00 0.10833 C 96.8333 % -0.33 C
3655 02-01-2020 07:00:00 0.15833 C 95.6667 % -0.45 C
3656 02-01-2020 08:00:00 0.45833 C 95.1667 % -0.22 C
3657 02-01-2020 09:00:00 0.925 C 95.0000 % 0.22 C
3658 02-01-2020 10:00:00 1.36667 C 95.0000 % 0.66 C
3659 02-01-2020 11:00:00 2.01667 C 93.7500 % 1.12 C
3660 02-01-2020 12:00:00 2.69167 C 92.2500 % 1.56 C
3661 02-01-2020 13:00:00 3.19167 C 91.1667 % 1.89 C
3662 02-01-2020 14:00:00 3.6 C 91.7500 % 2.39 C
3663 02-01-2020 15:00:00 3.46667 C 92.0833 % 2.31 C
3664 02-01-2020 16:00:00 3.16667 C 93.0000 % 2.15 C
3665 02-01-2020 17:00:00 3.025 C 93.6667 % 2.11 C
3666 02-01-2020 18:00:00 2.9 C 94.0833 % 2.04 C
3667 02-01-2020 19:00:00 3.075 C 95.0000 % 2.35 C
3668 02-01-2020 20:00:00 3.2 C 95.0000 % 2.48 C
3669 02-01-2020 21:00:00 3.28333 C 95.0000 % 2.56 C
3670 02-01-2020 22:00:00 3.21667 C 95.5833 % 2.58 C
3671 02-01-2020 23:00:00 3.65833 C 96.0000 % 3.08 C
3672 03-01-2020 00:00:00 3.81667 C 96.0000 % 3.24 C
3673 03-01-2020 01:00:00 4.24167 C 96.0000 % 3.66 C
3674 03-01-2020 02:00:00 4.53333 C 96.0000 % 3.95 C
3675 03-01-2020 03:00:00 4.76667 C 96.9167 % 4.32 C
Sensor: Nr:Datum:Temp:Feuchte:Taupunkt:
Aussen-T/F 3676 03-01-2020 04:00:00 4.86667 C 97.0000 % 4.43 C
3677 03-01-2020 05:00:00 5.08333 C 96.8333 % 4.62 C
3678 03-01-2020 06:00:00 5.425 C 96.3333 % 4.89 C
3679 03-01-2020 07:00:00 7.875 C 92.0000 % 6.66 C
3680 03-01-2020 08:00:00 8.34167 C 88.1667 % 6.5 C
3681 03-01-2020 09:00:00 8.675 C 86.0000 % 6.47 C
3682 03-01-2020 10:00:00 8.91667 C 84.6667 % 6.48 C
3683 03-01-2020 11:00:00 8.99167 C 85.0000 % 6.61 C
3684 03-01-2020 12:00:00 8.89167 C 85.8333 % 6.65 C
3685 03-01-2020 13:00:00 8.91667 C 87.0000 % 6.87 C
3686 03-01-2020 14:00:00 8.93333 C 88.2500 % 7.1 C
3687 03-01-2020 15:00:00 9.29167 C 88.4167 % 7.48 C
3688 03-01-2020 16:00:00 9.38333 C 88.9167 % 7.65 C
3689 03-01-2020 17:00:00 9.29167 C 89.9167 % 7.72 C
3690 03-01-2020 18:00:00 9.56667 C 90.0000 % 8.01 C
3691 03-01-2020 19:00:00 9.60833 C 90.8333 % 8.19 C
3692 03-01-2020 20:00:00 9.58333 C 92.1667 % 8.38 C
3693 03-01-2020 21:00:00 8.56667 C 92.2500 % 7.38 C
3694 03-01-2020 22:00:00 7.21667 C 91.0000 % 5.85 C
3695 03-01-2020 23:00:00 6.68333 C 91.0000 % 5.32 C
3696 04-01-2020 00:00:00 6.34167 C 92.0000 % 5.14 C
3697 04-01-2020 01:00:00 5.70833 C 91.5000 % 4.43 C
3698 04-01-2020 02:00:00 4.70833 C 91.9167 % 3.51 C
3699 04-01-2020 03:00:00 4.41667 C 93.2500 % 3.42 C
3700 04-01-2020 04:00:00 4.15 C 92.5833 % 3.06 C
Sensor: Nr:Datum:Temp:Feuchte:Taupunkt:
Aussen-T/F 3701 04-01-2020 05:00:00 3.30833 C 93.0833 % 2.3 C
3702 04-01-2020 06:00:00 2.90833 C 93.9167 % 2.03 C
3703 04-01-2020 07:00:00 2.93333 C 93.0000 % 1.92 C
3704 04-01-2020 08:00:00 2.26667 C 93.7500 % 1.37 C
3705 04-01-2020 09:00:00 2.075 C 94.7500 % 1.32 C
3706 04-01-2020 10:00:00 3.32857 C 94.2857 % 2.5 C
3707 04-01-2020 11:00:00 5.73333 C 87.4167 % 3.81 C
3708 04-01-2020 12:00:00 6.48333 C 85.2500 % 4.19 C
3709 04-01-2020 13:00:00 7.11667 C 83.8333 % 4.57 C
3710 04-01-2020 14:00:00 7.48333 C 82.2500 % 4.66 C
3711 04-01-2020 15:00:00 7.41667 C 82.9167 % 4.71 C
3712 04-01-2020 16:00:00 7.25833 C 83.0000 % 4.57 C
3713 04-01-2020 17:00:00 7.175 C 82.8333 % 4.46 C
3714 04-01-2020 18:00:00 7.08333 C 83.0000 % 4.4 C
3715 04-01-2020 19:00:00 6.96667 C 84.4167 % 4.52 C
3716 04-01-2020 20:00:00 6.54167 C 87.4167 % 4.61 C
3717 04-01-2020 21:00:00 6.475 C 90.5000 % 5.04 C
3718 04-01-2020 22:00:00 6.125 C 93.7500 % 5.2 C
3719 04-01-2020 23:00:00 6.13333 C 93.3333 % 5.14 C
3720 05-01-2020 00:00:00 6.14167 C 93.0000 % 5.1 C
3721 05-01-2020 01:00:00 5.9 C 93.7500 % 4.97 C
3722 05-01-2020 02:00:00 5.625 C 94.9167 % 4.88 C
3723 05-01-2020 03:00:00 5.35 C 95.0000 % 4.62 C
3724 05-01-2020 04:00:00 5.26667 C 96.0000 % 4.68 C
3725 05-01-2020 05:00:00 5.31667 C 96.0000 % 4.73 C
Sensor: Nr:Datum:Temp:Feuchte:Taupunkt:
Aussen-T/F 3726 05-01-2020 06:00:00 5.4 C 96.0000 % 4.81 C
3727 05-01-2020 07:00:00 5.36667 C 96.0000 % 4.78 C
3728 05-01-2020 08:00:00 5.19 C 96.0000 % 4.61 C
3729 05-01-2020 09:00:00 5.33 C 96.0000 % 4.74 C
3730 05-01-2020 10:00:00 5.8 C 95.1667 % 5.09 C
3731 05-01-2020 11:00:00 6.25833 C 93.4167 % 5.28 C
3732 05-01-2020 12:00:00 6.6 C 92.1667 % 5.42 C
3733 05-01-2020 13:00:00 6.93333 C 91.3333 % 5.62 C
3734 05-01-2020 14:00:00 7.20833 C 90.0833 % 5.69 C
3735 05-01-2020 15:00:00 7.20833 C 90.5000 % 5.76 C
3736 05-01-2020 16:00:00 6.79167 C 91.8333 % 5.56 C
3737 05-01-2020 17:00:00 6.24167 C 91.8333 % 5.01 C
3738 05-01-2020 18:00:00 6.16667 C 90.4167 % 4.72 C
3739 05-01-2020 19:00:00 6.11667 C 89.7500 % 4.56 C
3740 05-01-2020 20:00:00 5.90833 C 90.1667 % 4.42 C
3741 05-01-2020 21:00:00 5.8 C 90.9167 % 4.43 C
3742 05-01-2020 22:00:00 5.58333 C 92.0000 % 4.39 C
3743 05-01-2020 23:00:00 5.30833 C 92.7500 % 4.23 C
3744 06-01-2020 00:00:00 5.11667 C 92.0000 % 3.93 C
3745 06-01-2020 01:00:00 4.98333 C 91.3333 % 3.69 C
3746 06-01-2020 02:00:00 4.84167 C 91.0000 % 3.5 C
3747 06-01-2020 03:00:00 4.71667 C 91.1667 % 3.4 C
3748 06-01-2020 04:00:00 4.61667 C 91.1667 % 3.3 C
3749 06-01-2020 05:00:00 4.4 C 91.9167 % 3.2 C
3750 06-01-2020 06:00:00 4.15833 C 92.0833 % 2.99 C
Sensor: Nr:Datum:Temp:Feuchte:Taupunkt:
Aussen-T/F 3751 06-01-2020 07:00:00 3.76667 C 92.4167 % 2.65 C
3752 06-01-2020 08:00:00 3.36667 C 92.7500 % 2.31 C
3753 06-01-2020 09:00:00 3.475 C 92.6667 % 2.4 C
3754 06-01-2020 10:00:00 3.73333 C 91.3333 % 2.45 C
3755 06-01-2020 11:00:00 2.975 C 92.2500 % 1.84 C
3756 06-01-2020 12:00:00 3.10833 C 93.0000 % 2.09 C
3757 06-01-2020 13:00:00 3.2 C 93.8333 % 2.3 C
3758 06-01-2020 14:00:00 3.26667 C 94.0000 % 2.4 C
3759 06-01-2020 15:00:00 3.4 C 94.0000 % 2.53 C
3760 06-01-2020 16:00:00 2.925 C 94.0000 % 2.06 C
3761 06-01-2020 17:00:00 1.85833 C 94.3333 % 1.05 C
3762 06-01-2020 18:00:00 1.01667 C 94.6667 % 0.26 C
3763 06-01-2020 19:00:00 0.39167 C 95.0000 % -0.31 C
3764 06-01-2020 20:00:00 -0.125 C 95.3333 % -0.78 C
3765 06-01-2020 21:00:00 -0.11667 C 96.0000 % -0.68 C
3766 06-01-2020 22:00:00 0.98333 C 96.5000 % 0.49 C
3767 06-01-2020 23:00:00